[[{"header":{"parameterUnit":"m.s-1","parameterCategory":1,"la1":30.6,"la2":29.2853,"lo1":-89.7004,"lo2":-87.6739,"dy":0.0162,"dx":0.0183,"nx":112,"ny":82,"refTime":"2023-03-18T06:00:00:Z","depth":0,"parameterNumber":2,"parameterNumberName":"U-component_of_WINDS"},"data":[0.0,0.0,0.0,0.0,0.0,0.0,0.0,0.0,0.0,0.0,0.0,0.0,0.0,0.0,0.0,0.0,0.0,0.0,0.0,0.0,0.0,0.0,0.0,0.0,0.0,0.0,0.0,0.0,0.0,0.0,0.0,0.0,0.0,0.0,0.0,0.0,0.0,0.0,0.0,0.0,0.0,0.0,0.0,0.0,0.0,0.0,0.0,0.0,0.0,0.0,0.0,0.0,0.0,0.0,0.0,0.0,0.0,0.0,0.0,0.0,0.0,0.0,0.0,0.0,0.0,0.0,0.0,0.0,0.0,0.0,0.0,0.0,0.0,0.0,0.0,0.0,0.0,0.0,0.0,0.0,0.0,0.0,0.0,0.0,0.0,0.0,0.0,0.0,0.0,0.0,-2.3595,-2.3595,-2.3595,-2.3595,-2.3595,-2.3595,-2.3595,-2.3595,0.0,0.0,0.0,0.0,0.0,0.0,0.0,0.0,0.0,0.0,0.0,0.0,0.0,0.0,0.0,0.0,0.0,0.0,0.0,0.0,0.0,0.0,0.0,0.0,0.0,0.0,0.0,0.0,0.0,0.0,0.0,0.0,0.0,0.0,0.0,0.0,0.0,0.0,0.0,0.0,0.0,0.0,0.0,0.0,0.0,0.0,0.0,0.0,0.0,0.0,0.0,0.0,0.0,0.0,0.0,0.0,0.0,0.0,0.0,0.0,0.0,0.0,0.0,0.0,0.0,0.0,0.0,0.0,0.0,0.0,0.0,0.0,0.0,0.0,0.0,0.0,0.0,0.0,0.0,0.0,0.0,0.0,0.0,0.0,0.0,0.0,0.0,0.0,0.0,0.0,0.0,0.0,0.0,0.0,0.0,0.0,0.0,0.0,0.0,0.0,0.0,0.0,0.0,0.0,-2.3595,-2.3595,-2.3595,-2.3595,-2.3595,-2.3595,-2.3595,-2.3595,0.0,0.0,0.0,0.0,0.0,0.0,0.0,0.0,0.0,0.0,0.0,0.0,0.0,0.0,0.0,0.0,0.0,0.0,0.0,0.0,0.0,0.0,0.0,0.0,0.0,0.0,0.0,0.0,0.0,0.0,0.0,0.0,0.0,0.0,0.0,0.0,0.0,0.0,0.0,0.0,0.0,0.0,0.0,0.0,0.0,0.0,0.0,0.0,0.0,0.0,0.0,0.0,0.0,0.0,0.0,0.0,0.0,0.0,0.0,0.0,0.0,0.0,0.0,0.0,0.0,0.0,0.0,0.0,0.0,0.0,0.0,0.0,0.0,0.0,0.0,0.0,0.0,0.0,0.0,0.0,0.0,0.0,0.0,0.0,0.0,0.0,0.0,0.0,0.0,0.0,0.0,0.0,0.0,0.0,0.0,0.0,0.0,0.0,0.0,0.0,0.0,0.0,0.0,-2.3595,-2.3595,-2.3595,-2.3595,-2.3595,-2.3595,-2.3595,-2.3595,-2.3595,-2.3595,0.0,0.0,0.0,0.0,0.0,0.0,0.0,0.0,0.0,0.0,0.0,0.0,0.0,0.0,0.0,0.0,0.0,0.0,0.0,0.0,0.0,0.0,0.0,0.0,0.0,0.0,0.0,0.0,0.0,0.0,0.0,0.0,0.0,0.0,0.0,0.0,0.0,0.0,0.0,0.0,0.0,0.0,0.0,0.0,0.0,0.0,0.0,0.0,0.0,0.0,0.0,0.0,0.0,0.0,0.0,0.0,0.0,0.0,0.0,0.0,0.0,0.0,0.0,0.0,0.0,0.0,0.0,0.0,0.0,0.0,0.0,0.0,0.0,0.0,0.0,0.0,0.0,0.0,0.0,0.0,0.0,0.0,0.0,0.0,0.0,0.0,0.0,0.0,0.0,0.0,0.0,0.0,0.0,0.0,0.0,0.0,0.0,0.0,0.0,0.0,0.0,0.0,-2.3595,-2.3595,-2.3595,-2.3595,-2.3595,-2.3595,-2.3595,-2.3595,-2.3595,-2.3595,0.0,0.0,0.0,0.0,0.0,0.0,0.0,0.0,0.0,0.0,0.0,0.0,0.0,0.0,0.0,0.0,0.0,0.0,0.0,0.0,0.0,0.0,0.0,0.0,0.0,0.0,0.0,0.0,0.0,0.0,0.0,0.0,0.0,0.0,0.0,0.0,0.0,0.0,0.0,0.0,0.0,0.0,0.0,0.0,0.0,0.0,0.0,0.0,0.0,0.0,0.0,0.0,0.0,0.0,0.0,0.0,0.0,0.0,0.0,0.0,0.0,0.0,0.0,0.0,0.0,0.0,0.0,0.0,0.0,0.0,0.0,0.0,0.0,0.0,0.0,0.0,0.0,0.0,0.0,0.0,0.0,0.0,0.0,0.0,0.0,0.0,0.0,0.0,0.0,0.0,0.0,0.0,0.0,0.0,0.0,0.0,0.0,0.0,0.0,0.0,0.0,0.0,-2.3595,-2.3595,-2.3595,-2.3595,-2.3595,-2.3595,-2.3595,-2.3595,-2.3595,-2.3595,0.0,0.0,0.0,0.0,0.0,0.0,0.0,0.0,0.0,0.0,0.0,0.0,0.0,0.0,0.0,0.0,0.0,0.0,0.0,0.0,0.0,0.0,0.0,0.0,0.0,0.0,0.0,0.0,0.0,0.0,0.0,0.0,0.0,0.0,0.0,0.0,0.0,0.0,0.0,0.0,0.0,0.0,0.0,0.0,0.0,0.0,0.0,0.0,0.0,0.0,0.0,0.0,0.0,0.0,0.0,0.0,0.0,0.0,0.0,0.0,0.0,0.0,0.0,0.0,0.0,0.0,0.0,0.0,0.0,0.0,0.0,0.0,0.0,0.0,0.0,0.0,0.0,0.0,0.0,0.0,0.0,0.0,0.0,0.0,0.0,0.0,0.0,0.0,0.0,0.0,0.0,0.0,0.0,0.0,0.0,0.0,0.0,0.0,0.0,0.0,0.0,0.0,-2.4852,-2.4852,-2.4852,-2.4852,-2.4852,-2.4852,-2.4455,-2.4216,-2.4216,0.0,0.0,0.0,0.0,0.0,0.0,0.0,0.0,0.0,0.0,0.0,0.0,0.0,0.0,0.0,0.0,0.0,0.0,0.0,0.0,0.0,0.0,0.0,0.0,0.0,0.0,0.0,0.0,0.0,0.0,0.0,0.0,0.0,0.0,0.0,0.0,0.0,0.0,0.0,0.0,0.0,0.0,0.0,0.0,0.0,0.0,0.0,0.0,0.0,0.0,0.0,0.0,0.0,0.0,0.0,0.0,0.0,0.0,0.0,0.0,0.0,0.0,0.0,0.0,0.0,0.0,0.0,0.0,0.0,0.0,0.0,0.0,0.0,0.0,0.0,0.0,0.0,0.0,0.0,0.0,0.0,0.0,0.0,0.0,0.0,0.0,0.0,0.0,0.0,0.0,0.0,0.0,0.0,0.0,0.0,0.0,0.0,0.0,0.0,0.0,0.0,0.0,-2.5848,-2.5716,-2.5615,-2.5615,-2.5615,-2.5615,-2.5615,-2.5173,-2.4918,-2.4918,0.0,0.0,0.0,0.0,0.0,0.0,0.0,0.0,0.0,0.0,0.0,0.0,0.0,0.0,0.0,0.0,0.0,0.0,0.0,0.0,0.0,0.0,0.0,0.0,0.0,0.0,0.0,0.0,0.0,0.0,0.0,0.0,0.0,0.0,0.0,0.0,0.0,0.0,0.0,0.0,0.0,0.0,0.0,0.0,0.0,0.0,0.0,0.0,0.0,0.0,0.0,0.0,0.0,0.0,0.0,0.0,0.0,0.0,0.0,0.0,0.0,0.0,0.0,0.0,0.0,0.0,0.0,0.0,0.0,0.0,0.0,0.0,0.0,0.0,0.0,0.0,0.0,0.0,0.0,0.0,0.0,0.0,0.0,0.0,0.0,0.0,0.0,0.0,0.0,0.0,0.0,0.0,0.0,0.0,0.0,0.0,0.0,0.0,0.0,0.0,0.0,0.0,-2.6466,-2.6016,-2.563,-2.563,-2.563,-2.563,-2.563,-2.563,-2.5615,0.0,0.0,0.0,0.0,0.0,0.0,0.0,0.0,0.0,0.0,0.0,0.0,0.0,0.0,0.0,0.0,0.0,0.0,0.0,0.0,0.0,0.0,0.0,0.0,0.0,0.0,0.0,0.0,0.0,0.0,0.0,0.0,0.0,0.0,0.0,0.0,0.0,0.0,0.0,0.0,0.0,0.0,0.0,0.0,0.0,0.0,0.0,0.0,0.0,0.0,0.0,0.0,0.0,0.0,0.0,0.0,0.0,0.0,0.0,0.0,0.0,0.0,0.0,0.0,0.0,0.0,0.0,0.0,0.0,0.0,0.0,0.0,0.0,0.0,0.0,0.0,0.0,0.0,0.0,0.0,0.0,0.0,0.0,0.0,0.0,0.0,0.0,0.0,0.0,0.0,0.0,0.0,0.0,0.0,0.0,0.0,0.0,0.0,0.0,0.0,0.0,0.0,0.0,-2.8516,-2.8008,-2.7639,-2.7639,-2.727,-2.7016,-2.7016,-2.6572,-2.6303,-2.6303,0.0,0.0,0.0,0.0,0.0,0.0,0.0,0.0,0.0,0.0,0.0,0.0,0.0,0.0,0.0,0.0,0.0,0.0,0.0,0.0,0.0,0.0,0.0,0.0,0.0,0.0,0.0,0.0,0.0,0.0,0.0,0.0,0.0,0.0,0.0,0.0,0.0,0.0,0.0,0.0,0.0,0.0,0.0,0.0,0.0,0.0,0.0,0.0,0.0,0.0,0.0,0.0,0.0,0.0,0.0,0.0,0.0,0.0,0.0,0.0,0.0,0.0,0.0,0.0,0.0,0.0,0.0,0.0,0.0,0.0,0.0,0.0,0.0,0.0,0.0,0.0,0.0,0.0,0.0,0.0,0.0,0.0,0.0,0.0,0.0,0.0,0.0,0.0,0.0,0.0,0.0,0.0,0.0,0.0,0.0,0.0,0.0,0.0,0.0,0.0,0.0,0.0,-2.9717,-2.9225,-2.885,-2.885,-2.8543,-2.8328,-2.8328,-2.7734,-2.7352,-2.7352,0.0,0.0,0.0,0.0,0.0,0.0,0.0,0.0,0.0,0.0,0.0,0.0,0.0,0.0,0.0,0.0,0.0,0.0,0.0,0.0,0.0,0.0,0.0,0.0,0.0,0.0,0.0,0.0,0.0,0.0,0.0,0.0,0.0,0.0,0.0,0.0,0.0,0.0,0.0,0.0,0.0,0.0,0.0,0.0,0.0,0.0,0.0,0.0,0.0,0.0,0.0,0.0,0.0,0.0,0.0,0.0,0.0,0.0,0.0,0.0,0.0,0.0,0.0,0.0,0.0,0.0,0.0,0.0,0.0,0.0,0.0,0.0,0.0,0.0,0.0,0.0,0.0,0.0,0.0,0.0,0.0,0.0,0.0,0.0,0.0,0.0,0.0,0.0,0.0,0.0,0.0,0.0,0.0,0.0,0.0,0.0,0.0,0.0,0.0,0.0,0.0,0.0,-3.0314,-2.9913,-2.9592,-2.9592,-2.9611,-2.9582,-2.9502,-2.8944,-2.8573,-2.8487,0.0,0.0,0.0,0.0,0.0,0.0,0.0,0.0,0.0,0.0,0.0,0.0,0.0,0.0,0.0,0.0,0.0,0.0,0.0,0.0,0.0,0.0,0.0,0.0,0.0,0.0,0.0,0.0,0.0,0.0,0.0,0.0,0.0,0.0,0.0,0.0,0.0,0.0,0.0,0.0,0.0,0.0,0.0,0.0,0.0,0.0,0.0,0.0,0.0,0.0,0.0,0.0,0.0,0.0,0.0,0.0,0.0,0.0,0.0,0.0,-3.0717,-3.0717,0.0,0.0,0.0,0.0,0.0,0.0,0.0,0.0,0.0,0.0,0.0,0.0,0.0,0.0,0.0,0.0,0.0,0.0,0.0,0.0,0.0,0.0,0.0,0.0,0.0,0.0,0.0,0.0,0.0,0.0,0.0,0.0,0.0,0.0,0.0,0.0,0.0,0.0,0.0,0.0,-3.0995,-3.0995,-3.0964,-3.0964,-3.1066,-3.0885,-3.0323,-2.9706,-2.9117,-2.8558,-2.7919,0.0,0.0,0.0,0.0,0.0,0.0,0.0,0.0,0.0,0.0,0.0,0.0,0.0,0.0,0.0,0.0,0.0,0.0,0.0,0.0,0.0,0.0,0.0,0.0,0.0,0.0,0.0,0.0,0.0,0.0,0.0,0.0,0.0,0.0,0.0,0.0,0.0,0.0,0.0,0.0,0.0,0.0,0.0,0.0,0.0,0.0,0.0,0.0,0.0,0.0,0.0,0.0,0.0,0.0,0.0,0.0,0.0,0.0,0.0,-3.1512,-3.119,0.0,0.0,0.0,0.0,0.0,0.0,0.0,0.0,0.0,0.0,0.0,0.0,0.0,0.0,0.0,0.0,0.0,0.0,0.0,0.0,0.0,0.0,0.0,0.0,0.0,0.0,0.0,0.0,0.0,0.0,0.0,0.0,0.0,0.0,0.0,0.0,0.0,0.0,0.0,0.0,-3.2256,-3.2333,-3.2364,-3.2364,-3.2415,-3.2325,-3.1946,-3.1339,-3.0685,-2.995,-2.9073,0.0,0.0,0.0,0.0,0.0,0.0,0.0,0.0,0.0,0.0,0.0,0.0,0.0,0.0,0.0,0.0,0.0,0.0,0.0,0.0,0.0,0.0,0.0,0.0,0.0,0.0,0.0,0.0,0.0,0.0,0.0,0.0,0.0,0.0,0.0,0.0,0.0,0.0,0.0,0.0,0.0,0.0,0.0,0.0,0.0,0.0,0.0,0.0,0.0,0.0,0.0,0.0,0.0,-3.3406,-3.3406,-3.3406,-3.3406,-3.3406,-3.3339,-3.2104,-3.1579,-3.1579,-3.1579,0.0,0.0,0.0,0.0,0.0,0.0,0.0,0.0,0.0,0.0,0.0,0.0,0.0,0.0,0.0,0.0,0.0,0.0,0.0,0.0,0.0,0.0,0.0,0.0,-3.1579,-3.1579,-3.1579,0.0,0.0,0.0,0.0,0.0,0.0,0.0,0.0,0.0,0.0,0.0,-3.3406,-3.3508,-3.3592,-3.3592,-3.3711,-3.3744,-3.3609,-3.3045,-3.2364,-3.1638,-3.0575,-2.9574,0.0,0.0,0.0,0.0,0.0,0.0,0.0,0.0,0.0,0.0,0.0,0.0,0.0,0.0,0.0,0.0,0.0,0.0,0.0,0.0,0.0,0.0,0.0,0.0,0.0,0.0,0.0,0.0,0.0,0.0,0.0,0.0,-3.119,-3.119,0.0,0.0,0.0,0.0,0.0,0.0,0.0,0.0,0.0,0.0,0.0,0.0,0.0,-3.3254,-3.3254,-3.3355,-3.3406,-3.3406,-3.3406,-3.3406,-3.3406,-3.3406,-3.3406,-3.3389,-3.3203,0.0,-3.3119,-3.3119,0.0,0.0,0.0,0.0,0.0,0.0,0.0,0.0,0.0,0.0,0.0,0.0,0.0,0.0,0.0,0.0,0.0,0.0,0.0,0.0,0.0,0.0,-3.3119,-3.3119,-3.3119,-3.3119,0.0,-3.2104,-3.1396,-3.2039,-3.2158,0.0,0.0,0.0,0.0,0.0,0.0,0.0,-3.3406,-3.3964,-3.4336,-3.4336,-3.4945,-3.5064,-3.4404,-3.3801,-3.3129,-3.2397,-3.1713,-3.0775,-2.9517,-2.9363,0.0,0.0,0.0,0.0,0.0,0.0,0.0,0.0,0.0,0.0,0.0,0.0,0.0,0.0,0.0,0.0,0.0,0.0,0.0,0.0,0.0,0.0,0.0,0.0,0.0,0.0,0.0,0.0,0.0,-3.1819,-3.1968,-3.2391,-3.2442,-3.2442,0.0,0.0,0.0,0.0,0.0,0.0,0.0,0.0,0.0,-3.3406,-3.3795,-3.4015,-3.4015,-3.4438,-3.4636,-3.4636,-3.4636,-3.4636,-3.4636,-3.4636,-3.4636,-3.4636,-3.4636,-3.4636,-3.4568,-3.3744,-3.3406,-3.3406,0.0,0.0,0.0,0.0,-3.3406,-3.3406,-3.3406,-3.3406,-3.3406,-3.3406,0.0,0.0,0.0,0.0,0.0,0.0,0.0,0.0,0.0,0.0,-3.3406,-3.3406,-3.3406,-3.3406,-3.3406,-3.2899,-3.2527,0.0,-3.2916,-3.3017,-3.3339,0.0,0.0,0.0,0.0,-3.4636,-3.4636,-3.4928,-3.5131,-3.5131,-3.5397,-3.5464,-3.5165,-3.4875,-3.4404,-3.3667,-3.3067,-3.2283,-3.1266,-3.0541,-2.9701,0.0,0.0,0.0,0.0,0.0,0.0,0.0,0.0,0.0,0.0,0.0,0.0,0.0,0.0,0.0,0.0,0.0,0.0,0.0,0.0,0.0,0.0,0.0,0.0,0.0,0.0,0.0,0.0,-3.2581,-3.278,-3.3339,-3.3406,-3.3406,0.0,0.0,0.0,0.0,0.0,0.0,-3.3964,-3.3964,-3.3964,-3.3964,-3.4506,-3.4776,-3.4776,-3.5329,-3.56,-3.56,-3.56,-3.56,-3.56,-3.5739,-3.5739,-3.5622,-3.5739,-3.5717,-3.5515,-3.4416,-3.3964,-3.3964,-3.3964,-3.3964,-3.3964,-3.3964,-3.3964,-3.3964,-3.3964,-3.3964,-3.3964,-3.3964,-3.3964,-3.3964,-3.3964,0.0,0.0,0.0,0.0,-3.3964,-3.3964,-3.3964,-3.3964,-3.3964,-3.3964,-3.3964,-3.3964,-3.3964,-3.3914,0.0,-3.3677,-3.3744,-3.3931,0.0,0.0,0.0,0.0,-3.56,-3.56,-3.56,-3.56,-3.56,-3.56,-3.56,-3.56,-3.56,-3.5363,-3.481,-3.4365,-3.3703,-3.2815,-3.1863,-3.0984,-3.0136,0.0,0.0,0.0,0.0,0.0,0.0,0.0,0.0,0.0,0.0,0.0,0.0,0.0,0.0,0.0,0.0,0.0,0.0,0.0,0.0,0.0,0.0,0.0,0.0,0.0,0.0,0.0,0.0,0.0,-3.3406,-3.3406,0.0,0.0,0.0,0.0,-3.4438,-3.5098,-3.5481,-3.5481,-3.5481,-3.5481,-3.5481,-3.5515,-3.5532,-3.5532,-3.5583,-3.56,-3.56,-3.56,-3.56,-3.5622,-3.6118,-3.6075,-3.5644,-3.6139,-3.6075,-3.5583,-3.5515,-3.5481,-3.5481,-3.5481,-3.5481,-3.5481,-3.5481,-3.5481,-3.5481,-3.5481,-3.5481,-3.5481,-3.5481,-3.5481,-3.5481,-3.5481,-3.5481,0.0,0.0,-3.5481,-3.5481,-3.5481,-3.5481,-3.5481,-3.5481,-3.5481,-3.5481,-3.5481,-3.5481,-3.5278,0.0,-3.4438,-3.4675,-3.5363,0.0,-3.5532,-3.5532,-3.5566,-3.56,-3.56,-3.56,-3.56,-3.56,-3.56,-3.56,-3.56,-3.56,-3.5583,-3.5549,-3.5526,-3.4913,-3.3604,-3.3479,-3.2814,-3.1526,-3.0826,0.0,0.0,0.0,0.0,0.0,0.0,0.0,0.0,0.0,0.0,0.0,0.0,0.0,0.0,0.0,0.0,0.0,0.0,0.0,0.0,0.0,0.0,0.0,0.0,0.0,0.0,0.0,0.0,-3.4754,-3.4822,0.0,-3.4822,-3.5042,-3.5216,-3.5216,-3.5447,-3.56,-3.56,-3.6096,-3.6366,-3.6366,-3.684,-3.707,-3.707,-3.707,-3.707,-3.707,-3.707,-3.707,-3.7094,-3.7285,-3.7262,-3.7094,-3.7268,-3.7262,-3.707,-3.707,-3.6495,-3.56,-3.56,-3.56,-3.56,-3.56,-3.56,-3.56,-3.56,-3.56,-3.56,-3.56,-3.56,-3.56,-3.56,-3.56,-3.56,-3.56,-3.56,-3.56,-3.56,-3.56,-3.56,-3.56,-3.56,-3.56,-3.56,-3.56,-3.5515,-3.5267,-3.5216,-3.5301,-3.5549,-3.56,-3.56,-3.56,-3.56,-3.56,-3.56,-3.56,-3.56,-3.56,-3.56,-3.56,-3.56,-3.56,-3.56,-3.56,-3.56,-3.5397,-3.4907,-3.4472,-3.3804,-3.2894,-3.1801,-3.1027,0.0,0.0,0.0,0.0,0.0,0.0,0.0,0.0,0.0,0.0,0.0,0.0,0.0,0.0,0.0,0.0,0.0,0.0,0.0,0.0,0.0,0.0,0.0,0.0,0.0,-3.4878,-3.5064,-3.5532,-3.56,-3.56,-3.56,-3.5859,-3.6011,-3.6011,-3.6225,-3.6377,-3.6377,-3.6874,-3.7161,-3.7161,-3.7652,-3.7905,-3.7905,-3.7905,-3.7905,-3.7905,-3.7905,-3.7905,-3.7905,-3.8067,-3.8061,-3.7905,-3.8067,-3.8061,-3.7905,-3.7905,-3.7313,-3.6343,-3.6113,-3.5836,-3.56,-3.56,-3.56,-3.56,-3.56,-3.56,-3.56,-3.56,-3.56,-3.56,-3.56,-3.56,-3.56,-3.56,-3.56,-3.56,-3.56,-3.56,-3.56,-3.56,-3.56,-3.56,-3.56,-3.56,-3.56,-3.56,-3.56,-3.56,-3.56,-3.56,-3.56,-3.56,-3.56,-3.56,-3.56,-3.56,-3.56,-3.56,-3.56,-3.56,-3.56,-3.56,-3.56,-3.56,-3.56,-3.56,-3.56,-3.5184,-3.4748,-3.4272,-3.2944,-3.1836,-3.0918,0.0,0.0,0.0,0.0,0.0,0.0,0.0,0.0,0.0,0.0,0.0,0.0,0.0,0.0,0.0,0.0,0.0,0.0,0.0,0.0,0.0,0.0,0.0,-3.56,-3.56,-3.56,-3.5633,-3.5633,-3.565,-3.5667,-3.6366,-3.6829,-3.6829,-3.7499,-3.7905,-3.7905,-3.7922,-3.7939,-3.7939,-3.7973,-3.7973,-3.7973,-3.7997,-3.7997,-3.7997,-3.7997,-3.7997,-3.8021,-3.8459,-3.8391,-3.7997,-3.8459,-3.8391,-3.7973,-3.7973,-3.7973,-3.7872,-3.7134,-3.6349,-3.5667,-3.5667,-3.5667,-3.5667,-3.5667,-3.5667,-3.5667,-3.5667,-3.5667,-3.5667,-3.5633,-3.5633,-3.5633,-3.56,-3.56,-3.56,-3.56,-3.56,-3.56,-3.56,-3.56,-3.56,-3.56,-3.56,-3.56,-3.56,-3.56,-3.56,-3.56,-3.56,-3.56,-3.56,-3.56,0.0,-3.56,-3.56,-3.56,-3.56,-3.56,-3.56,-3.56,-3.56,-3.56,-3.56,-3.56,-3.56,-3.56,-3.56,-3.56,-3.5577,-3.4301,-3.298,-3.1663,0.0,0.0,0.0,0.0,0.0,0.0,0.0,0.0,0.0,0.0,0.0,0.0,0.0,0.0,0.0,0.0,0.0,0.0,0.0,0.0,0.0,0.0,-3.56,-3.56,-3.56,-3.5802,-3.64,-3.6468,-3.6671,-3.7229,-3.7466,-3.7601,-3.7601,-3.7787,-3.7905,-3.7905,-3.8413,-3.87,-3.87,-3.9208,-3.9503,-3.9503,-3.9881,-4.0076,-4.0076,-4.0076,-4.0076,-4.0076,-3.9802,-3.9617,-3.9503,-3.9642,-3.9617,-3.9503,-3.9503,-3.9174,-3.8616,-3.7889,-3.7466,-3.728,-3.728,-3.728,-3.728,-3.728,-3.728,-3.728,-3.728,-3.728,-3.7178,-3.662,-3.6468,-3.6349,-3.5752,-3.56,-3.56,-3.56,-3.56,-3.56,-3.56,-3.56,-3.56,-3.56,-3.56,-3.56,-3.56,-3.56,-3.56,-3.56,-3.56,-3.56,-3.56,-3.56,0.0,-3.56,-3.56,-3.56,-3.56,-3.56,-3.56,-3.56,-3.56,-3.56,-3.56,-3.56,-3.56,-3.56,-3.56,-3.5362,-3.4894,-3.4503,-3.3915,0.0,0.0,0.0,0.0,0.0,0.0,0.0,0.0,0.0,0.0,0.0,0.0,0.0,0.0,0.0,0.0,0.0,0.0,0.0,0.0,0.0,0.0,-3.6096,-3.6214,-3.6512,-3.6315,-3.6383,-3.7161,-3.7246,-3.7432,-3.7872,-3.8176,-3.8362,-3.8362,-3.8937,-3.9292,-3.9292,-3.9986,-4.0375,-4.0375,-4.1069,-4.1448,-4.1448,-4.1991,-4.2281,-4.2281,-4.2281,-4.2281,-4.2258,-4.1944,-4.1684,-4.1448,-4.1448,-4.112,-4.0544,-4.0544,-4.0121,0.0,0.0,0.0,0.0,0.0,-3.7905,-3.7905,-3.7905,-3.7905,-3.7905,-3.7905,-3.7905,-3.7821,-3.7381,-3.7246,-3.7161,-3.6705,-3.6546,-3.6546,-3.6546,-3.6546,-3.6546,-3.6546,-3.6546,-3.6546,-3.6546,-3.6546,-3.6546,-3.6546,-3.6546,0.0,-3.6546,-3.6022,-3.56,-3.56,-3.56,-3.56,-3.56,-3.56,-3.56,-3.56,-3.56,-3.56,-3.56,-3.56,0.0,0.0,0.0,-3.56,-3.56,-3.56,0.0,0.0,0.0,-3.4284,-3.3582,0.0,0.0,0.0,-3.0867,-3.0867,0.0,0.0,0.0,0.0,0.0,0.0,0.0,0.0,0.0,0.0,0.0,0.0,0.0,0.0,0.0,0.0,-3.6931,-3.7161,-3.7922,-3.7516,-3.7364,-3.7956,-3.8024,-3.8091,-3.8261,-3.887,-3.9276,-3.936,-4.0578,-4.1322,-4.1322,0.0,0.0,0.0,0.0,-4.3192,-4.3192,-4.3787,-4.4084,-4.4084,-4.4084,-4.4084,-4.4067,-4.4039,-4.3693,-4.3192,-4.3192,-4.2474,-4.1322,-4.1322,-4.0933,-4.0282,-3.9428,-3.8717,-3.8159,-3.8159,-3.8159,-3.8159,-3.8159,0.0,0.0,-3.8159,-3.8159,-3.8142,-3.8058,-3.8024,-3.8024,-3.7922,-3.7905,-3.7905,-3.7905,-3.7905,-3.7905,-3.7905,-3.7905,-3.7905,-3.7905,-3.7905,-3.7905,-3.7905,-3.7905,-3.7905,-3.7905,-3.6766,-3.5853,-3.5853,-3.5853,-3.5853,-3.5853,-3.5853,-3.5853,-3.5853,0.0,0.0,-3.5735,-3.5735,-3.5701,-3.56,-3.56,-3.56,-3.56,-3.56,-3.56,-3.56,-3.5028,-3.4406,-3.3811,-3.3811,-3.3521,-3.2922,-3.2761,-3.2722,0.0,0.0,0.0,0.0,0.0,0.0,0.0,0.0,0.0,0.0,0.0,0.0,0.0,0.0,0.0,-3.7567,-3.7686,-3.7939,-3.8684,-3.9191,-3.9309,-3.8836,-3.8785,-3.9242,-4.046,-4.0696,-4.1018,-4.161,-4.1914,-4.2083,-4.2083,-4.2219,-4.2286,-4.2286,-4.2445,-4.2481,-4.2481,-4.3093,-4.3395,-4.3395,0.0,0.0,-4.3371,-4.2893,-4.2594,-4.2481,-4.2481,-4.2334,-4.2083,-4.2083,-4.1999,-4.1728,-4.0417,-3.9808,-3.9673,-3.9673,-3.9673,-3.9673,-3.9673,-3.9673,-3.9673,-3.9673,-3.9673,-3.9571,-3.8954,-3.8785,0.0,-3.8075,-3.7905,-3.7905,-3.7905,-3.7905,-3.7905,-3.7905,-3.7905,-3.7905,-3.7905,-3.7905,-3.7905,-3.7905,-3.7905,-3.7905,-3.7905,-3.7652,-3.7466,-3.7466,-3.7466,-3.7466,-3.7466,-3.7466,-3.7466,-3.7466,-3.7466,-3.7212,-3.6603,-3.6575,-3.6282,-3.5633,-3.56,-3.56,-3.56,-3.56,-3.56,-3.56,-3.547,-3.5339,-3.5207,-3.5207,-3.5138,-3.4981,-3.3928,-3.3417,0.0,0.0,0.0,0.0,0.0,0.0,0.0,0.0,0.0,0.0,0.0,-3.6434,0.0,0.0,-3.7584,-3.8328,-3.8447,-3.8836,-3.9952,-4.0426,-4.0527,-4.0138,-4.0426,-4.0933,-4.1677,-4.1745,-4.1897,-4.2252,-4.2642,-4.2861,-4.2861,-4.3217,-4.3464,-4.3464,-4.3746,-4.3914,-4.3914,-4.4501,-4.4802,-4.4802,-4.4802,-4.4802,-4.4802,-4.4483,-4.4173,-4.3914,-4.3914,-4.3515,-4.2828,-4.2439,-4.2286,-4.2219,-4.15,-4.1213,-4.1179,-4.0807,-4.0646,-4.0595,-4.0231,-4.0096,-4.0096,-4.0096,-4.0096,-4.0028,-3.9673,-3.9554,-3.9462,-3.9089,-3.8988,-3.8988,-3.8988,-3.8988,-3.8988,-3.8988,-3.8988,-3.8988,-3.8988,-3.8988,-3.8988,-3.8988,-3.8988,-3.8988,-3.8988,-3.8988,-3.8751,-3.8024,-3.7905,-3.7905,-3.7905,-3.7905,-3.7905,-3.7905,-3.7905,-3.7753,-3.7381,-3.7347,-3.7178,-3.6789,-3.64,-3.6197,-3.6197,-3.5802,-3.56,-3.56,-3.56,-3.543,-3.5098,-3.5447,-3.5447,-3.5098,-3.4752,-3.4423,0.0,0.0,0.0,0.0,0.0,0.0,0.0,0.0,-3.6248,-3.6874,-3.7015,-3.7229,-3.7973,-3.8125,-3.8396,-3.9276,-3.9428,-3.9884,-4.1238,-4.1542,-4.1644,-4.1644,-4.2033,-4.2354,-4.2489,-4.2506,-4.2574,-4.2726,-4.3301,-4.3639,-4.3639,-4.4231,-4.4615,-4.4615,-4.5062,-4.532,-4.532,-4.5915,-4.6167,-4.6046,-4.6167,-4.6167,-4.6063,-4.6063,-4.5783,-4.532,-4.532,-4.4675,-4.3606,-4.298,-4.277,-4.277,-4.277,-4.277,-4.2625,-4.1745,-4.1407,-4.1322,-4.0739,-4.0536,-4.0536,-4.0536,-4.0434,-4.0316,-4.0316,-4.0214,-4.0096,-4.0096,-4.0096,-4.0096,-4.0096,-4.0096,-4.0096,-4.0096,-4.0096,-4.0096,-4.0096,-4.0096,-4.0096,-4.0096,-4.0096,-4.0096,-4.0096,-4.0096,-3.9706,-3.8514,-3.8328,-3.8328,-3.8328,-3.8328,-3.8328,-3.8328,-3.8328,-3.8278,-3.8125,-3.799,-3.7905,-3.7905,-3.733,-3.7015,-3.7015,-3.64,-3.6039,-3.6039,-3.6039,-3.5709,-3.5039,-3.5557,-3.549,-3.4807,-3.5207,-3.5184,-3.56,-3.56,-3.56,-3.56,-3.6146,-3.6677,0.0,0.0,-3.7686,-3.777,-3.7787,-3.8007,-3.8734,-3.887,-3.9326,-4.073,-4.095,-4.1238,-4.2049,-4.2743,-4.3139,-4.3139,-4.2658,-4.2557,-4.3189,-4.3274,-4.3572,-4.4293,-4.4429,-4.4479,-4.4479,-4.4564,-4.4615,-4.4615,-4.4682,-4.4692,-4.4692,-4.5294,-4.5346,-4.4814,-4.5346,-4.532,-4.4786,-4.4786,-4.4759,-4.4692,-4.4692,-4.4603,-4.4479,-4.4395,-4.4344,-4.4344,-4.4344,-4.4344,-4.4175,-4.2692,-4.2168,-4.2168,-4.2066,-4.2033,-4.2033,-4.2033,-4.161,-4.1085,-4.1085,-4.0612,-4.0096,-4.0096,-4.0096,-4.0096,-4.0096,-4.0096,-4.0096,-4.0096,-4.0096,-4.0096,-4.0096,-4.0096,-4.0096,-4.0096,-4.0096,-4.0096,-4.0096,-4.0096,-4.0045,-3.9893,-3.9859,-3.9859,-3.9859,-3.9859,-3.9859,-3.9859,-3.9859,-3.9605,-3.892,-3.8278,-3.7905,-3.7905,-3.7821,-3.7787,-3.7787,-3.7702,-3.7652,-3.7652,-3.7652,-3.729,-3.6544,-3.6614,-3.6259,-3.547,-3.4941,-3.4988,-3.618,-3.662,-3.6935,-3.6935,-3.7195,-3.7432,-3.7432,-3.7686,-3.8024,-3.8447,-3.8531,-3.8768,-3.9495,-3.9986,-4.0476,0.0,-4.1559,-4.21,-4.2844,-4.3189,-4.3561,-4.4045,-4.3826,-4.3768,-4.4062,-4.4096,-4.4231,-4.4581,-4.4615,-4.4615,-4.4615,-4.4615,-4.4615,-4.4615,-4.4615,-4.4615,-4.4615,-4.4852,-4.4841,-4.4598,-4.4869,-4.4841,-4.4615,-4.4615,-4.4615,-4.4615,-4.4615,-4.4615,-4.4615,-4.4615,-4.4615,-4.4615,-4.4615,-4.4615,-4.4479,-4.3352,-4.2946,-4.2878,-4.2439,-4.2286,-4.2286,-4.2286,-4.2083,-4.183,-4.183,-4.161,-4.1399,-4.1399,-4.1399,-4.1399,-4.1399,-4.1399,-4.1399,-4.1399,-4.1399,-4.1399,-4.1399,-4.1399,-4.1238,-4.0815,-4.073,-4.0595,-4.018,-4.0096,-4.0096,-4.0096,-4.0096,-4.0096,-4.0096,-4.0096,-4.0096,-4.0096,-4.0096,-3.9977,-3.9673,-3.9343,-3.9174,-3.9174,-3.8768,-3.8531,-3.8531,-3.8125,-3.7905,-3.7905,-3.7905,-3.7753,-3.7432,-3.7432,-3.7263,-3.6935,-3.6649,-3.6673,-3.6941,-3.7483,-3.7905,-3.7905,-3.8058,-3.821,-3.821,-3.8362,-3.865,-3.9191,-3.9462,-3.9766,-4.029,-4.1001,-4.1576,-4.1779,-4.2252,-4.2861,-4.3623,-4.3741,-4.3944,-4.4547,-4.4615,-4.4615,-4.4615,-4.4615,-4.4615,-4.4615,-4.4615,-4.4615,-4.4615,-4.4615,-4.4615,-4.4615,-4.4615,-4.4615,-4.4615,-4.4776,-4.4759,-4.4615,-4.4776,-4.4759,-4.4615,-4.4615,-4.4615,-4.4615,-4.4615,-4.4615,-4.4615,-4.4615,-4.4615,-4.4615,-4.4615,-4.4615,-4.453,-4.3944,-4.3741,-4.3656,-4.3115,-4.2912,-4.2912,-4.2912,-4.2777,-4.2591,-4.2591,-4.2455,-4.2286,-4.2286,-4.2286,-4.2286,-4.2286,-4.2286,-4.2286,-4.2286,-4.2286,-4.2286,-4.2286,-4.2286,-4.2134,-4.161,-4.1508,-4.1322,-4.0807,-4.0722,-4.0722,-4.0722,-4.0722,-4.057,-4.0146,-4.0096,-4.0096,-4.0096,-4.0096,-4.0096,-4.0096,-4.0096,-4.0096,-4.0096,-3.9605,-3.9292,-3.9292,-3.8785,-3.8514,-3.8514,-3.8514,-3.8413,-3.821,-3.821,-3.8108,-3.7905,-3.7905,-3.7905,0.0,0.0,-3.7905,-3.7905,-3.8447,-3.8954,-3.8954,-3.9537,-4.0045,-4.0062,-4.0629,-4.1136,-4.117,-4.1762,-4.2489,-4.3206,-4.3341,-4.3656,-4.4462,-4.4564,-4.4581,-4.4615,-4.4615,-4.4615,0.0,-4.4615,-4.4615,-4.4615,-4.4615,-4.4615,-4.4615,-4.4615,-4.4615,-4.4615,-4.4615,-4.4615,-4.4615,-4.5178,-4.5178,-4.4598,-4.5178,-4.5169,-4.4615,-4.4615,-4.4615,-4.4615,-4.4615,-4.4615,-4.4615,-4.4615,-4.4615,-4.4615,-4.4615,-4.4615,-4.4615,-4.4581,-4.4564,-4.4564,-4.4547,-4.453,-4.453,-4.453,-4.3995,-4.3358,-4.3358,-4.2878,-4.2286,-4.2286,-4.2286,-4.2286,-4.2286,-4.2286,-4.2286,-4.2286,-4.2286,-4.2286,-4.2286,-4.2286,-4.2286,-4.2252,-4.2252,-4.2252,-4.2236,-4.2219,-4.2219,-4.2219,-4.2219,-4.1711,-4.0282,-4.0096,-4.0096,-4.0096,-4.0096,-4.0096,-4.0096,-4.0096,-4.0096,-4.0096,-4.0079,-4.0079,-4.0079,-4.0045,-4.0028,-4.0028,-4.0028,-3.969,-3.8954,-3.8954,-3.8599,-3.7905,-3.7905,-3.7905,0.0,0.0,-3.9343,-3.9343,-3.9554,-3.974,-3.974,-4.029,-4.0832,-4.0832,-4.1407,-4.1931,-4.1931,-4.254,-4.3115,-4.3341,-4.3859,-4.4282,-4.4564,-4.4615,-4.4615,-4.4615,-4.4615,0.0,0.0,0.0,0.0,-4.4615,-4.4615,-4.4615,-4.4615,-4.4615,-4.4615,-4.4615,-4.4615,-4.4615,-4.4615,-4.4786,-4.4786,-4.4598,-4.4814,-4.4786,-4.4615,-4.4615,-4.4615,-4.4615,-4.4615,-4.4615,-4.4615,-4.4615,-4.4615,-4.4615,-4.4615,-4.4615,-4.4615,-4.4615,-4.4615,-4.4615,-4.4615,-4.4615,-4.4615,-4.4615,-4.4429,-4.4198,-4.4198,-4.4012,-4.3836,-4.3836,-4.3836,-4.3836,-4.3836,-4.3836,-4.3836,-4.3836,-4.3836,-4.3836,-4.3836,-4.3836,-4.3684,-4.3132,-4.3031,-4.2878,-4.2371,-4.2286,-4.2286,-4.2286,-4.188,-4.139,-4.0882,-4.0417,-4.0096,-4.0096,-4.0096,-4.0096,-4.0096,-4.0096,-4.0096,-4.0096,-4.0096,-4.0096,-4.0096,-4.0096,-4.0096,-4.0096,-4.0096,-3.9977,-3.974,-3.974,-3.9605,-3.9343,-3.9343,-3.9343,0.0,-3.974,-4.0163,-4.0434,-4.0476,-4.0544,-4.084,-4.1238,-4.1593,-4.1593,-4.2185,-4.2692,-4.2692,-4.3318,-4.3826,-4.3826,-4.4248,-4.4615,-4.4615,-4.4615,-4.4615,-4.4615,-4.4615,-4.4615,0.0,0.0,0.0,-4.4976,-4.4976,-4.5122,-4.5376,-4.5393,-4.5393,-4.5393,-4.5393,-4.5393,-4.5393,-4.5393,-4.5393,-4.5393,-4.5111,-4.4976,-4.4976,-4.4733,-4.4615,-4.4615,-4.4615,-4.4615,-4.4615,-4.4615,-4.4615,-4.4615,-4.4615,-4.4615,-4.4615,-4.4615,-4.4615,-4.4615,-4.4615,-4.4615,-4.4615,-4.4615,-4.4615,-4.4615,-4.4615,-4.4615,-4.4615,-4.4615,-4.4615,-4.4615,-4.4615,-4.4615,-4.4615,-4.4615,-4.4615,-4.4615,-4.4615,-4.4615,-4.4462,-4.3927,-4.3826,-4.3673,-4.3183,-4.3125,-4.3125,-4.3125,-4.2472,-4.1897,-4.1627,-4.117,-4.0891,-4.0891,-4.0891,-4.0891,-4.0891,-4.0654,-4.0476,-4.0476,-4.0248,-4.0096,-4.0096,-4.0096,-4.0096,-4.0096,-4.0096,-4.0096,-4.0096,-4.0096,-4.0096,-4.0096,-4.0096,-4.0096,-4.0146,-4.0163,-4.0333,-4.1068,-4.1271,-4.1441,-4.2134,-4.232,-4.2354,-4.2354,-4.2963,-4.3443,0.0,0.0,-4.4615,-4.4615,-4.4615,-4.4615,-4.4615,-4.4615,-4.4615,0.0,0.0,0.0,0.0,0.0,0.0,-4.5821,0.0,-4.6058,-4.6752,-4.6786,-4.6786,-4.6786,-4.6786,-4.6786,-4.6786,-4.6786,-4.6786,-4.6786,-4.6092,-4.5771,-4.5737,-4.501,-4.4699,-4.4666,-4.4666,-4.4632,-4.4615,-4.4615,-4.4615,-4.4615,-4.4615,-4.4615,-4.4615,-4.4615,-4.4615,-4.4615,-4.4615,-4.4615,-4.4615,-4.4615,-4.4615,-4.4615,-4.4615,-4.4615,-4.4615,-4.4615,-4.4615,-4.4615,-4.4615,-4.4615,-4.4615,-4.4615,-4.4615,-4.4615,-4.4615,-4.4615,-4.4615,-4.4615,-4.4615,-4.4615,-4.4615,-4.4615,-4.4615,-4.4615,-4.3944,-4.32,-4.2439,-4.2303,-4.2286,-4.2286,-4.2286,-4.2286,-4.2286,-4.166,-4.1271,-4.1271,-4.062,-4.0214,-4.0214,-4.0214,-4.0214,-4.0214,-4.0214,-4.0214,-4.0214,-4.0214,-4.0214,-4.0214,-4.0214,-4.0214,-4.0764,-4.0916,-4.1102,-4.183,-4.2016,-4.2066,-4.2252,-4.2726,-4.3132,-4.3132,-4.3758,-4.4282,0.0,0.0,0.0,-4.4615,-4.4615,0.0,-4.4615,-4.4615,0.0,-4.4615,0.0,-4.4835,-4.5365,-4.5602,0.0,0.0,-4.6836,-4.6599,-4.6786,-4.6786,-4.6786,-4.6786,-4.6786,-4.6786,-4.6786,-4.6786,-4.6786,-4.6786,-4.6599,-4.6515,-4.6498,-4.6312,-4.594,-4.5415,-4.5415,-4.5094,-4.4615,-4.4615,-4.4615,-4.4615,-4.4615,-4.4615,-4.4615,-4.4615,-4.4615,-4.4615,-4.4615,-4.4615,-4.4615,-4.4615,-4.4615,-4.4615,-4.4615,-4.4615,-4.4615,-4.4615,-4.4615,-4.4615,-4.4615,-4.4615,-4.4615,-4.4615,-4.4615,-4.4615,-4.4615,-4.4615,-4.4615,-4.4615,-4.4615,-4.4615,-4.4615,-4.4615,-4.4615,-4.4615,-4.4445,-4.4012,-4.3234,-4.2642,-4.2286,-4.2286,-4.2286,-4.2286,-4.2286,-4.2117,-4.2016,-4.2016,-4.183,-4.1728,-4.1728,-4.1728,-4.1728,-4.1728,-4.1728,-4.1728,-4.1728,-4.1728,-4.1728,-4.1728,-4.1728,-4.1728,-4.1085,-4.1441,-4.1863,-4.2608,-4.2777,-4.2878,-4.3217,-4.3623,-4.3927,-4.3927,-4.4282,-4.4615,-4.4615,-4.4615,-4.4615,0.0,0.0,0.0,-4.4615,-4.4615,-4.4615,0.0,-4.4615,0.0,-4.5635,-4.5991,-4.6667,0.0,-4.753,-4.7428,-4.775,-4.7767,-4.7767,-4.7767,-4.7767,-4.7767,-4.7767,-4.7767,-4.7767,-4.775,-4.7445,-4.7293,-4.7276,-4.6938,-4.6566,-4.6177,0.0,-4.5754,-4.5077,-4.5077,-4.4874,-4.4615,-4.4615,-4.4615,-4.4615,-4.4615,-4.4615,-4.4615,-4.4615,-4.4615,-4.4615,-4.4615,-4.4615,-4.4615,-4.4615,-4.4615,-4.4615,-4.4615,-4.4615,-4.4615,-4.4615,-4.4615,-4.4615,-4.4615,-4.4615,-4.4615,-4.4615,-4.4615,-4.4615,-4.4615,-4.4615,-4.4615,-4.4615,-4.4615,-4.4615,-4.4615,-4.4615,-4.4445,-4.3978,-4.3555,-4.3328,-4.3328,-4.3328,-4.3328,-4.3328,-4.298,-4.2777,-4.2777,-4.2472,-4.2286,-4.2286,-4.2286,-4.2286,-4.2286,-4.2286,-4.2286,-4.2286,-4.2286,-4.2286,-4.2286,-4.2286,-4.2286,-4.1322,-4.188,-4.2625,-4.3386,-4.3572,-4.3741,-4.4445,-4.4615,-4.4615,-4.4615,-4.4615,-4.4615,-4.4615,-4.4615,-4.4615,-4.4615,0.0,-4.4615,-4.4615,-4.4615,-4.4615,-4.4615,-4.4699,-4.5055,-4.5771,-4.6515,-4.7242,-4.8003,-4.8041,-4.8342,-4.8968,-4.9001,-4.9001,-4.9001,-4.9001,-4.9001,-4.9001,-4.9001,-4.9001,-4.9001,-4.8359,-4.8041,-4.8007,-4.7378,-4.7039,-4.6938,-4.6938,-4.6532,-4.5855,-4.5855,-4.5399,-4.475,-4.475,-4.4699,-4.4615,-4.4615,-4.4615,-4.4615,-4.4615,-4.4615,-4.4615,-4.4615,-4.4615,-4.4615,-4.4615,-4.4615,-4.4615,-4.4615,-4.4615,-4.4615,-4.4615,-4.4615,-4.4615,-4.4615,-4.4615,-4.4615,-4.4615,-4.4615,-4.4615,-4.4615,-4.4615,-4.4615,-4.4615,-4.4615,-4.4615,-4.4615,-4.4615,-4.4615,-4.4615,-4.4615,-4.4615,-4.4615,-4.4615,-4.4615,-4.4615,-4.3961,-4.3572,-4.3572,-4.2963,-4.2591,-4.2591,-4.2591,-4.2591,-4.2591,-4.2591,-4.2591,-4.2591,-4.2591,-4.2591,-4.2591,-4.2591,-4.2591,-4.1931,-4.2658,-4.3403,-4.4181,-4.4384,-4.4445,-4.4581,-4.4615,0.0,0.0,-4.4615,-4.4615,-4.4615,-4.4615,-4.4615,-4.4615,-4.4615,-4.4615,-4.4615,-4.4615,-4.4615,0.0,-4.5128,-4.5805,-4.6532,-4.7293,0.0,0.0,-4.8815,-4.8883,-4.9001,-4.9001,-4.9001,-4.9001,-4.9001,-4.9001,-4.9001,-4.9001,-4.9001,-4.9001,-4.8883,-4.8815,-4.8798,-4.868,-4.8291,-4.7733,-4.7733,0.0,-4.6599,-4.6599,-4.616,-4.5517,-4.5517,-4.5128,-4.4615,-4.4615,-4.4615,-4.4615,-4.4615,-4.4615,-4.4615,-4.4615,-4.4615,-4.4615,-4.4615,-4.4615,-4.4615,-4.4615,-4.4615,-4.4615,-4.4615,-4.4615,-4.4615,-4.4615,-4.4615,-4.4615,-4.4615,-4.4615,-4.4615,-4.4615,-4.4615,-4.4615,-4.4615,-4.4615,-4.4615,-4.4615,-4.4615,-4.4615,-4.4615,-4.4615,-4.4615,-4.4615,-4.4615,-4.4615,-4.4615,-4.4479,-4.4384,-4.4384,-4.4276,-4.4209,-4.4209,-4.4209,-4.4209,-4.4209,-4.4209,-4.4209,-4.4209,-4.4209,-4.4209,-4.4209,-4.4209,-4.4209,-4.2202,-4.3132,-4.4113,-4.4513,-4.4615,-4.4615,-4.4615,0.0,0.0,0.0,-4.3978,-4.3859,-4.3453,-4.3707,0.0,-4.3978,-4.4344,-4.4615,-4.4615,-4.4615,-4.4615,-4.4615,-4.5246,-4.5991,-4.6718,-4.7479,-4.8193,-4.8951,-4.9001,-4.9001,-4.9001,-4.9001,-4.9001,-4.9001,-4.9001,-4.9001,-4.9001,-4.9001,-4.9001,-4.9001,-4.9001,-4.9001,-4.9001,-4.9001,-4.8815,-4.8477,-4.8477,-4.8054,-4.7378,-4.7378,-4.6938,-4.6261,-4.6261,-4.5821,-4.5162,-4.5162,-4.4925,-4.4615,-4.4615,-4.4615,-4.4615,-4.4615,-4.4615,-4.4615,-4.4615,-4.4615,-4.4615,-4.4615,-4.4615,-4.4615,-4.4615,-4.4615,-4.4615,-4.4615,-4.4615,-4.4615,-4.4615,-4.4615,-4.4615,-4.4615,-4.4615,-4.4615,-4.4615,-4.4615,-4.4615,-4.4615,-4.4615,-4.4615,-4.4615,-4.4615,-4.4615,-4.4615,-4.4615,-4.4615,-4.4615,-4.4615,-4.4615,-4.4615,-4.4615,-4.4615,-4.4615,-4.4615,-4.4615,-4.4615,-4.4615,-4.4615,-4.4615,-4.4615,-4.4615,-4.4615,-4.4615,-4.4615,-4.2252,-4.3284,-4.4395,-4.4564,-4.4615,-4.4615,-4.4615,-4.4479,0.0,-4.3511,-4.3257,-4.2997,-4.2405,-4.2912,-4.3392,0.0,-4.4079,-4.4615,-4.4615,-4.4615,-4.4615,0.0,-4.5382,0.0,-4.6735,-4.7614,0.0,-4.8968,-4.9001,-4.9001,-4.9001,-4.9001,-4.9001,-4.9001,-4.9001,-4.9001,-4.9001,-4.9001,-4.9001,-4.9001,-4.9001,-4.9001,-4.9001,-4.9001,-4.9001,-4.9001,-4.9001,-4.868,-4.8125,-4.8125,-4.7716,-4.7039,-4.7039,-4.6583,-4.5923,-4.5771,-4.5331,-4.479,-4.4649,-4.4615,-4.4615,-4.4615,-4.4615,-4.4615,-4.4615,-4.4615,-4.4615,-4.4615,-4.4615,-4.4615,-4.4615,-4.4615,-4.4615,-4.4615,-4.4615,-4.4615,-4.4615,-4.4615,-4.4615,-4.4615,-4.4615,-4.4615,-4.4615,-4.4615,-4.4615,-4.4615,-4.4615,-4.4615,-4.4615,-4.4615,-4.4615,-4.4615,-4.4615,-4.4615,-4.4615,-4.4615,-4.4615,-4.4615,-4.4615,-4.4615,-4.4615,-4.4615,-4.4615,-4.4615,-4.4615,-4.4615,-4.4615,-4.4615,-4.4615,-4.4615,-4.4615,-4.4615,-4.2117,-4.2895,-4.369,-4.4429,-4.4615,-4.4615,-4.4615,0.0,-4.3504,-4.3409,-4.2878,-4.2371,-4.2303,-4.2912,-4.3392,-4.3392,0.0,-4.4615,-4.4615,-4.4615,-4.4615,-4.4615,0.0,0.0,-4.6786,-4.8071,-4.8934,-4.9001,-4.9001,-4.9001,-4.9001,-4.9001,-4.9001,-4.9001,-4.9001,-4.9001,-4.9001,-4.9001,-4.9001,-4.9001,-4.9001,-4.9001,-4.9001,-4.9001,-4.9001,-4.9001,-4.9001,-4.8968,0.0,-4.89,-4.8477,-4.7787,-4.7787,-4.7361,-4.6616,-4.5957,-4.5669,-4.55,-4.4852,-4.4615,-4.4615,-4.4615,-4.4615,-4.4615,-4.4615,-4.4615,-4.4615,-4.4615,-4.4615,-4.4615,-4.4615,-4.4615,-4.4615,-4.4615,-4.4615,-4.4615,-4.4615,-4.4615,-4.4615,-4.4615,-4.4615,-4.4615,-4.4615,-4.4615,-4.4615,-4.4615,-4.4615,-4.4615,-4.4615,-4.4615,-4.4615,-4.4615,-4.4615,-4.4615,-4.4615,-4.4615,-4.4615,-4.4615,-4.4615,-4.4615,-4.4615,-4.4615,-4.4615,-4.4615,-4.4615,-4.4615,-4.4615,-4.4615,-4.4615,-4.4615,-4.4615,-4.4615,-4.21,-4.2844,-4.3578,-4.4412,-4.4615,-4.4479,-4.3995,0.0,-4.3139,-4.2243,-4.1847,-4.1491,-4.1077,-4.1931,-4.2743,0.0,0.0,0.0,-4.4615,-4.4615,-4.4615,-4.4615,-4.5889,0.0,0.0,0.0,-4.9001,-4.9001,-4.9001,-4.9001,-4.9001,-4.9001,-4.9001,-4.9001,-4.9001,-4.9001,-4.9001,-4.9001,-4.9001,-4.9001,-4.9001,-4.9001,-4.9001,-4.9001,-4.9001,-4.9001,-4.9001,-4.9001,0.0,-4.9001,-4.8832,-4.8578,-4.8578,-4.8122,-4.7445,-4.7141,-4.6464,-4.5669,-4.5365,-4.4959,-4.4615,-4.4615,-4.4615,-4.4615,-4.4615,-4.4615,-4.4615,-4.4615,-4.4615,-4.4615,-4.4615,-4.4615,-4.4615,-4.4615,-4.4615,-4.4615,-4.4615,-4.4615,-4.4615,-4.4615,-4.4615,-4.4615,-4.4615,-4.4615,-4.4615,-4.4615,-4.4615,-4.4615,-4.4615,-4.4615,-4.4615,-4.4615,-4.4615,-4.4615,-4.4615,-4.4615,-4.4615,-4.4615,-4.4615,-4.4615,-4.4615,-4.4615,-4.4615,-4.4615,-4.4615,-4.4615,-4.4615,-4.4615,-4.4615,-4.4615,-4.4615,-4.4615,-4.1762,-4.2506,-4.3267,-4.4045,-4.4231,-4.4096,0.0,0.0,-4.2429,-4.1424,-4.1035,-4.0713,-4.0197,-4.1314,-4.2286,0.0,0.0,-4.4615,-4.4615,-4.4615,-4.4682,-4.4919,0.0,-4.6887,-4.7107,-4.8257,-4.9001,-4.9001,-4.9001,-4.9001,-4.9001,-4.9001,-4.9001,-4.9001,-4.9001,-4.9001,-4.9001,-4.9001,-4.9001,-4.9001,-4.9001,-4.9001,-4.9001,-4.9001,-4.9001,-4.9001,-4.9001,-4.9001,0.0,-4.9001,-4.9001,-4.9001,-4.9001,-4.8697,-4.8206,-4.7973,-4.7229,-4.6295,-4.5855,-4.5348,-4.4902,-4.4682,-4.4615,-4.4615,-4.4615,-4.4615,-4.4615,-4.4615,-4.4615,-4.4615,-4.4615,-4.4615,-4.4615,-4.4615,-4.4615,-4.4615,-4.4615,-4.4615,-4.4615,-4.4615,-4.4615,-4.4615,-4.4615,-4.4615,-4.4615,-4.4615,-4.4615,-4.4615,-4.4615,-4.4615,-4.4615,-4.4615,-4.4615,-4.4615,-4.4615,-4.4615,-4.4615,-4.4615,-4.4615,-4.4615,-4.4615,-4.4615,-4.4615,-4.4615,-4.4615,-4.4615,-4.4615,-4.4615,-4.4615,-4.4615,-4.4615,-4.4615,-4.1018,-4.1745,-4.2489,-4.325,-4.3409,-4.3409,0.0,0.0,-4.1221,-4.1204,-4.0612,-4.0113,-4.0096,-4.1314,-4.2286,-4.2286,0.0,0.0,-4.4615,-4.4615,-4.4886,0.0,0.0,-4.709,-4.7804,-4.8578,-4.9001,-4.9001,-4.9001,0.0,-4.9001,-4.9001,-4.9001,-4.9001,-4.9001,-4.9001,-4.9001,-4.9001,-4.9001,-4.9001,-4.9001,-4.9001,-4.9001,-4.9001,-4.9001,-4.9001,-4.9001,-4.9001,0.0,-4.9001,-4.9001,-4.9001,-4.9001,-4.9001,-4.89,-4.8159,-4.7872,-4.7652,-4.621,-4.5703,-4.5568,-4.4852,-4.4615,-4.4615,-4.4615,-4.4615,-4.4615,-4.4615,-4.4615,-4.4615,-4.4615,-4.4615,-4.4615,-4.4615,-4.4615,-4.4615,-4.4615,-4.4615,-4.4615,-4.4615,-4.4615,-4.4615,-4.4615,-4.4615,-4.4615,-4.4615,-4.4615,-4.4615,-4.4615,-4.4615,-4.4615,-4.4615,-4.4615,-4.4615,-4.4615,-4.4615,-4.4615,-4.4615,-4.4615,-4.4615,-4.4615,-4.4615,-4.4615,-4.4615,-4.4615,-4.4615,-4.4615,-4.4615,-4.4615,-4.4615,-4.4615,-4.4615,-4.1001,-4.1373,-4.1728,-4.2455,-4.2642,-4.2523,-4.2016,-4.1542,-4.1068,-4.0544,-4.0265,-4.0096,-4.0096,-4.1314,-4.2286,-4.2286,-4.3599,0.0,0.0,0.0,0.0,-4.5618,-4.6802,-4.7851,0.0,0.0,-4.9001,-4.9001,-4.9001,-4.9001,-4.9001,-4.9001,-4.9001,-4.9001,-4.9001,-4.9001,-4.9001,-4.9001,-4.9001,-4.9001,-4.9001,-4.9001,-4.9001,-4.9001,-4.9001,-4.9001,-4.9001,-4.9001,-4.9001,-4.9001,-4.9001,-4.9001,-4.9001,-4.9001,-4.8968,-4.8748,-4.8311,-4.7753,-4.6786,-4.6126,-4.5585,-4.4852,-4.4615,-4.4615,-4.4615,-4.4615,-4.4615,-4.4615,-4.4615,-4.4615,-4.4615,-4.4615,-4.4615,-4.4615,-4.4615,-4.4615,-4.4615,-4.4615,-4.4615,-4.4615,-4.4615,-4.4615,-4.4615,-4.4615,-4.4615,-4.4615,-4.4615,-4.4615,-4.4615,-4.4615,-4.4615,-4.4615,-4.4615,-4.4615,-4.4615,-4.4615,-4.4615,-4.4615,-4.4615,-4.4615,-4.4615,-4.4615,-4.4615,-4.4615,-4.4615,-4.4615,-4.4615,-4.4615,-4.4615,-4.4615,-4.4615,-4.4615,0.0,-4.0984,-4.1322,-4.1762,-4.188,0.0,0.0,-4.0984,-4.0646,-4.0197,-4.0096,-4.0197,-4.0468,-4.1474,-4.2388,-4.2675,-4.3775,0.0,0.0,0.0,0.0,-4.5991,0.0,0.0,0.0,-4.9001,-4.9001,-4.9001,-4.9001,-4.9001,-4.9001,-4.9001,-4.9001,-4.9001,-4.9001,-4.9001,-4.9001,-4.9001,-4.9001,-4.9001,-4.9001,-4.9001,-4.9001,-4.9001,-4.9001,-4.9001,-4.9001,-4.9001,0.0,-4.9001,-4.9001,-4.9001,-4.9001,-4.9001,-4.9001,-4.9001,-4.8714,-4.8223,-4.7479,-4.6735,-4.5991,-4.5246,-4.4835,-4.4615,-4.4615,-4.4615,-4.4615,-4.4615,-4.4615,-4.4615,-4.4615,-4.4615,-4.4615,-4.4615,-4.4615,-4.4615,-4.4615,-4.4615,-4.4615,-4.4615,-4.4615,-4.4615,-4.4615,-4.4615,-4.4615,-4.4615,-4.4615,-4.4615,-4.4615,-4.4615,-4.4615,-4.4615,-4.4615,-4.4615,-4.4615,-4.4615,-4.4615,-4.4615,-4.4615,-4.4615,-4.4615,-4.4615,-4.4615,-4.4615,-4.4615,-4.4615,-4.4615,-4.4615,-4.4615,-4.4615,-4.4615,-4.4615,0.0,0.0,0.0,-4.1119,-4.1119,0.0,0.0,0.0,0.0,-4.0096,-4.0146,-4.04,-4.1068,-4.1847,-4.2591,-4.3274,-4.4079,0.0,0.0,-4.4699,0.0,0.0,-4.8105,0.0,-4.9001,-4.9001,-4.9001,-4.9001,-4.9001,-4.9001,-4.9001,-4.9001,-4.9001,-4.9001,-4.9001,-4.9001,-4.9001,-4.9001,-4.9001,-4.9001,-4.9001,-4.9001,-4.9001,-4.9001,-4.9001,0.0,-4.9001,-4.9001,-4.9001,-4.9001,-4.9001,-4.9001,-4.9001,-4.9001,-4.9001,-4.9001,-4.9001,-4.89,-4.8173,-4.7428,-4.6667,-4.5872,-4.5162,-4.4615,-4.4615,-4.4615,-4.4615,-4.4615,-4.4615,-4.4615,-4.4615,-4.4615,-4.4615,-4.4615,-4.4615,-4.4615,-4.4615,-4.4615,-4.4615,-4.4615,-4.4615,-4.4615,-4.4615,-4.4615,-4.4615,-4.4615,-4.4615,-4.4615,-4.4615,-4.4615,-4.4615,-4.4615,-4.4615,-4.4615,-4.4615,-4.4615,-4.4615,-4.4615,-4.4615,-4.4615,-4.4615,-4.4615,-4.4632,-4.4682,-4.4733,-4.4767,-4.4767,-4.4694,-4.4694,-4.4767,-4.4609,-4.4609,-4.0096,0.0,-4.0367,-4.0367,-4.0367,-4.0367,0.0,0.0,0.0,0.0,0.0,0.0,0.0,0.0,-4.3217,-4.3358,0.0,-4.4615,-4.4615,-4.5579,0.0,-4.6752,-4.8105,-4.9001,-4.9001,-4.9001,-4.9001,-4.9001,-4.9001,-4.9001,-4.9001,-4.9001,-4.9001,-4.9001,-4.9001,-4.9001,-4.9001,-4.9001,-4.9001,-4.9001,-4.9001,-4.9001,-4.9001,-4.9001,-4.9001,-4.9001,-4.9001,-4.9001,-4.9001,-4.9001,-4.9001,-4.9001,-4.9001,-4.9001,-4.9001,-4.9001,-4.9001,-4.89,-4.8173,-4.7428,-4.6583,-4.5263,-4.475,-4.4615,-4.4615,-4.4615,-4.4615,-4.4615,-4.4615,-4.4615,-4.4615,-4.4615,-4.4615,-4.4615,-4.4615,-4.4615,-4.4615,-4.4615,-4.4615,-4.4615,-4.4615,-4.4615,-4.4615,-4.4615,-4.4615,-4.4615,-4.4615,-4.4615,-4.4615,-4.4615,-4.4615,-4.4615,-4.4615,-4.4615,-4.4615,-4.4615,-4.4615,-4.4615,-4.4615,-4.4615,-4.4615,-4.4615,-4.4886,-4.5432,-4.5991,-4.6261,-4.6278,-4.5571,-4.5571,-4.6232,-4.4795,-4.4526,-4.0096,-4.0096,-4.0096,-4.0096,-4.0096,-4.0096,0.0,0.0,0.0,0.0,0.0,0.0,0.0,0.0,0.0,0.0,-4.4316,0.0,0.0,0.0,-4.6921,-4.7259,-4.8308,-4.9001,0.0,-4.9001,-4.9001,-4.9001,-4.9001,-4.9001,-4.9001,-4.9001,-4.9001,-4.9001,-4.9001,-4.9001,-4.9001,-4.9001,-4.9001,-4.9001,-4.9001,-4.9001,-4.9001,-4.9001,-4.9001,-4.9001,-4.9001,-4.9001,-4.9001,-4.9001,-4.9001,-4.9001,-4.9001,-4.9001,-4.9001,-4.9001,-4.9001,-4.8951,-4.8545,-4.7699,-4.6549,-4.5089,-4.4615,-4.4615,-4.4615,-4.4615,-4.4615,-4.4615,-4.4615,-4.4615,-4.4615,-4.4615,-4.4615,-4.4615,-4.4615,-4.4615,-4.4615,-4.4615,-4.4615,-4.4615,-4.4615,-4.4615,-4.4615,-4.4615,-4.4615,-4.4615,-4.4615,-4.4615,-4.4615,-4.4615,-4.4733,-4.506,-4.5094,-4.5229,-4.5596,-4.5602,-4.5449,-4.5111,-4.5427,-4.5602,-4.5602,-4.5602,-4.5788,-4.6194,-4.6599,-4.6786,-4.6786,-4.6287,-4.6088,-4.6149,-4.5113,-4.4691,-4.0096,-4.0096,-4.0096,-4.0096,-4.0096,-4.0096,0.0,0.0,0.0,0.0,0.0,0.0,0.0,-4.3494,0.0,0.0,0.0,0.0,-4.5449,-4.6261,-4.7022,-4.7682,-4.8494,0.0,-4.9001,-4.9001,-4.9001,-4.9001,-4.9001,-4.9001,-4.9001,-4.9001,-4.9001,-4.9001,-4.9001,-4.9001,-4.9001,-4.9001,-4.9001,-4.9001,-4.9001,-4.9001,-4.9001,-4.9001,-4.9001,-4.9001,0.0,0.0,-4.9001,-4.9001,-4.9001,-4.9001,-4.9001,-4.9001,-4.9001,-4.9001,-4.9001,-4.8968,-4.8748,-4.7767,-4.6397,-4.5055,-4.4615,-4.4615,-4.4615,-4.4615,-4.4615,-4.4615,-4.4615,-4.4615,-4.4615,-4.4615,-4.4615,-4.4615,-4.4699,-4.4784,-4.4784,-4.4869,-4.4953,-4.4953,-4.4953,-4.4902,-4.4801,-4.4869,-4.4902,-4.4801,-4.4869,-4.4953,-4.4953,-4.4953,-4.519,-4.5805,-4.5872,-4.6126,-4.6735,-4.6904,-4.6701,-4.6092,-4.6515,-4.6786,-4.6786,-4.6904,-4.6972,-4.6972,-4.7073,-4.7141,-4.7141,-4.6988,-4.6592,-4.5935,-4.5665,-4.5081,-4.0096,-4.0096,-4.0096,-4.0096,-4.0096,-4.0096,0.0,0.0,0.0,0.0,0.0,0.0,0.0,-4.3961,-4.4479,0.0,0.0,-4.4649,0.0,0.0,-4.6836,-4.6955,0.0,-4.9001,-4.9001,-4.9001,-4.9001,-4.9001,-4.9001,-4.9001,-4.9001,-4.9001,-4.9001,-4.9001,-4.9001,-4.9001,-4.9001,-4.9001,-4.9001,-4.9001,-4.9001,-4.9001,-4.9001,-4.9001,-4.9001,-4.9001,0.0,-4.9001,-4.9001,-4.9001,-4.9001,-4.9001,-4.9001,-4.9001,-4.9001,-4.9001,-4.9001,-4.8815,-4.7564,-4.6583,-4.5737,-4.4886,-4.4615,-4.4615,-4.4615,-4.4615,-4.4615,-4.4615,-4.4615,-4.4615,-4.4615,-4.4615,-4.4615,-4.4615,-4.506,-4.5534,-4.5534,-4.6007,-4.6447,-4.6447,-4.6447,-4.6244,-4.5635,-4.6041,-4.6244,-4.5635,-4.6058,-4.6447,-4.6447,-4.6447,-4.6498,-4.6616,-4.6616,-4.6667,-4.6786,-4.7378,-4.7669,-4.7551,-4.709,-4.6786,-4.6786,-4.7411,-4.775,-4.775,-4.8342,-4.8663,-4.8663,-4.786,-4.7828,-4.8413,-4.6811,-4.5993,-4.0096,-4.0096,-4.0096,-4.0096,-4.0417,-4.0679,0.0,0.0,0.0,0.0,0.0,0.0,0.0,0.0,-4.4615,-4.4615,0.0,-4.4886,-4.5698,-4.6363,-4.709,0.0,0.0,-4.9001,-4.9001,-4.9001,-4.9001,-4.9001,-4.9001,-4.9001,-4.9001,-4.9001,-4.9001,-4.9001,-4.9001,-4.9001,-4.9001,-4.9001,-4.9001,-4.9001,-4.9001,-4.9001,-4.9001,-4.9001,-4.9001,-4.9001,0.0,-4.9001,-4.9001,-4.9001,-4.9001,-4.9001,-4.9001,-4.9001,-4.8951,-4.8562,-4.8156,-4.7665,-4.6583,-4.5974,-4.5585,-4.4852,-4.4615,-4.4615,-4.4615,-4.4874,-4.5179,-4.5179,-4.4891,-4.4699,-4.5077,-4.5179,-4.528,-4.5669,-4.6041,-4.6295,-4.6295,-4.6549,-4.6786,-4.6786,-4.6786,-4.6684,-4.6346,-4.6583,-4.6667,-4.6346,-4.6583,-4.6786,-4.6786,-4.6786,-4.6955,-4.7361,-4.7394,-4.7564,-4.7953,-4.8308,-4.8494,-4.8494,-4.8189,-4.7986,-4.7986,-4.8325,-4.8494,-4.8494,-4.8832,-4.9001,-4.9001,-4.8576,-4.8321,-4.8225,-4.734,-4.64,-4.0096,-4.0096,-4.0146,-4.0316,0.0,0.0,0.0,0.0,0.0,0.0,0.0,0.0,0.0,-4.4615,0.0,-4.4615,-4.4615,-4.5055,-4.6346,-4.6684,-4.7276,-4.8595,-4.89,-4.9001,-4.9001,-4.9001,-4.9001,-4.9001,-4.9001,-4.9001,-4.9001,-4.9001,-4.9001,-4.9001,-4.9001,-4.9001,-4.9001,-4.9001,-4.9001,-4.9001,-4.9001,-4.9001,-4.9001,-4.9001,-4.9001,-4.9001,-4.9001,-4.9001,-4.9001,-4.9001,-4.9001,-4.8984,-4.8815,-4.8646,-4.8426,-4.7868,-4.7192,-4.6464,-4.5906,-4.5602,-4.5382,-4.4976,-4.4869,-4.4902,-4.5072,-4.55,-4.5957,-4.5957,-4.5534,-4.5258,-4.5805,-4.5957,-4.6109,-4.6667,-4.6921,-4.7056,-4.7056,-4.7192,-4.731,-4.731,-4.731,-4.7259,-4.709,-4.7192,-4.7259,-4.7073,-4.7192,-4.731,-4.731,-4.731,-4.753,-4.8105,-4.8173,-4.8409,-4.8951,-4.9001,-4.9001,-4.9001,-4.9001,-4.9001,-4.9001,-4.9001,-4.9001,-4.9001,-4.9001,-4.9001,-4.9001,-4.8798,-4.8401,-4.7901,-4.7688,-4.6712,-4.0096,-4.0096,-4.0265,-4.095,-4.117,0.0,-4.1204,-4.2354,0.0,-4.3392,0.0,0.0,0.0,-4.4615,-4.4615,-4.4615,-4.4615,-4.4886,-4.5669,0.0,-4.709,-4.7902,-4.8595,-4.9001,-4.9001,-4.9001,-4.9001,-4.9001,-4.9001,-4.9001,-4.9001,-4.9001,-4.9001,-4.9001,-4.9001,-4.9001,-4.9001,-4.9001,-4.9001,-4.9001,-4.9001,-4.9001,-4.9001,-4.9001,-4.9001,-4.9001,-4.9001,-4.9001,-4.9001,-4.9001,-4.9001,-4.8934,-4.8257,-4.7564,-4.6938,-4.6887,-4.6413,-4.5771,-4.572,-4.5246,-4.4801,-4.5415,-4.5618,-4.5754,-4.643,-4.6667,-4.6718,-4.6718,-4.6667,-4.6633,-4.6701,-4.6718,-4.6718,-4.6786,-4.7327,-4.7804,-4.7804,-4.8376,-4.8849,-4.8849,-4.8849,-4.8629,-4.7953,-4.8392,-4.8612,-4.7906,-4.8409,-4.8849,-4.8849,-4.8849,-4.8866,-4.8917,-4.8934,-4.8951,-4.9001,-4.9001,-4.9001,-4.9001,-4.9001,-4.9001,-4.9001,-4.9001,-4.9001,-4.9001,-4.9001,-4.9001,-4.9001,-4.8129,-4.8112,-4.8892,-4.8015,-4.7054,-4.0096,-4.0096,-4.0282,-4.1018,-4.1542,0.0,0.0,-4.3386,-4.4147,-4.4147,-4.4395,0.0,0.0,0.0,-4.4615,-4.4615,-4.4615,-4.5038,-4.621,-4.6616,-4.7242,-4.8443,-4.8832,-4.9001,-4.9001,-4.9001,-4.9001,-4.9001,-4.9001,-4.9001,-4.9001,-4.9001,-4.9001,-4.9001,-4.9001,-4.9001,-4.9001,-4.9001,-4.9001,-4.9001,-4.9001,-4.9001,-4.9001,-4.9001,-4.9001,-4.9001,-4.9001,-4.9001,-4.8968,-4.8528,-4.8342,-4.8257,-4.7513,-4.6769,-4.6126,-4.6126,-4.5652,-4.501,-4.501,-4.5128,-4.5331,-4.5618,-4.6007,-4.643,-4.6718,-4.7124,-4.7496,-4.7496,-4.7817,-4.8054,-4.7614,-4.7496,-4.7614,-4.8054,-4.8376,-4.8595,-4.8595,-4.8798,-4.9001,-4.9001,-4.9001,-4.8917,-4.8646,-4.8832,-4.8917,-4.8646,-4.8832,-4.9001,-4.9001,-4.9001,-4.9001,-4.9001,-4.9001,-4.9001,-4.9001,-4.9001,-4.9001,-4.9001,-4.9001,-4.9001,-4.9001,-4.9001,-4.9001,-4.9001,-4.8433,-4.8112,-4.8129,-4.7205,-4.6918,-4.7239,-4.6884,-4.6224,-4.0096,-4.0282,-4.0612,-4.1356,0.0,0.0,-4.3623,-4.4198,-4.4615,-4.4615,-4.4615,-4.4615,-4.4615,0.0,0.0,0.0,-4.4615,-4.5122,-4.6583,-4.6786,-4.7344,-4.8832,-4.9001,-4.9001,-4.9001,-4.9001,-4.9001,-4.9001,-4.9001,-4.9001,-4.9001,-4.9001,-4.9001,-4.9001,-4.9001,-4.9001,-4.9001,-4.9001,-4.9001,-4.9001,-4.9001,-4.9001,-4.9001,-4.9001,-4.9001,-4.9001,-4.9001,-4.9001,-4.8951,-4.8193,-4.7618,-4.7175,-4.665,-4.5991,-4.5348,-4.5348,-4.5026,-4.4632,-4.4886,-4.528,-4.5788,-4.6244,-4.6752,-4.7192,-4.7411,-4.7851,-4.8257,-4.8257,-4.8612,-4.8883,-4.8392,-4.8257,-4.8392,-4.8883,-4.9001,-4.9001,-4.9001,-4.9001,-4.9001,-4.9001,-4.9001,-4.9001,-4.9001,-4.9001,-4.9001,-4.9001,-4.9001,-4.9001,-4.9001,-4.9001,-4.9001,-4.9001,-4.9001,-4.9001,-4.9001,-4.9001,-4.9001,-4.9001,-4.9001,-4.9001,-4.9001,-4.9001,-4.9001,-4.9001,-4.837,-4.8047,-4.8047,-4.6815,-4.6349,-4.6643,-4.6048,-4.5431,-4.0096,-4.0629,-4.139,0.0,0.0,0.0,-4.4429,-4.4615,-4.4615,-4.4615,-4.4615,-4.4615,-4.4615,-4.4615,0.0,-4.4615,-4.4615,-4.5122,-4.6566,-4.6786,-4.7327,-4.8815,-4.9001,-4.9001,-4.9001,-4.9001,-4.9001,-4.9001,-4.9001,-4.9001,-4.9001,-4.9001,-4.9001,-4.9001,-4.9001,-4.9001,-4.9001,-4.9001,-4.9001,-4.9001,-4.9001,-4.9001,-4.9001,-4.9001,-4.9001,-4.9001,-4.9001,-4.9001,-4.8934,-4.8176,-4.6993,-4.5703,-4.5703,-4.5229,-4.4615,-4.4615,-4.4615,-4.4716,-4.5449,-4.572,-4.5974,-4.7415,-4.7889,-4.8041,-4.8781,-4.9001,-4.9001,-4.9001,-4.9001,-4.9001,-4.9001,-4.9001,-4.9001,-4.9001,-4.9001,-4.9001,-4.9001,-4.9001,-4.9001,-4.9001,-4.9001,-4.9001,-4.9001,-4.9001,-4.9001,-4.9001,-4.9001,-4.9001,-4.9001,-4.9001,-4.9001,-4.9001,-4.9001,-4.9001,-4.9001,-4.9001,-4.9001,-4.9001,-4.9001,-4.9001,-4.9001,-4.9001,-4.9001,-4.9001,-4.9001,-4.9001,-4.897,-4.7088,-4.6662,-4.7523,-4.5685,-4.4774,-4.0096,-4.0629,0.0,-4.2117,0.0,0.0,0.0,-4.4615,0.0,0.0,-4.4615,-4.4615,-4.4615,-4.4615,0.0,-4.4615,-4.4615,-4.4925,-4.5889,-4.6464,-4.7141,-4.8122,-4.8697,-4.9001,-4.9001,-4.9001,-4.9001,-4.9001,-4.9001,-4.9001,-4.9001,-4.9001,-4.9001,-4.9001,-4.9001,-4.9001,-4.9001,-4.9001,-4.9001,-4.9001,-4.9001,-4.9001,-4.9001,-4.9001,-4.9001,-4.9001,-4.9001,-4.8714,-4.8139,-4.6887,-4.5788,-4.4925,-4.4925,-4.4801,-4.4615,-4.4615,-4.4925,-4.5399,-4.5618,-4.6397,-4.7314,-4.7753,-4.8257,-4.8714,-4.8934,-4.9001,-4.9001,-4.9001,-4.9001,-4.9001,-4.9001,-4.9001,-4.9001,-4.9001,-4.9001,-4.9001,-4.9001,-4.9001,-4.9001,-4.9001,-4.9001,-4.9001,-4.9001,-4.9001,-4.9001,-4.9001,-4.9001,-4.9001,-4.9001,-4.9001,-4.9001,-4.9001,-4.9001,-4.9001,-4.9001,-4.9001,-4.9001,-4.9001,-4.9001,-4.9001,-4.9001,-4.9001,-4.9001,-4.9001,-4.837,-4.8015,-4.8015,-4.6781,-4.6012,-4.5613,-4.5058,-4.4412,-4.0096,-4.0832,0.0,-4.2185,-4.3081,-4.3995,-4.4496,0.0,0.0,0.0,-4.4615,-4.4615,-4.4615,-4.4615,0.0,-4.4615,-4.4615,-4.4869,-4.5602,-4.6075,-4.6633,-4.7394,-4.8122,-4.8578,-4.8578,-4.8832,-4.9001,-4.9001,-4.9001,-4.9001,-4.9001,-4.9001,-4.9001,-4.9001,-4.9001,-4.9001,-4.9001,-4.9001,-4.9001,-4.9001,-4.9001,-4.9001,-4.9001,-4.9001,-4.9001,-4.8984,-4.8697,-4.8156,-4.7378,-4.6194,-4.5263,-4.4615,-4.4615,-4.4615,-4.4649,-4.4925,-4.5314,-4.5788,-4.638,-4.7175,-4.7939,-4.8227,-4.8646,-4.9001,-4.9001,-4.9001,-4.9001,-4.9001,-4.9001,-4.9001,-4.9001,-4.9001,-4.9001,-4.9001,-4.9001,-4.9001,-4.9001,-4.9001,-4.9001,-4.9001,-4.9001,-4.9001,-4.9001,-4.9001,-4.9001,-4.9001,-4.9001,-4.9001,-4.9001,-4.9001,-4.9001,-4.9001,-4.9001,-4.9001,-4.9001,-4.9001,-4.9001,-4.9001,-4.9001,-4.9001,-4.9001,-4.9001,-4.9001,-4.9001,-4.8433,-4.8161,-4.8144,-4.685,-4.5905,-4.5322,-4.4571,-4.3888,-3.9978,0.0,0.0,-4.2286,-4.3481,0.0,-4.4615,-4.4615,-4.4615,-4.4615,0.0,-4.4615,-4.4615,-4.4615,-4.4615,-4.4615,-4.4615,-4.4852,-4.5517,-4.5669,-4.5957,-4.6616,-4.7361,-4.7787,-4.7787,-4.8426,-4.8798,-4.8798,-4.8798,-4.8832,-4.89,-4.89,-4.8934,-4.9001,-4.9001,-4.9001,-4.9001,-4.9001,-4.9001,-4.9001,-4.9001,-4.9001,-4.9001,-4.9001,-4.9001,-4.8968,-4.8156,-4.7428,-4.6735,-4.5923,-4.5196,-4.4615,-4.4615,-4.4649,-4.4801,-4.5449,-4.5788,-4.6092,-4.7415,-4.7922,-4.8122,-4.8781,-4.9001,-4.9001,-4.9001,-4.9001,-4.9001,-4.9001,-4.9001,-4.9001,-4.9001,-4.9001,-4.9001,-4.9001,-4.9001,-4.9001,-4.9001,-4.9001,-4.9001,-4.9001,-4.9001,-4.9001,-4.9001,-4.9001,-4.9001,-4.9001,-4.9001,-4.9001,-4.9001,-4.9001,-4.9001,-4.9001,-4.9001,-4.9001,-4.9001,-4.9001,-4.9001,-4.9001,-4.9001,-4.9001,-4.9001,-4.9001,-4.9001,-4.9001,-4.894,-4.8861,-4.8861,-4.7054,-4.6154,-4.6032,-4.4266,-4.3409,-3.9166,-4.0709,0.0,0.0,-4.3481,-4.4615,-4.4615,-4.4615,-4.4615,-4.4615,-4.4615,-4.4615,-4.4615,-4.4615,-4.4615,-4.4615,-4.4615,-4.4666,-4.479,-4.5331,-4.5771,-4.5923,-4.6583,-4.7039,-4.7039,-4.7175,-4.7259,-4.7259,-4.7259,-4.753,-4.8122,-4.8125,-4.8409,-4.8984,-4.9001,-4.9001,-4.9001,-4.9001,-4.9001,-4.9001,-4.9001,-4.9001,-4.9001,-4.9001,-4.9001,-4.8934,-4.7614,-4.6938,-4.6684,-4.5365,-4.475,-4.4615,-4.4615,-4.4942,-4.5483,-4.5652,-4.6447,-4.7466,-4.777,-4.8261,-4.8798,-4.8951,-4.9001,-4.9001,-4.9001,-4.9001,-4.9001,-4.9001,-4.9001,-4.9001,-4.9001,-4.9001,-4.9001,-4.9001,-4.9001,-4.9001,-4.9001,-4.9001,-4.9001,-4.9001,-4.9001,-4.9001,-4.9001,-4.9001,-4.9001,-4.9001,-4.9001,-4.9001,-4.9001,-4.9001,-4.9001,-4.9001,-4.9001,-4.9001,-4.9001,-4.9001,-4.9001,-4.9001,-4.9001,-4.9001,-4.9001,-4.9001,-4.9001,-4.9001,-4.8289,-4.7901,-4.7901,-4.6747,-4.5834,-4.5079,-4.4646,-4.4066,-3.8358,0.0,0.0,-4.2494,0.0,-4.4615,-4.4615,-4.4615,-4.4615,-4.4615,-4.4615,-4.4615,-4.4615,-4.4615,-4.4615,-4.4615,-4.4615,-4.4615,-4.4615,-4.4925,-4.5162,-4.5162,-4.5821,-4.6261,-4.6261,-4.6583,-4.6786,-4.6786,-4.6786,-4.6972,-4.7361,-4.7378,-4.7547,-4.7936,-4.7953,-4.8122,-4.8477,-4.8477,-4.8663,-4.9001,-4.9001,-4.9001,-4.9001,-4.9001,-4.9001,-4.8934,-4.7817,-4.7344,-4.7242,-4.6109,-4.5664,-4.5664,-4.5664,-4.5872,-4.6261,-4.6633,-4.7229,-4.7939,-4.8308,-4.868,-4.9001,-4.9001,-4.9001,-4.9001,-4.9001,-4.9001,-4.9001,-4.9001,-4.9001,-4.9001,-4.9001,-4.9001,-4.9001,-4.9001,-4.9001,-4.9001,-4.9001,-4.9001,-4.9001,-4.9001,-4.9001,-4.9001,-4.9001,-4.9001,-4.9001,-4.9001,-4.9001,-4.9001,-4.9001,-4.9001,-4.9001,-4.9001,-4.9001,-4.9001,-4.9001,-4.9001,-4.9001,-4.9001,-4.8576,-4.8338,-4.8338,-4.8338,-4.8338,-4.8338,-4.7406,-4.6918,-4.6918,-4.5977,-4.5285,-4.4774,-4.4297,-4.381,-3.7748,0.0,-4.0603,-4.2777,-4.3844,0.0,-4.457,-4.4615,-4.4615,-4.4615,-4.4615,-4.4615,-4.4615,-4.4615,-4.4615,-4.4615,-4.4615,-4.4615,-4.4615,-4.4615,-4.4615,-4.4615,-4.5128,-4.5517,-4.5517,-4.6058,-4.6413,-4.6413,-4.6413,-4.6464,-4.6599,-4.6599,-4.6667,-4.6786,-4.6786,-4.709,-4.7686,-4.7733,-4.8088,-4.8815,-4.8951,-4.9001,-4.9001,-4.9001,-4.9001,-4.8968,-4.824,-4.7889,-4.7821,-4.7107,-4.6786,-4.6786,-4.6786,-4.687,-4.7056,-4.7652,-4.7973,-4.8189,-4.8798,-4.9001,-4.9001,-4.9001,-4.9001,-4.9001,-4.9001,-4.9001,-4.9001,-4.9001,-4.9001,-4.9001,-4.9001,-4.9001,-4.9001,-4.9001,-4.9001,-4.9001,-4.9001,-4.9001,-4.9001,-4.9001,-4.9001,-4.9001,-4.9001,-4.9001,-4.9001,-4.9001,-4.9001,-4.9001,-4.9001,-4.9001,-4.9001,-4.9001,-4.9001,-4.9001,-4.9001,-4.9001,-4.9001,-4.9001,-4.8112,-4.7655,-4.7836,-4.7523,-4.744,-4.7589,-4.6678,-4.6103,-4.5941,-4.5005,-4.4548,-4.451,-4.3708,-4.329,0.0,0.0,-4.1271,0.0,-4.3396,-4.3651,0.0,0.0,-4.4615,0.0,-4.4615,-4.4615,-4.4615,-4.4615,-4.4615,-4.4615,-4.4615,-4.4615,-4.4615,-4.4615,-4.4615,-4.4615,-4.4699,-4.475,-4.475,-4.4852,-4.4902,-4.4902,-4.4902,-4.5162,-4.5821,-4.5855,-4.6143,-4.6769,-4.6786,-4.6836,-4.6938,-4.6938,-4.7327,-4.8041,-4.8697,-4.9001,-4.9001,-4.9001,-4.9001,-4.8968,-4.824,-4.7889,-4.7821,-4.7107,-4.6786,-4.6786,-4.6786,-4.7192,-4.7784,-4.7855,-4.8308,-4.8883,-4.8968,-4.9001,-4.9001,-4.9001,-4.9001,-4.9001,-4.9001,-4.9001,-4.9001,-4.9001,-4.9001,-4.9001,-4.9001,-4.9001,-4.9001,-4.9001,-4.9001,-4.9001,-4.9001,-4.9001,-4.9001,-4.9001,-4.9001,-4.9001,-4.9001,-4.9001,-4.9001,-4.9001,-4.9001,-4.9001,-4.9001,-4.9001,-4.9001,-4.9001,-4.9001,-4.9001,-4.9001,-4.9001,-4.9001,-4.9001,-4.8112,-4.7966,-4.8798,-4.7239,-4.6781,-4.7589,-4.6678,-4.5798,-4.4983,-4.3989,-4.3512,-4.3488,-4.3369,-4.329,-3.7291,-3.8623,-4.0175,0.0,-4.2939,-4.3532,-4.4412,0.0,-4.4615,-4.4615,-4.4615,-4.4615,-4.4615,-4.4615,-4.4615,-4.4615,-4.4615,-4.4615,-4.4615,-4.4615,-4.4615,-4.4615,-4.4615,-4.4615,-4.4615,-4.4615,-4.4615,-4.4615,-4.4615,-4.475,-4.506,-4.5077,-4.5213,-4.5579,-4.5579,-4.5754,-4.6177,-4.6177,-4.6769,-4.7889,-4.824,-4.8612,-4.9001,-4.9001,-4.9001,-4.8984,-4.8663,-4.8528,-4.8494,-4.8173,-4.8037,-4.8037,-4.8037,-4.824,-4.8528,-4.8528,-4.8731,-4.9001,-4.9001,-4.9001,-4.9001,-4.9001,-4.9001,-4.9001,-4.9001,-4.9001,-4.9001,-4.9001,-4.9001,-4.9001,-4.9001,-4.9001,-4.9001,-4.9001,-4.9001,-4.9001,-4.9001,-4.9001,-4.9001,-4.9001,-4.9001,-4.9001,-4.9001,-4.9001,-4.9001,-4.9001,-4.9001,-4.9001,-4.9001,-4.9001,-4.9001,-4.9001,-4.9001,-4.9001,-4.9001,-4.9001,-4.9001,-4.9001,-4.8112,-4.7803,-4.8193,-4.7406,-4.6918,-4.6815,-4.5905,-4.5227,-4.4812,-4.3771,-4.329,-4.329,-4.329,-4.329,0.0,0.0,-3.9102,-4.0974,-4.2187,-4.3199,0.0,0.0,-4.4615,0.0,-4.4615,-4.4615,-4.4615,-4.4615,-4.4615,-4.4615,-4.4615,-4.4615,-4.4615,-4.4615,-4.4615,-4.4615,-4.4615,-4.4615,-4.4615,-4.4615,-4.4615,-4.4615,-4.4615,-4.4615,-4.4615,-4.4615,-4.4615,-4.4615,-4.4615,-4.484,-4.5415,-4.5618,-4.6363,-4.7631,-4.7804,-4.8308,-4.9001,-4.9001,-4.9001,-4.9001,-4.9001,-4.9001,-4.9001,-4.9001,-4.9001,-4.9001,-4.9001,-4.9001,-4.9001,-4.9001,-4.9001,-4.9001,-4.9001,-4.9001,-4.9001,-4.9001,-4.9001,-4.9001,-4.9001,-4.9001,-4.9001,-4.9001,-4.9001,-4.9001,-4.9001,-4.9001,-4.9001,-4.9001,-4.9001,-4.9001,-4.9001,-4.9001,-4.9001,-4.9001,-4.9001,-4.9001,-4.9001,-4.9001,-4.9001,-4.9001,-4.9001,-4.9001,-4.9001,-4.9001,-4.9001,-4.9001,-4.9001,-4.9001,-4.9001,-4.9001,-4.9001,-4.9001,-4.7917,-4.734,-4.7589,-4.7138,-4.6678,-4.6208,-4.5285,-4.4812,-4.4812,-4.3771,-4.329,-4.329,-4.329,-4.329,0.0,-3.756,0.0,-3.961,-4.0955,0.0,0.0,0.0,-4.4615,-4.4615,-4.4615,-4.4615,-4.4615,-4.4615,-4.4615,-4.4615,-4.4615,-4.4615,-4.4615,-4.4615,-4.4615,-4.4615,-4.4615,-4.4615,-4.4615,-4.4615,-4.4615,-4.4615,-4.4615,-4.4615,-4.4615,-4.4615,-4.4615,-4.4615,-4.4615,-4.4632,-4.4666,-4.5348,-4.6092,-4.6853,-4.7581,-4.8308,-4.9001,-4.9001,-4.9001,-4.9001,-4.9001,-4.9001,-4.9001,-4.9001,-4.9001,-4.9001,-4.9001,-4.9001,-4.9001,-4.9001,-4.9001,-4.9001,-4.9001,-4.9001,-4.9001,-4.9001,-4.9001,-4.9001,-4.9001,-4.9001,-4.9001,-4.9001,-4.9001,-4.9001,-4.9001,-4.9001,-4.9001,-4.9001,-4.9001,-4.9001,-4.9001,-4.9001,-4.9001,-4.9001,-4.9001,-4.9001,-4.9001,-4.9001,-4.9001,-4.9001,-4.9001,-4.9001,-4.9001,-4.9001,-4.9001,-4.9001,-4.9001,-4.9001,-4.9001,-4.9001,-4.9001,-4.9001,-4.7273,-4.6678,-4.7556,-4.5885,-4.5322,-4.6173,-4.5285,-4.4812,-4.4812,-4.3771,-4.329,-4.329,-4.329,-4.329,0.0,0.0,0.0,-3.938,-4.0859,-4.2221,-4.3108,-4.3532,-4.3902,-4.4485,-4.4167,-4.3948,-4.4514,-4.4615,-4.4615,-4.4615,-4.4615,-4.4615,-4.4615,-4.4615,-4.4615,-4.4615,-4.4615,-4.4615,-4.4615,-4.4615,-4.4615,-4.4615,-4.4615,-4.4615,-4.4615,-4.4615,-4.4615,-4.4615,-4.4615,-4.4615,-4.4615,-4.5331,-4.6075,-4.6802,-4.7564,-4.8308,-4.9001,-4.9001,-4.9001,-4.9001,-4.9001,-4.9001,-4.9001,-4.9001,-4.9001,-4.9001,-4.9001,-4.9001,-4.9001,-4.9001,-4.9001,-4.9001,-4.9001,-4.9001,-4.9001,-4.9001,-4.9001,-4.9001,-4.9001,-4.9001,-4.9001,-4.9001,-4.9001,-4.9001,-4.9001,-4.9001,-4.9001,-4.9001,-4.9001,-4.9001,-4.9001,-4.9001,-4.9001,-4.9001,-4.9001,-4.9001,-4.9001,-4.9001,-4.9001,-4.9001,-4.9001,-4.9001,-4.9001,-4.9001,-4.875,-4.8161,-4.8112,-4.7868,-4.7273,-4.7205,-4.7205,-4.7205,-4.6558,-4.6349,-4.6712,-4.6048,-4.5869,-4.6173,-4.5285,-4.4812,-4.4812,-4.3771,-4.329,-4.329,-4.329,-4.329,-3.6028,0.0,0.0,0.0,0.0,-4.1739,-4.23,-4.2645,-4.3108,-4.3977,-4.368,-4.3562,-4.444,-4.4615,-4.4615,-4.4615,-4.4615,-4.4615,-4.4615,-4.4615,-4.4615,-4.4615,-4.4615,-4.4615,-4.4615,-4.4615,-4.4615,-4.4615,-4.4615,0.0,-4.4615,-4.4615,-4.4615,-4.4615,-4.4615,-4.4615,-4.4615,-4.5331,-4.6075,-4.6802,-4.7564,-4.8308,-4.9001,-4.9001,-4.9001,-4.9001,-4.9001,-4.9001,-4.9001,-4.9001,-4.9001,-4.9001,-4.9001,-4.9001,-4.9001,-4.9001,-4.9001,-4.9001,-4.9001,-4.9001,-4.9001,-4.9001,-4.9001,-4.9001,-4.9001,-4.9001,-4.9001,-4.9001,-4.9001,-4.9001,-4.9001,-4.9001,-4.9001,-4.9001,-4.9001,-4.9001,-4.9001,-4.9001,-4.9001,-4.9001,-4.9001,-4.9001,-4.9001,-4.9001,-4.9001,-4.9001,-4.9001,-4.9001,-4.9001,-4.8719,-4.8289,-4.7655,-4.7306,-4.6884,-4.6244,-4.6208,-4.6208,-4.6208,-4.5905,-4.5726,-4.5726,-4.54,-4.5217,-4.5217,-4.4593,-4.4297,-4.4282,-4.363,-4.329,-4.329,-4.329,-4.329,0.0,0.0,0.0,0.0,0.0,0.0,-4.069,0.0,-4.2221,-4.3108,-4.3276,-4.3532,-4.444,-4.4615,-4.4615,-4.4615,-4.4615,-4.4615,-4.4615,-4.4615,-4.4615,-4.4615,-4.4615,-4.4615,-4.4615,-4.4615,-4.4615,-4.4615,-4.4615,-4.4615,-4.4615,-4.4615,-4.4615,-4.4615,-4.4615,-4.4615,-4.4632,-4.5348,-4.6109,-4.6836,-4.7581,-4.8325,-4.9001,-4.9001,-4.9001,-4.9001,-4.9001,-4.9001,-4.9001,-4.9001,-4.9001,-4.9001,-4.9001,-4.9001,-4.9001,-4.9001,-4.9001,-4.9001,-4.9001,-4.9001,-4.9001,-4.9001,-4.9001,-4.9001,-4.9001,-4.9001,-4.9001,-4.9001,-4.9001,-4.9001,-4.9001,-4.9001,-4.9001,-4.9001,-4.9001,-4.9001,-4.9001,-4.9001,-4.9001,-4.9001,-4.9001,-4.9001,-4.9001,-4.9001,-4.9001,-4.897,-4.897,-4.894,-4.8923,-4.8112,-4.7556,-4.7523,-4.6712,-4.6138,-4.6103,-4.6103,-4.6103,-4.6103,-4.5248,-4.4774,-4.4774,-4.381,-4.329,-4.329,-4.329,-4.329,-4.329,-4.329,-4.329,-4.329,-4.329,-4.329,-3.6881,0.0,0.0,0.0,0.0,0.0,0.0,0.0,-4.1478,-4.2986,-4.2816,-4.2816,-4.431,-4.4615,-4.4615,-4.4615,-4.4615,-4.4615,-4.4615,-4.4615,-4.4615,-4.4615,-4.4615,-4.4615,-4.4615,-4.4615,-4.4615,0.0,-4.4615,-4.4615,-4.4615,-4.4615,-4.4615,-4.4615,-4.4615,-4.4869,-4.5382,-4.6126,-4.687,-4.7614,-4.8342,-4.8798,-4.9001,-4.9001,-4.9001,-4.9001,-4.9001,-4.9001,-4.9001,-4.9001,-4.9001,-4.9001,-4.9001,-4.9001,-4.9001,-4.9001,-4.9001,-4.9001,-4.9001,-4.9001,-4.9001,-4.9001,-4.9001,-4.9001,-4.9001,-4.9001,-4.9001,-4.9001,-4.9001,-4.9001,-4.9001,-4.9001,-4.9001,-4.9001,-4.9001,-4.9001,-4.9001,-4.9001,-4.9001,-4.9001,-4.9001,-4.9001,-4.9001,-4.9001,-4.875,-4.808,-4.7982,-4.7737,-4.7054,-4.6747,-4.633,-4.5649,-4.5322,-4.4893,-4.4151,-4.4113,-4.4113,-4.4113,-4.3873,-4.3693,-4.3693,-4.3448,-4.329,-4.329,-4.329,-4.329,-4.329,-4.329,-4.329,-4.329,-4.329,-4.329,0.0,0.0,0.0,0.0,0.0,0.0,-4.015,-4.015,-4.0638,-4.2395,-4.2347,-4.2536,-4.4281,-4.4615,-4.4615,-4.4615,-4.4615,-4.4615,-4.4615,-4.4615,-4.4615,-4.4615,-4.4615,-4.4615,-4.4615,-4.4615,-4.4615,-4.4615,-4.4615,-4.4615,-4.4615,-4.4615,-4.4615,-4.4615,-4.4615,-4.4942,-4.5703,-4.643,-4.7175,-4.7889,-4.8663,-4.9001,-4.9001,-4.9001,-4.9001,-4.9001,-4.9001,-4.9001,-4.9001,-4.9001,-4.9001,-4.9001,-4.9001,-4.9001,-4.9001,-4.9001,-4.9001,-4.9001,-4.9001,-4.9001,-4.9001,-4.9001,-4.9001,-4.9001,-4.9001,-4.9001,-4.9001,-4.9001,-4.9001,-4.9001,-4.9001,-4.9001,-4.9001,-4.9001,-4.9001,-4.9001,-4.9001,-4.9001,-4.9001,-4.9001,-4.9001,-4.9001,-4.9001,-4.8688,-4.8225,-4.7688,-4.7273,-4.6815,-4.6279,-4.5869,-4.5395,-4.4849,-4.4434,-4.3927,-4.3369,-4.329,-4.329,-4.329,-4.329,-4.329,-4.329,-4.329,-4.329,-4.329,-4.329,-4.329,-4.329,-4.329,-4.329,-4.329,-4.329,-4.329,0.0,0.0,0.0,0.0,0.0,0.0,-3.9388,-3.9388,-3.9864,-4.1511,-4.1869,-4.2347,-4.4018,-4.4384,-4.4457,-4.4457,-4.4542,-4.4615,-4.4615,-4.4615,-4.4615,-4.4615,-4.4615,-4.4615,-4.4615,-4.4615,-4.4615,-4.4615,-4.4615,-4.4615,-4.4615,-4.4615,-4.4615,-4.4615,-4.4682,-4.506,-4.5821,-4.6549,-4.7293,-4.8024,-4.8697,-4.9001,-4.9001,-4.9001,-4.9001,-4.9001,-4.9001,-4.9001,-4.9001,-4.9001,-4.9001,-4.9001,-4.9001,-4.9001,-4.9001,-4.9001,-4.9001,-4.9001,-4.9001,-4.9001,-4.9001,-4.9001,-4.9001,-4.9001,-4.9001,-4.9001,-4.9001,-4.9001,-4.9001,-4.9001,-4.9001,-4.9001,-4.9001,-4.9001,-4.9001,-4.9001,-4.9001,-4.9001,-4.9001,-4.9001,-4.894,-4.8829,-4.8829,-4.808,-4.7423,-4.7306,-4.6574,-4.5996,-4.5889,-4.5138,-4.4624,-4.4624,-4.3849,-4.329,-4.329,-4.329,-4.329,-4.329,-4.329,-4.329,-4.329,-4.329,-4.329,-4.329,-4.329,-4.329,-4.329,-4.329,-4.329,-4.329,-4.329,-4.329,0.0,0.0,0.0,0.0,0.0,0.0,-3.9388,-3.9388,-3.9702,-4.0724,-4.0946,-4.1264,-4.2316,-4.3061,-4.3562,-4.3562,-4.4138,-4.4615,-4.4615,-4.4615,-4.4615,-4.4615,-4.4615,-4.4615,-4.4615,-4.4615,-4.4615,-4.4615,-4.4615,-4.4615,-4.4615,-4.4615,-4.4615,-4.4615,-4.5179,-4.5838,-4.6583,-4.7327,-4.8071,-4.8798,-4.8934,-4.9001,-4.9001,-4.9001,-4.9001,-4.9001,-4.9001,-4.9001,-4.9001,-4.9001,-4.9001,-4.9001,-4.9001,-4.9001,-4.9001,-4.9001,-4.9001,-4.9001,-4.9001,-4.9001,-4.9001,-4.9001,-4.9001,-4.9001,-4.9001,-4.9001,-4.9001,-4.9001,-4.9001,-4.9001,-4.9001,-4.9001,-4.9001,-4.9001,-4.9001,-4.9001,-4.9001,-4.9001,-4.9001,-4.9001,-4.8401,-4.7868,-4.7868,-4.7088,-4.6224,-4.5468,-4.519,-4.4796,-4.3974,-4.3693,-4.3591,-4.3591,-4.3409,-4.329,-4.329,-4.329,-4.329,-4.329,-4.329,-4.329,-4.329,-4.329,-4.329,-4.329,-4.329,-4.329,-4.329,-4.329,-4.329,-4.329,-4.329,-4.329,0.0,0.0,0.0,-3.9388,0.0,0.0,0.0,-3.9388,-3.9646,-4.0535,-4.069,-4.0979,-4.1836,-4.2363,-4.2785,-4.3246,-4.3651,-4.4093,-4.4542,-4.4615,-4.4615,-4.4615,-4.4615,-4.4615,-4.4615,-4.4615,-4.4615,-4.4615,-4.4615,-4.4615,-4.4615,-4.4615,-4.4615,-4.4615,-4.5314,-4.6058,-4.6786,-4.7547,-4.8291,-4.9001,-4.9001,-4.9001,-4.9001,-4.9001,-4.9001,-4.9001,-4.9001,-4.9001,-4.9001,-4.9001,-4.9001,-4.9001,-4.9001,-4.9001,-4.9001,-4.9001,-4.9001,-4.9001,-4.9001,-4.9001,-4.9001,-4.9001,-4.9001,-4.9001,-4.9001,-4.9001,-4.9001,-4.9001,-4.9001,-4.9001,-4.9001,-4.9001,-4.9001,-4.9001,-4.9001,-4.9001,-4.9001,-4.9001,-4.9001,-4.9001,-4.8257,-4.7589,-4.7589,-4.6815,-4.5869,-4.4946,-4.4373,-4.3888,-4.3369,-4.329,-4.329,-4.329,-4.329,-4.329,-4.329,-4.329,-4.329,-4.329,-4.329,-4.329,-4.329,-4.329,-4.329,-4.329,-4.329,-4.329,-4.329,-4.329,-4.329,-4.329,-4.329,-4.329,0.0,0.0,0.0,0.0,0.0,-3.9388,0.0,0.0,0.0,-4.0309,0.0,0.0,0.0,0.0,0.0,-4.2519,0.0,0.0,0.0,-4.4412,0.0,-4.4615,-4.4615,-4.4615,-4.4615,-4.4615,-4.4615,-4.4615,-4.4615,-4.4615,-4.4615,-4.4615,-4.4682,-4.4818,-4.5534,-4.6261,-4.7005,-4.775,-4.8426,-4.9001,-4.9001,-4.9001,-4.9001,-4.9001,-4.9001,-4.9001,-4.9001,-4.9001,-4.9001,-4.9001,-4.9001,-4.9001,-4.9001,-4.9001,-4.9001,-4.9001,-4.9001,-4.9001,-4.9001,-4.9001,-4.9001,-4.9001,-4.9001,-4.9001,-4.9001,-4.9001,-4.9001,-4.9001,-4.9001,-4.9001,-4.9001,-4.9001,-4.9001,-4.9001,-4.9001,-4.9001,-4.9001,-4.9001,-4.9001,-4.9001,-4.8257,-4.7556,-4.7373,-4.6539,-4.5597,-4.4662,-4.381,-4.329,-4.329,-4.329,-4.329,-4.329,-4.329,-4.329,-4.329,-4.329,-4.329,-4.329,-4.329,-4.329,-4.329,-4.329,-4.329,-4.329,-4.329,-4.329,-4.329,-4.329,-4.329,-4.329,-4.329,-4.329,0.0,0.0,0.0,0.0,-3.9388,0.0,-3.9388,0.0,-3.9424,-3.9553,0.0,0.0,0.0,0.0,0.0,0.0,0.0,0.0,-4.2618,-4.3752,-4.4615,-4.4615,-4.4615,-4.4615,-4.4615,-4.4615,-4.4615,-4.4615,-4.4615,-4.4615,-4.4615,-4.4615,-4.4919,-4.5551,-4.6295,-4.7022,-4.7753,-4.8528,-4.8917,-4.9001,-4.9001,-4.9001,-4.9001,-4.9001,-4.9001,-4.9001,-4.9001,-4.9001,-4.9001,-4.9001,-4.9001,-4.9001,-4.9001,-4.9001,-4.9001,-4.9001,-4.9001,-4.9001,-4.9001,-4.9001,-4.9001,-4.9001,-4.9001,-4.9001,-4.9001,-4.9001,-4.9001,-4.9001,-4.9001,-4.9001,-4.9001,-4.9001,-4.9001,-4.9001,-4.9001,-4.9001,-4.9001,-4.9001,-4.9001,-4.9001,-4.8257,-4.734,-4.6488,-4.5561,-4.4624,-4.363,-4.3369,-4.329,-4.329,-4.329,-4.329,-4.329,-4.329,-4.329,-4.329,-4.329,-4.329,-4.329,-4.329,-4.329,-4.329,-4.329,-4.329,-4.329,-4.329,-4.329,-4.329,-4.329,-4.329,-4.329,-4.329,-4.329,0.0,0.0,0.0,0.0,0.0,0.0,-3.9388,0.0,-3.9388,0.0,0.0,0.0,0.0,0.0,0.0,0.0,-4.1582,0.0,0.0,0.0,-4.4615,0.0,0.0,0.0,-4.4615,-4.4615,-4.4615,-4.4615,-4.4615,-4.4615,-4.4615,-4.4615,-4.4925,-4.5686,-4.6413,-4.7158,-4.7889,-4.8646,-4.9001,-4.9001,-4.9001,-4.9001,-4.9001,-4.9001,-4.9001,-4.9001,-4.9001,-4.9001,-4.9001,-4.9001,-4.9001,-4.9001,-4.9001,-4.9001,-4.9001,-4.9001,-4.9001,-4.9001,-4.9001,-4.9001,-4.9001,-4.9001,-4.9001,-4.9001,-4.9001,-4.9001,-4.9001,-4.9001,-4.9001,-4.9001,-4.9001,-4.9001,-4.9001,-4.9001,-4.9001,-4.9001,-4.9001,-4.9001,-4.8829,-4.8289,-4.7868,-4.7138,-4.5634,-4.5042,-4.445,-4.3448,-4.329,-4.329,-4.329,-4.329,-4.329,-4.329,-4.329,-4.329,-4.329,-4.329,-4.329,-4.329,-4.329,-4.329,-4.329,-4.329,-4.329,-4.329,-4.329,-4.329,-4.329,-4.329,-4.329,-4.329,-4.329,-4.329,-3.9694,0.0,0.0,0.0,0.0,0.0,0.0,0.0,0.0,0.0,0.0,0.0,0.0,0.0,0.0,0.0,0.0,-4.1885,0.0,-4.3577,0.0,0.0,0.0,0.0,0.0,-4.4615,-4.4615,-4.4615,-4.4615,-4.4615,-4.4615,-4.4615,-4.501,-4.5974,-4.6515,-4.7242,-4.8176,-4.8731,-4.9001,-4.9001,-4.9001,-4.9001,-4.9001,-4.9001,-4.9001,-4.9001,-4.9001,-4.9001,-4.9001,-4.9001,-4.9001,-4.9001,-4.9001,-4.9001,-4.9001,-4.9001,-4.9001,-4.9001,-4.9001,-4.9001,-4.9001,-4.9001,-4.9001,-4.9001,-4.9001,-4.9001,-4.9001,-4.9001,-4.9001,-4.9001,-4.9001,-4.9001,-4.9001,-4.9001,-4.9001,-4.9001,-4.9001,-4.9001,-4.8798,-4.8112,-4.7556,-4.6781,-4.5431,-4.4983,-4.445,-4.3448,-4.329,-4.329,-4.329,-4.329,-4.329,-4.329,-4.329,-4.329,-4.329,-4.329,-4.329,-4.329,-4.329,-4.329,-4.329,-4.329,-4.329,-4.329,-4.329,-4.329,-4.329,-4.329,-4.329,-4.329,-4.329,-4.329,0.0,0.0,0.0,-3.9388,0.0,0.0,0.0,0.0,-3.9388,0.0,0.0,0.0,0.0,0.0,0.0,0.0,0.0,0.0,0.0,0.0,0.0,0.0,0.0,0.0,0.0,-4.4615,-4.4615,-4.4615,-4.4615,-4.4615,-4.4615,-4.4615,-4.5275,-4.6718,-4.6786,-4.7496,-4.8951,-4.8984,-4.9001,-4.9001,-4.9001,-4.9001,-4.9001,-4.9001,-4.9001,-4.9001,-4.9001,-4.9001,-4.9001,-4.9001,-4.9001,-4.9001,-4.9001,-4.9001,-4.9001,-4.9001,-4.9001,-4.9001,-4.9001,-4.9001,-4.9001,-4.9001,-4.9001,-4.9001,-4.9001,-4.9001,-4.9001,-4.9001,-4.9001,-4.9001,-4.9001,-4.9001,-4.9001,-4.9001,-4.9001,-4.9001,-4.9001,-4.9001,-4.9001,-4.897,-4.7489,-4.6208,-4.6173,-4.5395,-4.445,-4.3448,-4.329,-4.329,-4.329,-4.329,-4.329,-4.329,-4.329,-4.329,-4.329,-4.329,-4.329,-4.329,-4.329,-4.329,-4.329,-4.329,-4.329,-4.329,-4.329,-4.329,-4.329,-4.329,-4.329,-4.329,-4.329,-4.329,0.0,0.0,-4.0606,-4.0172,0.0,0.0,0.0,0.0,0.0,0.0,0.0,0.0,0.0,0.0,0.0,0.0,0.0,0.0,0.0,0.0,0.0,0.0,0.0,0.0,0.0,0.0,-4.4615,-4.4615,-4.4615,-4.4615,-4.4615,-4.5043,-4.5771,-4.6752,-4.7276,-4.8003,-4.8984,-4.9001,-4.9001,-4.9001,-4.9001,-4.9001,-4.9001,-4.9001,-4.9001,-4.9001,-4.9001,-4.9001,-4.9001,-4.9001,-4.9001,-4.9001,-4.9001,-4.9001,-4.9001,-4.9001,-4.9001,-4.9001,-4.9001,-4.9001,-4.9001,-4.9001,-4.9001,-4.9001,-4.9001,-4.9001,-4.9001,-4.9001,-4.9001,-4.9001,-4.9001,-4.9001,-4.9001,-4.9001,-4.9001,-4.9001,-4.9001,-4.9001,-4.8829,-4.8193,-4.7054,-4.6012,-4.5395,-4.4457,-4.3708,-4.3369,-4.329,-4.329,-4.329,-4.329,-4.329,-4.329,-4.329,-4.329,-4.329,-4.329,-4.329,-4.329,-4.329,-4.329,-4.329,-4.329,-4.329,-4.329,-4.329,-4.329,-4.329,-4.329,-4.329,-4.329,-4.329,-4.329,-4.1767,-4.1602,0.0,-4.0846,-4.0756,0.0,-4.0217,0.0,-3.9768,0.0,0.0,0.0,0.0,0.0,0.0,0.0,0.0,0.0,0.0,-4.3213,0.0,0.0,0.0,0.0,0.0,-4.4615,-4.4615,-4.4615,-4.4615,-4.4615,0.0,-4.5297,-4.6041,-4.6769,-4.753,-4.8257,-4.9001,-4.9001,-4.9001,-4.9001,-4.9001,-4.9001,-4.9001,-4.9001,-4.9001,-4.9001,-4.9001,-4.9001,-4.9001,-4.9001,-4.9001,-4.9001,-4.9001,-4.9001,-4.9001,-4.9001,-4.9001,-4.9001,-4.9001,-4.9001,-4.9001,-4.9001,-4.9001,-4.9001,-4.9001,-4.9001,-4.8951,-4.8697,-4.8798,-4.8951,-4.868,-4.8798,-4.9001,-4.9001,-4.9001,-4.8909,-4.8576,-4.8513,-4.8225,-4.7273,-4.633,-4.5525,-4.4909,-4.3966,-4.329,-4.329,-4.329,-4.329,-4.329,-4.329,-4.329,-4.329,-4.329,-4.329,-4.329,-4.329,-4.329,-4.329,-4.329,-4.329,-4.329,-4.329,-4.329,-4.329,-4.329,-4.329,-4.329,-4.329,-4.329,-4.329,-4.329,-4.329]},{"header":{"parameterUnit":"m.s-1","parameterCategory":1,"la1":30.6,"la2":29.2853,"lo1":-89.7004,"lo2":-87.6739,"dy":0.0162,"dx":0.0183,"nx":112,"ny":82,"refTime":"2023-03-18T06:00:00:Z","depth":0,"parameterNumber":3,"parameterNumberName":"V-component_of_WINDS"},"data":[0.0,0.0,0.0,0.0,0.0,0.0,0.0,0.0,0.0,0.0,0.0,0.0,0.0,0.0,0.0,0.0,0.0,0.0,0.0,0.0,0.0,0.0,0.0,0.0,0.0,0.0,0.0,0.0,0.0,0.0,0.0,0.0,0.0,0.0,0.0,0.0,0.0,0.0,0.0,0.0,0.0,0.0,0.0,0.0,0.0,0.0,0.0,0.0,0.0,0.0,0.0,0.0,0.0,0.0,0.0,0.0,0.0,0.0,0.0,0.0,0.0,0.0,0.0,0.0,0.0,0.0,0.0,0.0,0.0,0.0,0.0,0.0,0.0,0.0,0.0,0.0,0.0,0.0,0.0,0.0,0.0,0.0,0.0,0.0,0.0,0.0,0.0,0.0,0.0,0.0,1.9798,1.9798,1.9798,1.9798,1.9798,1.9798,1.9798,1.9798,0.0,0.0,0.0,0.0,0.0,0.0,0.0,0.0,0.0,0.0,0.0,0.0,0.0,0.0,0.0,0.0,0.0,0.0,0.0,0.0,0.0,0.0,0.0,0.0,0.0,0.0,0.0,0.0,0.0,0.0,0.0,0.0,0.0,0.0,0.0,0.0,0.0,0.0,0.0,0.0,0.0,0.0,0.0,0.0,0.0,0.0,0.0,0.0,0.0,0.0,0.0,0.0,0.0,0.0,0.0,0.0,0.0,0.0,0.0,0.0,0.0,0.0,0.0,0.0,0.0,0.0,0.0,0.0,0.0,0.0,0.0,0.0,0.0,0.0,0.0,0.0,0.0,0.0,0.0,0.0,0.0,0.0,0.0,0.0,0.0,0.0,0.0,0.0,0.0,0.0,0.0,0.0,0.0,0.0,0.0,0.0,0.0,0.0,0.0,0.0,0.0,0.0,0.0,0.0,1.9798,1.9798,1.9798,1.9798,1.9798,1.9798,1.9798,1.9798,0.0,0.0,0.0,0.0,0.0,0.0,0.0,0.0,0.0,0.0,0.0,0.0,0.0,0.0,0.0,0.0,0.0,0.0,0.0,0.0,0.0,0.0,0.0,0.0,0.0,0.0,0.0,0.0,0.0,0.0,0.0,0.0,0.0,0.0,0.0,0.0,0.0,0.0,0.0,0.0,0.0,0.0,0.0,0.0,0.0,0.0,0.0,0.0,0.0,0.0,0.0,0.0,0.0,0.0,0.0,0.0,0.0,0.0,0.0,0.0,0.0,0.0,0.0,0.0,0.0,0.0,0.0,0.0,0.0,0.0,0.0,0.0,0.0,0.0,0.0,0.0,0.0,0.0,0.0,0.0,0.0,0.0,0.0,0.0,0.0,0.0,0.0,0.0,0.0,0.0,0.0,0.0,0.0,0.0,0.0,0.0,0.0,0.0,0.0,0.0,0.0,0.0,0.0,1.9798,1.9798,1.9798,1.9798,1.9798,1.9798,1.9798,1.9798,1.9798,1.9798,0.0,0.0,0.0,0.0,0.0,0.0,0.0,0.0,0.0,0.0,0.0,0.0,0.0,0.0,0.0,0.0,0.0,0.0,0.0,0.0,0.0,0.0,0.0,0.0,0.0,0.0,0.0,0.0,0.0,0.0,0.0,0.0,0.0,0.0,0.0,0.0,0.0,0.0,0.0,0.0,0.0,0.0,0.0,0.0,0.0,0.0,0.0,0.0,0.0,0.0,0.0,0.0,0.0,0.0,0.0,0.0,0.0,0.0,0.0,0.0,0.0,0.0,0.0,0.0,0.0,0.0,0.0,0.0,0.0,0.0,0.0,0.0,0.0,0.0,0.0,0.0,0.0,0.0,0.0,0.0,0.0,0.0,0.0,0.0,0.0,0.0,0.0,0.0,0.0,0.0,0.0,0.0,0.0,0.0,0.0,0.0,0.0,0.0,0.0,0.0,0.0,0.0,1.9798,1.9798,1.9798,1.9798,1.9798,1.9798,1.9798,1.9798,1.9798,1.9798,0.0,0.0,0.0,0.0,0.0,0.0,0.0,0.0,0.0,0.0,0.0,0.0,0.0,0.0,0.0,0.0,0.0,0.0,0.0,0.0,0.0,0.0,0.0,0.0,0.0,0.0,0.0,0.0,0.0,0.0,0.0,0.0,0.0,0.0,0.0,0.0,0.0,0.0,0.0,0.0,0.0,0.0,0.0,0.0,0.0,0.0,0.0,0.0,0.0,0.0,0.0,0.0,0.0,0.0,0.0,0.0,0.0,0.0,0.0,0.0,0.0,0.0,0.0,0.0,0.0,0.0,0.0,0.0,0.0,0.0,0.0,0.0,0.0,0.0,0.0,0.0,0.0,0.0,0.0,0.0,0.0,0.0,0.0,0.0,0.0,0.0,0.0,0.0,0.0,0.0,0.0,0.0,0.0,0.0,0.0,0.0,0.0,0.0,0.0,0.0,0.0,0.0,1.9798,1.9798,1.9798,1.9798,1.9798,1.9798,1.9798,1.9798,1.9798,1.9798,0.0,0.0,0.0,0.0,0.0,0.0,0.0,0.0,0.0,0.0,0.0,0.0,0.0,0.0,0.0,0.0,0.0,0.0,0.0,0.0,0.0,0.0,0.0,0.0,0.0,0.0,0.0,0.0,0.0,0.0,0.0,0.0,0.0,0.0,0.0,0.0,0.0,0.0,0.0,0.0,0.0,0.0,0.0,0.0,0.0,0.0,0.0,0.0,0.0,0.0,0.0,0.0,0.0,0.0,0.0,0.0,0.0,0.0,0.0,0.0,0.0,0.0,0.0,0.0,0.0,0.0,0.0,0.0,0.0,0.0,0.0,0.0,0.0,0.0,0.0,0.0,0.0,0.0,0.0,0.0,0.0,0.0,0.0,0.0,0.0,0.0,0.0,0.0,0.0,0.0,0.0,0.0,0.0,0.0,0.0,0.0,0.0,0.0,0.0,0.0,0.0,0.0,2.0853,2.0853,2.0853,2.0853,2.0853,2.0853,2.0566,2.0365,2.0365,0.0,0.0,0.0,0.0,0.0,0.0,0.0,0.0,0.0,0.0,0.0,0.0,0.0,0.0,0.0,0.0,0.0,0.0,0.0,0.0,0.0,0.0,0.0,0.0,0.0,0.0,0.0,0.0,0.0,0.0,0.0,0.0,0.0,0.0,0.0,0.0,0.0,0.0,0.0,0.0,0.0,0.0,0.0,0.0,0.0,0.0,0.0,0.0,0.0,0.0,0.0,0.0,0.0,0.0,0.0,0.0,0.0,0.0,0.0,0.0,0.0,0.0,0.0,0.0,0.0,0.0,0.0,0.0,0.0,0.0,0.0,0.0,0.0,0.0,0.0,0.0,0.0,0.0,0.0,0.0,0.0,0.0,0.0,0.0,0.0,0.0,0.0,0.0,0.0,0.0,0.0,0.0,0.0,0.0,0.0,0.0,0.0,0.0,0.0,0.0,0.0,0.0,2.1119,2.1341,2.1493,2.1493,2.1493,2.1493,2.1493,2.1169,2.0955,2.0955,0.0,0.0,0.0,0.0,0.0,0.0,0.0,0.0,0.0,0.0,0.0,0.0,0.0,0.0,0.0,0.0,0.0,0.0,0.0,0.0,0.0,0.0,0.0,0.0,0.0,0.0,0.0,0.0,0.0,0.0,0.0,0.0,0.0,0.0,0.0,0.0,0.0,0.0,0.0,0.0,0.0,0.0,0.0,0.0,0.0,0.0,0.0,0.0,0.0,0.0,0.0,0.0,0.0,0.0,0.0,0.0,0.0,0.0,0.0,0.0,0.0,0.0,0.0,0.0,0.0,0.0,0.0,0.0,0.0,0.0,0.0,0.0,0.0,0.0,0.0,0.0,0.0,0.0,0.0,0.0,0.0,0.0,0.0,0.0,0.0,0.0,0.0,0.0,0.0,0.0,0.0,0.0,0.0,0.0,0.0,0.0,0.0,0.0,0.0,0.0,0.0,0.0,2.0308,2.0974,2.1506,2.1506,2.1506,2.1506,2.1506,2.1506,2.1493,0.0,0.0,0.0,0.0,0.0,0.0,0.0,0.0,0.0,0.0,0.0,0.0,0.0,0.0,0.0,0.0,0.0,0.0,0.0,0.0,0.0,0.0,0.0,0.0,0.0,0.0,0.0,0.0,0.0,0.0,0.0,0.0,0.0,0.0,0.0,0.0,0.0,0.0,0.0,0.0,0.0,0.0,0.0,0.0,0.0,0.0,0.0,0.0,0.0,0.0,0.0,0.0,0.0,0.0,0.0,0.0,0.0,0.0,0.0,0.0,0.0,0.0,0.0,0.0,0.0,0.0,0.0,0.0,0.0,0.0,0.0,0.0,0.0,0.0,0.0,0.0,0.0,0.0,0.0,0.0,0.0,0.0,0.0,0.0,0.0,0.0,0.0,0.0,0.0,0.0,0.0,0.0,0.0,0.0,0.0,0.0,0.0,0.0,0.0,0.0,0.0,0.0,0.0,2.0529,2.1249,2.1789,2.1789,2.2281,2.2619,2.2619,2.2297,2.2071,2.2071,0.0,0.0,0.0,0.0,0.0,0.0,0.0,0.0,0.0,0.0,0.0,0.0,0.0,0.0,0.0,0.0,0.0,0.0,0.0,0.0,0.0,0.0,0.0,0.0,0.0,0.0,0.0,0.0,0.0,0.0,0.0,0.0,0.0,0.0,0.0,0.0,0.0,0.0,0.0,0.0,0.0,0.0,0.0,0.0,0.0,0.0,0.0,0.0,0.0,0.0,0.0,0.0,0.0,0.0,0.0,0.0,0.0,0.0,0.0,0.0,0.0,0.0,0.0,0.0,0.0,0.0,0.0,0.0,0.0,0.0,0.0,0.0,0.0,0.0,0.0,0.0,0.0,0.0,0.0,0.0,0.0,0.0,0.0,0.0,0.0,0.0,0.0,0.0,0.0,0.0,0.0,0.0,0.0,0.0,0.0,0.0,0.0,0.0,0.0,0.0,0.0,0.0,2.0139,2.0846,2.1396,2.1396,2.1803,2.2082,2.2082,2.211,2.2149,2.2149,0.0,0.0,0.0,0.0,0.0,0.0,0.0,0.0,0.0,0.0,0.0,0.0,0.0,0.0,0.0,0.0,0.0,0.0,0.0,0.0,0.0,0.0,0.0,0.0,0.0,0.0,0.0,0.0,0.0,0.0,0.0,0.0,0.0,0.0,0.0,0.0,0.0,0.0,0.0,0.0,0.0,0.0,0.0,0.0,0.0,0.0,0.0,0.0,0.0,0.0,0.0,0.0,0.0,0.0,0.0,0.0,0.0,0.0,0.0,0.0,0.0,0.0,0.0,0.0,0.0,0.0,0.0,0.0,0.0,0.0,0.0,0.0,0.0,0.0,0.0,0.0,0.0,0.0,0.0,0.0,0.0,0.0,0.0,0.0,0.0,0.0,0.0,0.0,0.0,0.0,0.0,0.0,0.0,0.0,0.0,0.0,0.0,0.0,0.0,0.0,0.0,0.0,1.9266,1.9987,2.0529,2.0529,2.0638,2.0714,2.0658,2.1466,2.1925,2.1908,0.0,0.0,0.0,0.0,0.0,0.0,0.0,0.0,0.0,0.0,0.0,0.0,0.0,0.0,0.0,0.0,0.0,0.0,0.0,0.0,0.0,0.0,0.0,0.0,0.0,0.0,0.0,0.0,0.0,0.0,0.0,0.0,0.0,0.0,0.0,0.0,0.0,0.0,0.0,0.0,0.0,0.0,0.0,0.0,0.0,0.0,0.0,0.0,0.0,0.0,0.0,0.0,0.0,0.0,0.0,0.0,0.0,0.0,0.0,0.0,1.7734,1.7734,0.0,0.0,0.0,0.0,0.0,0.0,0.0,0.0,0.0,0.0,0.0,0.0,0.0,0.0,0.0,0.0,0.0,0.0,0.0,0.0,0.0,0.0,0.0,0.0,0.0,0.0,0.0,0.0,0.0,0.0,0.0,0.0,0.0,0.0,0.0,0.0,0.0,0.0,0.0,0.0,1.8303,1.9321,2.006,2.006,2.1004,2.1475,2.1085,2.1881,2.2242,2.1913,2.2659,0.0,0.0,0.0,0.0,0.0,0.0,0.0,0.0,0.0,0.0,0.0,0.0,0.0,0.0,0.0,0.0,0.0,0.0,0.0,0.0,0.0,0.0,0.0,0.0,0.0,0.0,0.0,0.0,0.0,0.0,0.0,0.0,0.0,0.0,0.0,0.0,0.0,0.0,0.0,0.0,0.0,0.0,0.0,0.0,0.0,0.0,0.0,0.0,0.0,0.0,0.0,0.0,0.0,0.0,0.0,0.0,0.0,0.0,0.0,1.8193,1.8008,0.0,0.0,0.0,0.0,0.0,0.0,0.0,0.0,0.0,0.0,0.0,0.0,0.0,0.0,0.0,0.0,0.0,0.0,0.0,0.0,0.0,0.0,0.0,0.0,0.0,0.0,0.0,0.0,0.0,0.0,0.0,0.0,0.0,0.0,0.0,0.0,0.0,0.0,0.0,0.0,1.8623,1.9188,1.9591,1.9591,2.0255,2.0544,2.0303,2.1088,2.1386,2.0971,2.2107,0.0,0.0,0.0,0.0,0.0,0.0,0.0,0.0,0.0,0.0,0.0,0.0,0.0,0.0,0.0,0.0,0.0,0.0,0.0,0.0,0.0,0.0,0.0,0.0,0.0,0.0,0.0,0.0,0.0,0.0,0.0,0.0,0.0,0.0,0.0,0.0,0.0,0.0,0.0,0.0,0.0,0.0,0.0,0.0,0.0,0.0,0.0,0.0,0.0,0.0,0.0,0.0,0.0,1.9287,1.9287,1.9287,1.9287,1.9287,1.9248,1.8535,1.8232,1.8232,1.8232,0.0,0.0,0.0,0.0,0.0,0.0,0.0,0.0,0.0,0.0,0.0,0.0,0.0,0.0,0.0,0.0,0.0,0.0,0.0,0.0,0.0,0.0,0.0,0.0,1.8232,1.8232,1.8232,0.0,0.0,0.0,0.0,0.0,0.0,0.0,0.0,0.0,0.0,0.0,1.9287,1.9346,1.9394,1.9394,1.9463,1.9482,1.9404,2.0201,2.0519,2.0059,2.1509,2.2286,0.0,0.0,0.0,0.0,0.0,0.0,0.0,0.0,0.0,0.0,0.0,0.0,0.0,0.0,0.0,0.0,0.0,0.0,0.0,0.0,0.0,0.0,0.0,0.0,0.0,0.0,0.0,0.0,0.0,0.0,0.0,0.0,1.8008,1.8008,0.0,0.0,0.0,0.0,0.0,0.0,0.0,0.0,0.0,0.0,0.0,0.0,0.0,1.9199,1.9199,1.9258,1.9287,1.9287,1.9287,1.9287,1.9287,1.9287,1.9287,1.9277,1.917,0.0,1.9121,1.9121,0.0,0.0,0.0,0.0,0.0,0.0,0.0,0.0,0.0,0.0,0.0,0.0,0.0,0.0,0.0,0.0,0.0,0.0,0.0,0.0,0.0,0.0,1.9121,1.9121,1.9121,1.9121,0.0,1.8535,1.8081,1.8451,1.852,0.0,0.0,0.0,0.0,0.0,0.0,0.0,1.9287,1.9609,1.9824,1.9824,2.0176,2.0244,1.9863,2.0612,2.0953,2.054,2.1441,2.2104,2.2394,2.2531,0.0,0.0,0.0,0.0,0.0,0.0,0.0,0.0,0.0,0.0,0.0,0.0,0.0,0.0,0.0,0.0,0.0,0.0,0.0,0.0,0.0,0.0,0.0,0.0,0.0,0.0,0.0,0.0,0.0,1.8325,1.8457,1.8701,1.873,1.873,0.0,0.0,0.0,0.0,0.0,0.0,0.0,0.0,0.0,1.9287,1.9512,1.9639,1.9639,1.9883,2.0048,2.0048,2.0048,2.0048,2.0048,2.0048,2.0048,2.0048,2.0048,2.0048,2.0008,1.9482,1.9287,1.9287,0.0,0.0,0.0,0.0,1.9287,1.9287,1.9287,1.9287,1.9287,1.9287,0.0,0.0,0.0,0.0,0.0,0.0,0.0,0.0,0.0,0.0,1.9287,1.9287,1.9287,1.9287,1.9287,1.8994,1.8779,0.0,1.9004,1.9062,1.9248,0.0,0.0,0.0,0.0,2.0048,2.0048,2.0166,2.0283,2.0283,2.0488,2.0527,2.0303,2.0645,2.0672,2.0229,2.1015,2.1469,2.1438,2.2393,2.2893,0.0,0.0,0.0,0.0,0.0,0.0,0.0,0.0,0.0,0.0,0.0,0.0,0.0,0.0,0.0,0.0,0.0,0.0,0.0,0.0,0.0,0.0,0.0,0.0,0.0,0.0,0.0,0.0,1.8763,1.8926,1.9248,1.9287,1.9287,0.0,0.0,0.0,0.0,0.0,0.0,1.9609,1.9609,1.9609,1.9609,1.9922,2.0078,2.0078,2.0449,2.0605,2.0605,2.0605,2.0605,2.0605,2.0323,2.0323,2.0566,2.0323,2.0362,2.0556,1.992,1.9609,1.9609,1.9609,1.9609,1.9609,1.9609,1.9609,1.9609,1.9609,1.9609,1.9609,1.9609,1.9609,1.9609,1.9609,0.0,0.0,0.0,0.0,1.9609,1.9609,1.9609,1.9609,1.9609,1.9609,1.9609,1.9609,1.9609,1.958,0.0,1.9443,1.9482,1.959,0.0,0.0,0.0,0.0,2.0605,2.0605,2.0605,2.0605,2.0605,2.0605,2.0605,2.0605,2.0605,2.0468,2.0098,2.0699,2.0958,2.0755,2.2053,2.2615,2.235,0.0,0.0,0.0,0.0,0.0,0.0,0.0,0.0,0.0,0.0,0.0,0.0,0.0,0.0,0.0,0.0,0.0,0.0,0.0,0.0,0.0,0.0,0.0,0.0,0.0,0.0,0.0,0.0,0.0,1.9287,1.9287,0.0,0.0,0.0,0.0,1.9883,2.0264,2.0537,2.0537,2.0537,2.0537,2.0537,2.0556,2.0566,2.0566,2.0595,2.0605,2.0605,2.0605,2.0605,2.0566,1.9559,1.9638,2.0527,1.952,1.9638,2.0595,2.0556,2.0537,2.0537,2.0537,2.0537,2.0537,2.0537,2.0537,2.0537,2.0537,2.0537,2.0537,2.0537,2.0537,2.0537,2.0537,2.0537,0.0,0.0,2.0537,2.0537,2.0537,2.0537,2.0537,2.0537,2.0537,2.0537,2.0537,2.0537,2.0419,0.0,1.9883,2.0019,2.0468,0.0,2.0566,2.0566,2.0586,2.0605,2.0605,2.0605,2.0605,2.0605,2.0605,2.0605,2.0605,2.0605,2.0595,2.0576,2.0615,2.0771,2.1152,2.1277,2.1514,2.1921,2.2862,0.0,0.0,0.0,0.0,0.0,0.0,0.0,0.0,0.0,0.0,0.0,0.0,0.0,0.0,0.0,0.0,0.0,0.0,0.0,0.0,0.0,0.0,0.0,0.0,0.0,0.0,0.0,0.0,2.0116,2.0155,0.0,2.0155,2.0282,2.0332,2.0332,2.0517,2.0605,2.0605,2.084,2.0996,2.0996,2.1269,2.1456,2.1456,2.1456,2.1456,2.1456,2.1456,2.1456,2.1416,2.1041,2.1082,2.1416,2.1032,2.1082,2.1456,2.1456,2.1124,2.0605,2.0605,2.0605,2.0605,2.0605,2.0605,2.0605,2.0605,2.0605,2.0605,2.0605,2.0605,2.0605,2.0605,2.0605,2.0605,2.0605,2.0605,2.0605,2.0605,2.0605,2.0605,2.0605,2.0605,2.0605,2.0605,2.0605,2.0556,2.0361,2.0332,2.0381,2.0576,2.0605,2.0605,2.0605,2.0605,2.0605,2.0605,2.0605,2.0605,2.0605,2.0605,2.0605,2.0605,2.0605,2.0605,2.0605,2.0605,2.0643,2.0819,2.1384,2.1639,2.1464,2.3052,2.37,0.0,0.0,0.0,0.0,0.0,0.0,0.0,0.0,0.0,0.0,0.0,0.0,0.0,0.0,0.0,0.0,0.0,0.0,0.0,0.0,0.0,0.0,0.0,0.0,0.0,2.0137,2.0244,2.0566,2.0605,2.0605,2.0605,2.0703,2.0791,2.0791,2.0967,2.1055,2.1055,2.1289,2.1455,2.1455,2.1738,2.1885,2.1885,2.1885,2.1885,2.1885,2.1885,2.1885,2.1885,2.1483,2.1534,2.1885,2.1483,2.1534,2.1885,2.1885,2.1543,2.1036,2.085,2.0742,2.0605,2.0605,2.0605,2.0605,2.0605,2.0605,2.0605,2.0605,2.0605,2.0605,2.0605,2.0605,2.0605,2.0605,2.0605,2.0605,2.0605,2.0605,2.0605,2.0605,2.0605,2.0605,2.0605,2.0605,2.0605,2.0605,2.0605,2.0605,2.0605,2.0605,2.0605,2.0605,2.0605,2.0605,2.0605,2.0605,2.0605,2.0605,2.0605,2.0605,2.0605,2.0605,2.0605,2.0605,2.0605,2.0605,2.0605,2.1193,2.1346,2.1002,2.2961,2.3827,2.3617,0.0,0.0,0.0,0.0,0.0,0.0,0.0,0.0,0.0,0.0,0.0,0.0,0.0,0.0,0.0,0.0,0.0,0.0,0.0,0.0,0.0,0.0,0.0,2.0605,2.0605,2.0605,2.0625,2.0625,2.0635,2.0644,2.0996,2.121,2.121,2.165,2.1885,2.1885,2.1894,2.1904,2.1904,2.1924,2.1924,2.1924,2.1882,2.1882,2.1882,2.1882,2.1882,2.1841,2.0773,2.0899,2.1882,2.0773,2.0899,2.1924,2.1924,2.1924,2.1865,2.1385,2.0986,2.0644,2.0644,2.0644,2.0644,2.0644,2.0644,2.0644,2.0644,2.0644,2.0644,2.0625,2.0625,2.0625,2.0605,2.0605,2.0605,2.0605,2.0605,2.0605,2.0605,2.0605,2.0605,2.0605,2.0605,2.0605,2.0605,2.0605,2.0605,2.0605,2.0605,2.0605,2.0605,2.0605,0.0,2.0605,2.0605,2.0605,2.0605,2.0605,2.0605,2.0605,2.0605,2.0605,2.0605,2.0605,2.0605,2.0605,2.0605,2.0605,2.0644,2.2489,2.3688,2.4186,0.0,0.0,0.0,0.0,0.0,0.0,0.0,0.0,0.0,0.0,0.0,0.0,0.0,0.0,0.0,0.0,0.0,0.0,0.0,0.0,0.0,0.0,2.0605,2.0605,2.0605,2.0723,2.1016,2.1055,2.1172,2.1494,2.1631,2.1709,2.1709,2.1816,2.1885,2.1885,2.2178,2.2344,2.2344,2.2637,2.275,2.275,2.1879,2.1477,2.1477,2.1477,2.1477,2.1477,2.2063,2.2472,2.275,2.2428,2.2472,2.275,2.275,2.2617,2.2295,2.1875,2.1631,2.1523,2.1523,2.1523,2.1523,2.1523,2.1523,2.1523,2.1523,2.1523,2.1465,2.1143,2.1055,2.0986,2.0693,2.0605,2.0605,2.0605,2.0605,2.0605,2.0605,2.0605,2.0605,2.0605,2.0605,2.0605,2.0605,2.0605,2.0605,2.0605,2.0605,2.0605,2.0605,2.0605,0.0,2.0605,2.0605,2.0605,2.0605,2.0605,2.0605,2.0605,2.0605,2.0605,2.0605,2.0605,2.0605,2.0605,2.0605,2.0934,2.1593,2.214,2.2822,0.0,0.0,0.0,0.0,0.0,0.0,0.0,0.0,0.0,0.0,0.0,0.0,0.0,0.0,0.0,0.0,0.0,0.0,0.0,0.0,0.0,0.0,2.084,2.0908,2.1134,2.0967,2.1006,2.1455,2.1504,2.1611,2.1865,2.2041,2.2148,2.2148,2.248,2.2685,2.2685,2.3086,2.331,2.331,2.2999,2.2798,2.2798,2.1569,2.0908,2.0908,2.0908,2.0908,2.0954,2.1661,2.2281,2.2798,2.2798,2.3028,2.3408,2.3408,2.3164,0.0,0.0,0.0,0.0,0.0,2.1885,2.1885,2.1885,2.1885,2.1885,2.1885,2.1885,2.1836,2.1582,2.1504,2.1455,2.1191,2.1153,2.1153,2.1153,2.1153,2.1153,2.1153,2.1153,2.1153,2.1153,2.1153,2.1153,2.1153,2.1153,0.0,2.1153,2.085,2.0605,2.0605,2.0605,2.0605,2.0605,2.0605,2.0605,2.0605,2.0605,2.0605,2.0605,2.0605,0.0,0.0,0.0,2.0605,2.0605,2.0605,0.0,0.0,0.0,2.2478,2.3514,0.0,0.0,0.0,2.4884,2.4884,0.0,0.0,0.0,0.0,0.0,0.0,0.0,0.0,0.0,0.0,0.0,0.0,0.0,0.0,0.0,0.0,2.1268,2.1455,2.1894,2.166,2.1572,2.1914,2.1953,2.1992,2.209,2.2441,2.2676,2.2725,2.3428,2.3857,2.3857,0.0,0.0,0.0,0.0,2.2604,2.2604,2.1297,2.0674,2.0674,2.0674,2.0674,2.0666,2.077,2.1488,2.2604,2.2604,2.3121,2.3857,2.3857,2.3633,2.3198,2.2764,2.2353,2.2031,2.2031,2.2031,2.2031,2.2031,0.0,0.0,2.2031,2.2031,2.2021,2.1973,2.1953,2.1953,2.1894,2.1885,2.1885,2.1885,2.1885,2.1885,2.1885,2.1885,2.1885,2.1885,2.1885,2.1885,2.1885,2.1885,2.1885,2.1885,2.128,2.0752,2.0752,2.0752,2.0752,2.0752,2.0752,2.0752,2.0752,0.0,0.0,2.0683,2.0683,2.0664,2.0605,2.0605,2.0605,2.0605,2.0605,2.0605,2.0605,2.1413,2.2291,2.3184,2.3184,2.3635,2.4528,2.4743,2.4826,0.0,0.0,0.0,0.0,0.0,0.0,0.0,0.0,0.0,0.0,0.0,0.0,0.0,0.0,0.0,2.1689,2.1758,2.1904,2.2334,2.2627,2.2695,2.2422,2.2393,2.2656,2.3359,2.3496,2.3682,2.4023,2.4199,2.4297,2.4297,2.4375,2.4414,2.4414,2.4137,2.4034,2.4034,2.2793,2.217,2.217,0.0,0.0,2.2218,2.3168,2.3793,2.4034,2.4034,2.4135,2.4297,2.4297,2.4248,2.4092,2.3276,2.2925,2.2847,2.2847,2.2847,2.2847,2.2847,2.2847,2.2847,2.2847,2.2847,2.2789,2.249,2.2393,0.0,2.1982,2.1885,2.1885,2.1885,2.1885,2.1885,2.1885,2.1885,2.1885,2.1885,2.1885,2.1885,2.1885,2.1885,2.1885,2.1885,2.1738,2.1631,2.1631,2.1631,2.1631,2.1631,2.1631,2.1631,2.1631,2.1631,2.1484,2.1133,2.1064,2.0947,2.0625,2.0605,2.0605,2.0605,2.0605,2.0605,2.0605,2.0789,2.0972,2.1155,2.1155,2.127,2.1489,2.3047,2.3781,0.0,0.0,0.0,0.0,0.0,0.0,0.0,0.0,0.0,0.0,0.0,2.1035,0.0,0.0,2.1699,2.2129,2.2197,2.2422,2.3066,2.334,2.3398,2.3174,2.334,2.3633,2.4062,2.4102,2.4189,2.4394,2.4619,2.4746,2.4746,2.4951,2.5031,2.5031,2.4374,2.403,2.403,2.2797,2.2155,2.2155,2.2155,2.2155,2.2155,2.2788,2.3425,2.403,2.403,2.4307,2.4727,2.4502,2.4414,2.4375,2.39,2.3734,2.3715,2.35,2.3467,2.3437,2.3169,2.3091,2.3091,2.3091,2.3091,2.3052,2.2847,2.2779,2.2783,2.2568,2.251,2.251,2.251,2.251,2.251,2.251,2.251,2.251,2.251,2.251,2.251,2.251,2.251,2.251,2.251,2.251,2.2373,2.1953,2.1885,2.1885,2.1885,2.1885,2.1885,2.1885,2.1885,2.1797,2.1582,2.1562,2.1465,2.124,2.1016,2.0898,2.0898,2.0723,2.0605,2.0605,2.0605,2.0818,2.1298,2.0828,2.0828,2.1298,2.1821,2.2301,0.0,0.0,0.0,0.0,0.0,0.0,0.0,0.0,2.0928,2.1289,2.1317,2.1494,2.1924,2.2012,2.2168,2.2676,2.2764,2.3027,2.3809,2.3984,2.4043,2.4043,2.4268,2.4453,2.4531,2.4541,2.458,2.4668,2.5,2.5195,2.5195,2.5537,2.5693,2.5693,2.4658,2.4097,2.4097,2.2767,2.2206,2.2458,2.2206,2.2206,2.2466,2.2466,2.3076,2.4097,2.4097,2.451,2.5176,2.4814,2.4631,2.4631,2.4631,2.4631,2.4609,2.4102,2.3906,2.3857,2.3461,2.3344,2.3344,2.3344,2.3286,2.3218,2.3218,2.3159,2.3091,2.3091,2.3091,2.3091,2.3091,2.3091,2.3091,2.3091,2.3091,2.3091,2.3091,2.3091,2.3091,2.3091,2.3091,2.3091,2.3091,2.3091,2.2867,2.2236,2.2129,2.2129,2.2129,2.2129,2.2129,2.2129,2.2129,2.21,2.2012,2.1934,2.1885,2.1885,2.1553,2.1317,2.1317,2.1016,2.086,2.086,2.086,2.1192,2.1842,2.1102,2.1062,2.1697,2.1155,2.1193,2.0605,2.0605,2.0605,2.0605,2.0869,2.1122,0.0,0.0,2.1758,2.1807,2.1816,2.1943,2.2363,2.2441,2.2705,2.3516,2.3643,2.3809,2.4277,2.4678,2.4969,2.4969,2.4629,2.457,2.4998,2.5047,2.5156,2.5508,2.5586,2.5615,2.5615,2.5664,2.5693,2.5693,2.5538,2.5479,2.5479,2.4146,2.4048,2.5226,2.4048,2.4097,2.5274,2.5274,2.5323,2.5479,2.5479,2.5557,2.5615,2.5567,2.5538,2.5538,2.5538,2.5538,2.544,2.4648,2.4346,2.4346,2.4287,2.4268,2.4268,2.4268,2.4023,2.3721,2.3721,2.3447,2.3091,2.3091,2.3091,2.3091,2.3091,2.3091,2.3091,2.3091,2.3091,2.3091,2.3091,2.3091,2.3091,2.3091,2.3091,2.3091,2.3091,2.3091,2.3062,2.2974,2.2955,2.2955,2.2955,2.2955,2.2955,2.2955,2.2955,2.2808,2.2471,2.21,2.1885,2.1885,2.1836,2.1816,2.1816,2.1768,2.1738,2.1738,2.1738,2.1584,2.1312,2.1192,2.0987,2.0789,2.1517,2.1441,2.0889,2.1143,2.1378,2.1378,2.1475,2.1611,2.1611,2.1758,2.1953,2.2197,2.2246,2.2383,2.2803,2.3086,2.3369,0.0,2.3994,2.4307,2.4736,2.4998,2.5213,2.543,2.5303,2.5206,2.5439,2.5459,2.5537,2.5674,2.5693,2.5693,2.5693,2.5693,2.5693,2.5693,2.5693,2.5693,2.5693,2.5118,2.5177,2.5684,2.5128,2.5177,2.5693,2.5693,2.5693,2.5693,2.5693,2.5693,2.5693,2.5693,2.5693,2.5693,2.5693,2.5693,2.5615,2.5029,2.4795,2.4756,2.4502,2.4414,2.4414,2.4414,2.4297,2.415,2.415,2.4023,2.3842,2.3842,2.3842,2.3842,2.3842,2.3842,2.3842,2.3842,2.3842,2.3842,2.3842,2.3842,2.3809,2.3564,2.3516,2.3437,2.314,2.3091,2.3091,2.3091,2.3091,2.3091,2.3091,2.3091,2.3091,2.3091,2.3091,2.3023,2.2847,2.2715,2.2617,2.2617,2.2383,2.2246,2.2246,2.2012,2.1885,2.1885,2.1885,2.1797,2.1611,2.1611,2.1514,2.1378,2.175,2.171,2.1328,2.1641,2.1885,2.1885,2.1973,2.206,2.206,2.2148,2.2314,2.2627,2.2783,2.2959,2.3262,2.3672,2.4004,2.4121,2.4394,2.4746,2.5185,2.5254,2.5371,2.5654,2.5693,2.5693,2.5693,2.5693,2.5693,2.5693,2.5693,2.5693,2.5693,2.5693,2.5693,2.5693,2.5693,2.5693,2.5693,2.5333,2.5323,2.5693,2.5333,2.5323,2.5693,2.5693,2.5693,2.5693,2.5693,2.5693,2.5693,2.5693,2.5693,2.5693,2.5693,2.5693,2.5645,2.5371,2.5254,2.5205,2.4893,2.4775,2.4775,2.4775,2.4697,2.459,2.459,2.4512,2.4414,2.4414,2.4414,2.4414,2.4414,2.4414,2.4414,2.4414,2.4414,2.4414,2.4414,2.4414,2.4326,2.4023,2.3965,2.3857,2.35,2.3452,2.3452,2.3452,2.3452,2.3364,2.312,2.3091,2.3091,2.3091,2.3091,2.3091,2.3091,2.3091,2.3091,2.3091,2.2808,2.2685,2.2685,2.2393,2.2236,2.2236,2.2236,2.2178,2.206,2.206,2.2002,2.1885,2.1885,2.1885,0.0,0.0,2.1885,2.1885,2.2197,2.249,2.249,2.2769,2.3062,2.3071,2.3457,2.375,2.3769,2.4111,2.4531,2.5008,2.5086,2.5205,2.5606,2.5664,2.5674,2.5693,2.5693,2.5693,0.0,2.5693,2.5693,2.5693,2.5693,2.5693,2.5693,2.5693,2.5693,2.5693,2.5693,2.5693,2.5693,2.4402,2.4402,2.5684,2.4402,2.4461,2.5693,2.5693,2.5693,2.5693,2.5693,2.5693,2.5693,2.5693,2.5693,2.5693,2.5693,2.5693,2.5693,2.5674,2.5664,2.5664,2.5654,2.5645,2.5645,2.5645,2.54,2.5096,2.5096,2.4756,2.4414,2.4414,2.4414,2.4414,2.4414,2.4414,2.4414,2.4414,2.4414,2.4414,2.4414,2.4414,2.4414,2.4394,2.4394,2.4394,2.4385,2.4375,2.4375,2.4375,2.4375,2.4082,2.3198,2.3091,2.3091,2.3091,2.3091,2.3091,2.3091,2.3091,2.3091,2.3091,2.3081,2.3081,2.3081,2.3062,2.3052,2.3052,2.3052,2.2857,2.249,2.249,2.2285,2.1885,2.1885,2.1885,0.0,0.0,2.2715,2.2715,2.2779,2.2886,2.2886,2.3262,2.3574,2.3574,2.3906,2.4209,2.4209,2.456,2.4893,2.5086,2.5322,2.5566,2.5664,2.5693,2.5693,2.5693,2.5693,0.0,0.0,0.0,0.0,2.5693,2.5693,2.5693,2.5693,2.5693,2.5693,2.5693,2.5693,2.5693,2.5693,2.5274,2.5274,2.5684,2.5226,2.5274,2.5693,2.5693,2.5693,2.5693,2.5693,2.5693,2.5693,2.5693,2.5693,2.5693,2.5693,2.5693,2.5693,2.5693,2.5693,2.5693,2.5693,2.5693,2.5693,2.5693,2.5586,2.5518,2.5518,2.541,2.5245,2.5245,2.5245,2.5245,2.5245,2.5245,2.5245,2.5245,2.5245,2.5245,2.5245,2.5245,2.5157,2.4902,2.4844,2.4756,2.4463,2.4414,2.4414,2.4414,2.418,2.3896,2.3603,2.3276,2.3091,2.3091,2.3091,2.3091,2.3091,2.3091,2.3091,2.3091,2.3091,2.3091,2.3091,2.3091,2.3091,2.3091,2.3091,2.3023,2.2886,2.2886,2.2808,2.2715,2.2715,2.2715,0.0,2.2886,2.313,2.3286,2.3369,2.3408,2.352,2.3809,2.4014,2.4014,2.4355,2.4648,2.4648,2.501,2.5303,2.5303,2.5547,2.5693,2.5693,2.5693,2.5693,2.5693,2.5693,2.5693,0.0,0.0,0.0,2.5967,2.5967,2.5986,2.6132,2.6142,2.6142,2.6142,2.6142,2.6142,2.6142,2.6142,2.6142,2.6142,2.6045,2.5967,2.5967,2.5762,2.5693,2.5693,2.5693,2.5693,2.5693,2.5693,2.5693,2.5693,2.5693,2.5693,2.5693,2.5693,2.5693,2.5693,2.5693,2.5693,2.5693,2.5693,2.5693,2.5693,2.5693,2.5693,2.5693,2.5693,2.5693,2.5693,2.5693,2.5693,2.5693,2.5693,2.5693,2.5693,2.5693,2.5693,2.5606,2.5361,2.5303,2.5215,2.4932,2.4836,2.4836,2.4836,2.4521,2.4189,2.4033,2.3769,2.3549,2.3549,2.3549,2.3549,2.3549,2.3413,2.3369,2.3369,2.3179,2.3091,2.3091,2.3091,2.3091,2.3091,2.3091,2.3091,2.3091,2.3091,2.3091,2.3091,2.3091,2.3091,2.312,2.313,2.3227,2.3711,2.3828,2.3926,2.4326,2.4434,2.4453,2.4453,2.4805,2.5145,0.0,0.0,2.5693,2.5693,2.5693,2.5693,2.5693,2.5693,2.5693,0.0,0.0,0.0,0.0,0.0,0.0,2.6455,0.0,2.6592,2.6992,2.7012,2.7012,2.7012,2.7012,2.7012,2.7012,2.7012,2.7012,2.7012,2.6611,2.6426,2.6406,2.5986,2.5742,2.5723,2.5723,2.5703,2.5693,2.5693,2.5693,2.5693,2.5693,2.5693,2.5693,2.5693,2.5693,2.5693,2.5693,2.5693,2.5693,2.5693,2.5693,2.5693,2.5693,2.5693,2.5693,2.5693,2.5693,2.5693,2.5693,2.5693,2.5693,2.5693,2.5693,2.5693,2.5693,2.5693,2.5693,2.5693,2.5693,2.5693,2.5693,2.5693,2.5693,2.5693,2.5371,2.4941,2.4502,2.4424,2.4414,2.4414,2.4414,2.4414,2.4414,2.4053,2.3828,2.3828,2.3393,2.3159,2.3159,2.3159,2.3159,2.3159,2.3159,2.3159,2.3159,2.3159,2.3159,2.3159,2.3159,2.3159,2.3535,2.3623,2.373,2.415,2.4258,2.4287,2.4394,2.4668,2.4902,2.4902,2.5264,2.5566,0.0,0.0,0.0,2.5693,2.5693,0.0,2.5693,2.5693,0.0,2.5693,0.0,2.582,2.6191,2.6328,0.0,0.0,2.7041,2.6904,2.7012,2.7012,2.7012,2.7012,2.7012,2.7012,2.7012,2.7012,2.7012,2.7012,2.6904,2.6855,2.6846,2.6738,2.6523,2.6221,2.6221,2.6035,2.5693,2.5693,2.5693,2.5693,2.5693,2.5693,2.5693,2.5693,2.5693,2.5693,2.5693,2.5693,2.5693,2.5693,2.5693,2.5693,2.5693,2.5693,2.5693,2.5693,2.5693,2.5693,2.5693,2.5693,2.5693,2.5693,2.5693,2.5693,2.5693,2.5693,2.5693,2.5693,2.5693,2.5693,2.5693,2.5693,2.5693,2.5693,2.5596,2.541,2.4961,2.4619,2.4414,2.4414,2.4414,2.4414,2.4414,2.4316,2.4258,2.4258,2.415,2.4092,2.4092,2.4092,2.4092,2.4092,2.4092,2.4092,2.4092,2.4092,2.4092,2.4092,2.4092,2.4092,2.3721,2.3926,2.417,2.46,2.4697,2.4756,2.4951,2.5185,2.5361,2.5361,2.5566,2.5693,2.5693,2.5693,2.5693,0.0,0.0,0.0,2.5693,2.5693,2.5693,0.0,2.5693,0.0,2.6348,2.6553,2.6943,0.0,2.7441,2.7383,2.7568,2.7578,2.7578,2.7578,2.7578,2.7578,2.7578,2.7578,2.7578,2.7568,2.7393,2.7305,2.7295,2.71,2.6885,2.666,0.0,2.6416,2.6025,2.6025,2.5908,2.5693,2.5693,2.5693,2.5693,2.5693,2.5693,2.5693,2.5693,2.5693,2.5693,2.5693,2.5693,2.5693,2.5693,2.5693,2.5693,2.5693,2.5693,2.5693,2.5693,2.5693,2.5693,2.5693,2.5693,2.5693,2.5693,2.5693,2.5693,2.5693,2.5693,2.5693,2.5693,2.5693,2.5693,2.5693,2.5693,2.5596,2.5391,2.5146,2.4953,2.4953,2.4953,2.4953,2.4953,2.4814,2.4697,2.4697,2.4521,2.4414,2.4414,2.4414,2.4414,2.4414,2.4414,2.4414,2.4414,2.4414,2.4414,2.4414,2.4414,2.4414,2.3857,2.418,2.4609,2.5049,2.5156,2.5254,2.5596,2.5693,2.5693,2.5693,2.5693,2.5693,2.5693,2.5693,2.5693,2.5693,0.0,2.5693,2.5693,2.5693,2.5693,2.5693,2.5742,2.5947,2.6426,2.6855,2.7275,2.7715,2.7806,2.791,2.8271,2.8291,2.8291,2.8291,2.8291,2.8291,2.8291,2.8291,2.8291,2.8291,2.792,2.7806,2.7787,2.7353,2.7158,2.71,2.71,2.6865,2.6475,2.6475,2.6211,2.5771,2.5771,2.5742,2.5693,2.5693,2.5693,2.5693,2.5693,2.5693,2.5693,2.5693,2.5693,2.5693,2.5693,2.5693,2.5693,2.5693,2.5693,2.5693,2.5693,2.5693,2.5693,2.5693,2.5693,2.5693,2.5693,2.5693,2.5693,2.5693,2.5693,2.5693,2.5693,2.5693,2.5693,2.5693,2.5693,2.5693,2.5693,2.5693,2.5693,2.5693,2.5693,2.5693,2.5693,2.5381,2.5156,2.5156,2.4805,2.459,2.459,2.459,2.459,2.459,2.459,2.459,2.459,2.459,2.459,2.459,2.459,2.459,2.4209,2.4629,2.5059,2.5508,2.5625,2.5596,2.5674,2.5693,0.0,0.0,2.5693,2.5693,2.5693,2.5693,2.5693,2.5693,2.5693,2.5693,2.5693,2.5693,2.5693,0.0,2.6055,2.6445,2.6865,2.7305,0.0,0.0,2.8184,2.8223,2.8291,2.8291,2.8291,2.8291,2.8291,2.8291,2.8291,2.8291,2.8291,2.8291,2.8223,2.8184,2.8174,2.8105,2.7881,2.7559,2.7559,0.0,2.6904,2.6904,2.665,2.6279,2.6279,2.6055,2.5693,2.5693,2.5693,2.5693,2.5693,2.5693,2.5693,2.5693,2.5693,2.5693,2.5693,2.5693,2.5693,2.5693,2.5693,2.5693,2.5693,2.5693,2.5693,2.5693,2.5693,2.5693,2.5693,2.5693,2.5693,2.5693,2.5693,2.5693,2.5693,2.5693,2.5693,2.5693,2.5693,2.5693,2.5693,2.5693,2.5693,2.5693,2.5693,2.5693,2.5693,2.5615,2.5625,2.5625,2.5499,2.546,2.546,2.546,2.546,2.546,2.546,2.546,2.546,2.546,2.546,2.546,2.546,2.546,2.4365,2.4902,2.5469,2.5635,2.5693,2.5693,2.5693,0.0,0.0,0.0,2.5391,2.5322,2.5088,2.5234,0.0,2.5391,2.5538,2.5693,2.5693,2.5693,2.5693,2.5693,2.6123,2.6553,2.6973,2.7412,2.7894,2.8262,2.8291,2.8291,2.8291,2.8291,2.8291,2.8291,2.8291,2.8291,2.8291,2.8291,2.8291,2.8291,2.8291,2.8291,2.8291,2.8291,2.8184,2.7988,2.7988,2.7744,2.7353,2.7353,2.71,2.6709,2.6709,2.6455,2.6074,2.6074,2.5937,2.5693,2.5693,2.5693,2.5693,2.5693,2.5693,2.5693,2.5693,2.5693,2.5693,2.5693,2.5693,2.5693,2.5693,2.5693,2.5693,2.5693,2.5693,2.5693,2.5693,2.5693,2.5693,2.5693,2.5693,2.5693,2.5693,2.5693,2.5693,2.5693,2.5693,2.5693,2.5693,2.5693,2.5693,2.5693,2.5693,2.5693,2.5693,2.5693,2.5693,2.5693,2.5693,2.5693,2.5693,2.5693,2.5693,2.5693,2.5693,2.5693,2.5693,2.5693,2.5693,2.5693,2.5693,2.5693,2.4394,2.499,2.5567,2.5664,2.5693,2.5693,2.5693,2.5615,0.0,2.5184,2.5037,2.4824,2.4482,2.4775,2.5116,0.0,2.5449,2.5693,2.5693,2.5693,2.5693,0.0,2.6201,0.0,2.6982,2.749,0.0,2.8271,2.8291,2.8291,2.8291,2.8291,2.8291,2.8291,2.8291,2.8291,2.8291,2.8291,2.8291,2.8291,2.8291,2.8291,2.8291,2.8291,2.8291,2.8291,2.8291,2.8105,2.7855,2.7855,2.7549,2.7158,2.7158,2.6894,2.6514,2.6426,2.6172,2.5859,2.5713,2.5693,2.5693,2.5693,2.5693,2.5693,2.5693,2.5693,2.5693,2.5693,2.5693,2.5693,2.5693,2.5693,2.5693,2.5693,2.5693,2.5693,2.5693,2.5693,2.5693,2.5693,2.5693,2.5693,2.5693,2.5693,2.5693,2.5693,2.5693,2.5693,2.5693,2.5693,2.5693,2.5693,2.5693,2.5693,2.5693,2.5693,2.5693,2.5693,2.5693,2.5693,2.5693,2.5693,2.5693,2.5693,2.5693,2.5693,2.5693,2.5693,2.5693,2.5693,2.5693,2.5693,2.4316,2.4766,2.5225,2.5586,2.5693,2.5693,2.5693,0.0,2.5117,2.5125,2.4756,2.4463,2.4424,2.4775,2.5116,2.5116,0.0,2.5693,2.5693,2.5693,2.5693,2.5693,0.0,0.0,2.7012,2.7754,2.8252,2.8291,2.8291,2.8291,2.8291,2.8291,2.8291,2.8291,2.8291,2.8291,2.8291,2.8291,2.8291,2.8291,2.8291,2.8291,2.8291,2.8291,2.8291,2.8291,2.8291,2.8271,0.0,2.8232,2.7988,2.766,2.766,2.7344,2.6914,2.6533,2.6367,2.6269,2.583,2.5693,2.5693,2.5693,2.5693,2.5693,2.5693,2.5693,2.5693,2.5693,2.5693,2.5693,2.5693,2.5693,2.5693,2.5693,2.5693,2.5693,2.5693,2.5693,2.5693,2.5693,2.5693,2.5693,2.5693,2.5693,2.5693,2.5693,2.5693,2.5693,2.5693,2.5693,2.5693,2.5693,2.5693,2.5693,2.5693,2.5693,2.5693,2.5693,2.5693,2.5693,2.5693,2.5693,2.5693,2.5693,2.5693,2.5693,2.5693,2.5693,2.5693,2.5693,2.5693,2.5693,2.4307,2.4736,2.5223,2.5577,2.5693,2.5615,2.54,0.0,2.4969,2.445,2.416,2.3955,2.3656,2.4209,2.4678,0.0,0.0,0.0,2.5693,2.5693,2.5693,2.5693,2.6494,0.0,0.0,0.0,2.8291,2.8291,2.8291,2.8291,2.8291,2.8291,2.8291,2.8291,2.8291,2.8291,2.8291,2.8291,2.8291,2.8291,2.8291,2.8291,2.8291,2.8291,2.8291,2.8291,2.8291,2.8291,0.0,2.8291,2.8193,2.8047,2.8047,2.7783,2.7393,2.7217,2.6826,2.6367,2.6191,2.5957,2.5693,2.5693,2.5693,2.5693,2.5693,2.5693,2.5693,2.5693,2.5693,2.5693,2.5693,2.5693,2.5693,2.5693,2.5693,2.5693,2.5693,2.5693,2.5693,2.5693,2.5693,2.5693,2.5693,2.5693,2.5693,2.5693,2.5693,2.5693,2.5693,2.5693,2.5693,2.5693,2.5693,2.5693,2.5693,2.5693,2.5693,2.5693,2.5693,2.5693,2.5693,2.5693,2.5693,2.5693,2.5693,2.5693,2.5693,2.5693,2.5693,2.5693,2.5693,2.5693,2.4111,2.4541,2.498,2.543,2.5537,2.5459,0.0,0.0,2.4558,2.3916,2.3691,2.3506,2.3149,2.3793,2.4414,0.0,0.0,2.5693,2.5693,2.5693,2.5732,2.5869,0.0,2.707,2.7197,2.7861,2.8291,2.8291,2.8291,2.8291,2.8291,2.8291,2.8291,2.8291,2.8291,2.8291,2.8291,2.8291,2.8291,2.8291,2.8291,2.8291,2.8291,2.8291,2.8291,2.8291,2.8291,2.8291,0.0,2.8291,2.8291,2.8291,2.8291,2.8115,2.7832,2.7767,2.7337,2.6728,2.6475,2.6182,2.5859,2.5732,2.5693,2.5693,2.5693,2.5693,2.5693,2.5693,2.5693,2.5693,2.5693,2.5693,2.5693,2.5693,2.5693,2.5693,2.5693,2.5693,2.5693,2.5693,2.5693,2.5693,2.5693,2.5693,2.5693,2.5693,2.5693,2.5693,2.5693,2.5693,2.5693,2.5693,2.5693,2.5693,2.5693,2.5693,2.5693,2.5693,2.5693,2.5693,2.5693,2.5693,2.5693,2.5693,2.5693,2.5693,2.5693,2.5693,2.5693,2.5693,2.5693,2.5693,2.3682,2.4102,2.4531,2.4971,2.5125,2.5125,0.0,0.0,2.3799,2.3789,2.3447,2.3101,2.3091,2.3793,2.4414,2.4414,0.0,0.0,2.5693,2.5693,2.5849,0.0,0.0,2.7187,2.7669,2.8047,2.8291,2.8291,2.8291,0.0,2.8291,2.8291,2.8291,2.8291,2.8291,2.8291,2.8291,2.8291,2.8291,2.8291,2.8291,2.8291,2.8291,2.8291,2.8291,2.8291,2.8291,2.8291,0.0,2.8291,2.8291,2.8291,2.8291,2.8291,2.8232,2.7875,2.7708,2.7581,2.668,2.6387,2.6309,2.583,2.5693,2.5693,2.5693,2.5693,2.5693,2.5693,2.5693,2.5693,2.5693,2.5693,2.5693,2.5693,2.5693,2.5693,2.5693,2.5693,2.5693,2.5693,2.5693,2.5693,2.5693,2.5693,2.5693,2.5693,2.5693,2.5693,2.5693,2.5693,2.5693,2.5693,2.5693,2.5693,2.5693,2.5693,2.5693,2.5693,2.5693,2.5693,2.5693,2.5693,2.5693,2.5693,2.5693,2.5693,2.5693,2.5693,2.5693,2.5693,2.5693,2.5693,2.3672,2.3887,2.4092,2.4512,2.4619,2.4551,2.4258,2.3984,2.3711,2.3408,2.3188,2.3091,2.3091,2.3793,2.4414,2.4414,2.5109,0.0,0.0,0.0,0.0,2.6338,2.7021,2.7627,0.0,0.0,2.8291,2.8291,2.8291,2.8291,2.8291,2.8291,2.8291,2.8291,2.8291,2.8291,2.8291,2.8291,2.8291,2.8291,2.8291,2.8291,2.8291,2.8291,2.8291,2.8291,2.8291,2.8291,2.8291,2.8291,2.8291,2.8291,2.8291,2.8291,2.8271,2.8144,2.7963,2.764,2.7012,2.6631,2.6318,2.583,2.5693,2.5693,2.5693,2.5693,2.5693,2.5693,2.5693,2.5693,2.5693,2.5693,2.5693,2.5693,2.5693,2.5693,2.5693,2.5693,2.5693,2.5693,2.5693,2.5693,2.5693,2.5693,2.5693,2.5693,2.5693,2.5693,2.5693,2.5693,2.5693,2.5693,2.5693,2.5693,2.5693,2.5693,2.5693,2.5693,2.5693,2.5693,2.5693,2.5693,2.5693,2.5693,2.5693,2.5693,2.5693,2.5693,2.5693,2.5693,2.5693,2.5693,0.0,2.3662,2.3857,2.4111,2.418,0.0,0.0,2.3662,2.3467,2.3149,2.3091,2.3149,2.3305,2.3945,2.4473,2.4639,2.5273,0.0,0.0,0.0,0.0,2.6553,0.0,0.0,0.0,2.8291,2.8291,2.8291,2.8291,2.8291,2.8291,2.8291,2.8291,2.8291,2.8291,2.8291,2.8291,2.8291,2.8291,2.8291,2.8291,2.8291,2.8291,2.8291,2.8291,2.8291,2.8291,2.8291,0.0,2.8291,2.8291,2.8291,2.8291,2.8291,2.8291,2.8291,2.8125,2.7842,2.7412,2.6982,2.6553,2.6123,2.582,2.5693,2.5693,2.5693,2.5693,2.5693,2.5693,2.5693,2.5693,2.5693,2.5693,2.5693,2.5693,2.5693,2.5693,2.5693,2.5693,2.5693,2.5693,2.5693,2.5693,2.5693,2.5693,2.5693,2.5693,2.5693,2.5693,2.5693,2.5693,2.5693,2.5693,2.5693,2.5693,2.5693,2.5693,2.5693,2.5693,2.5693,2.5693,2.5693,2.5693,2.5693,2.5693,2.5693,2.5693,2.5693,2.5693,2.5693,2.5693,2.5693,0.0,0.0,0.0,2.374,2.374,0.0,0.0,0.0,0.0,2.3091,2.312,2.3266,2.3711,2.416,2.459,2.5047,2.5449,0.0,0.0,2.5742,0.0,0.0,2.7773,0.0,2.8291,2.8291,2.8291,2.8291,2.8291,2.8291,2.8291,2.8291,2.8291,2.8291,2.8291,2.8291,2.8291,2.8291,2.8291,2.8291,2.8291,2.8291,2.8291,2.8291,2.8291,0.0,2.8291,2.8291,2.8291,2.8291,2.8291,2.8291,2.8291,2.8291,2.8291,2.8291,2.8291,2.8232,2.7812,2.7383,2.6943,2.6484,2.6074,2.5693,2.5693,2.5693,2.5693,2.5693,2.5693,2.5693,2.5693,2.5693,2.5693,2.5693,2.5693,2.5693,2.5693,2.5693,2.5693,2.5693,2.5693,2.5693,2.5693,2.5693,2.5693,2.5693,2.5693,2.5693,2.5693,2.5693,2.5693,2.5693,2.5693,2.5693,2.5693,2.5693,2.5693,2.5693,2.5693,2.5693,2.5693,2.5693,2.5703,2.5732,2.5762,2.5781,2.5781,2.5869,2.5869,2.5781,2.6015,2.6015,2.3091,0.0,2.3247,2.3247,2.3247,2.3247,0.0,0.0,0.0,0.0,0.0,0.0,0.0,0.0,2.4951,2.5096,0.0,2.5693,2.5693,2.6249,0.0,2.6992,2.7773,2.8291,2.8291,2.8291,2.8291,2.8291,2.8291,2.8291,2.8291,2.8291,2.8291,2.8291,2.8291,2.8291,2.8291,2.8291,2.8291,2.8291,2.8291,2.8291,2.8291,2.8291,2.8291,2.8291,2.8291,2.8291,2.8291,2.8291,2.8291,2.8291,2.8291,2.8291,2.8291,2.8291,2.8291,2.8232,2.7812,2.7383,2.6894,2.6133,2.5771,2.5693,2.5693,2.5693,2.5693,2.5693,2.5693,2.5693,2.5693,2.5693,2.5693,2.5693,2.5693,2.5693,2.5693,2.5693,2.5693,2.5693,2.5693,2.5693,2.5693,2.5693,2.5693,2.5693,2.5693,2.5693,2.5693,2.5693,2.5693,2.5693,2.5693,2.5693,2.5693,2.5693,2.5693,2.5693,2.5693,2.5693,2.5693,2.5693,2.5849,2.623,2.6553,2.6709,2.6719,2.7721,2.7721,2.6759,2.8813,2.9192,2.3091,2.3091,2.3091,2.3091,2.3091,2.3091,0.0,0.0,0.0,0.0,0.0,0.0,0.0,0.0,0.0,0.0,2.5586,0.0,0.0,0.0,2.709,2.7285,2.7891,2.8291,0.0,2.8291,2.8291,2.8291,2.8291,2.8291,2.8291,2.8291,2.8291,2.8291,2.8291,2.8291,2.8291,2.8291,2.8291,2.8291,2.8291,2.8291,2.8291,2.8291,2.8291,2.8291,2.8291,2.8291,2.8291,2.8291,2.8291,2.8291,2.8291,2.8291,2.8291,2.8291,2.8291,2.8262,2.8027,2.7539,2.6875,2.5966,2.5693,2.5693,2.5693,2.5693,2.5693,2.5693,2.5693,2.5693,2.5693,2.5693,2.5693,2.5693,2.5693,2.5693,2.5693,2.5693,2.5693,2.5693,2.5693,2.5693,2.5693,2.5693,2.5693,2.5693,2.5693,2.5693,2.5693,2.5693,2.5762,2.6016,2.6035,2.6113,2.6259,2.6328,2.624,2.6045,2.6161,2.6328,2.6328,2.6328,2.6435,2.667,2.6904,2.7012,2.7012,2.7743,2.8036,2.7935,2.9437,3.0003,2.3091,2.3091,2.3091,2.3091,2.3091,2.3091,0.0,0.0,0.0,0.0,0.0,0.0,0.0,2.5174,0.0,0.0,0.0,0.0,2.624,2.6709,2.7148,2.7529,2.7998,0.0,2.8291,2.8291,2.8291,2.8291,2.8291,2.8291,2.8291,2.8291,2.8291,2.8291,2.8291,2.8291,2.8291,2.8291,2.8291,2.8291,2.8291,2.8291,2.8291,2.8291,2.8291,2.8291,0.0,0.0,2.8291,2.8291,2.8291,2.8291,2.8291,2.8291,2.8291,2.8291,2.8291,2.8271,2.8144,2.7578,2.6787,2.5947,2.5693,2.5693,2.5693,2.5693,2.5693,2.5693,2.5693,2.5693,2.5693,2.5693,2.5693,2.5693,2.5742,2.5791,2.5791,2.584,2.5888,2.5888,2.5888,2.5859,2.5801,2.584,2.5859,2.5801,2.584,2.5888,2.5888,2.5888,2.6025,2.6445,2.6484,2.6631,2.6982,2.708,2.6963,2.6611,2.6855,2.7012,2.7012,2.708,2.7119,2.7119,2.7178,2.7217,2.7217,2.7402,2.7995,2.8913,2.9302,3.0122,2.3091,2.3091,2.3091,2.3091,2.3091,2.3091,0.0,0.0,0.0,0.0,0.0,0.0,0.0,2.5381,2.5615,0.0,0.0,2.5713,0.0,0.0,2.7041,2.7109,0.0,2.8291,2.8291,2.8291,2.8291,2.8291,2.8291,2.8291,2.8291,2.8291,2.8291,2.8291,2.8291,2.8291,2.8291,2.8291,2.8291,2.8291,2.8291,2.8291,2.8291,2.8291,2.8291,2.8291,0.0,2.8291,2.8291,2.8291,2.8291,2.8291,2.8291,2.8291,2.8291,2.8291,2.8291,2.8184,2.7461,2.6894,2.6406,2.5849,2.5693,2.5693,2.5693,2.5693,2.5693,2.5693,2.5693,2.5693,2.5693,2.5693,2.5693,2.5693,2.6016,2.6289,2.6289,2.6562,2.6816,2.6816,2.6816,2.6699,2.6348,2.6582,2.6699,2.6348,2.6592,2.6816,2.6816,2.6816,2.6846,2.6914,2.6914,2.6943,2.7012,2.7353,2.7591,2.7523,2.7187,2.7012,2.7012,2.7373,2.7568,2.7568,2.791,2.8096,2.8096,2.9257,2.9309,2.8447,3.0764,3.1906,2.3091,2.3091,2.3091,2.3091,2.3276,2.3486,0.0,0.0,0.0,0.0,0.0,0.0,0.0,0.0,2.5693,2.5693,0.0,2.5849,2.6317,2.6768,2.7187,0.0,0.0,2.8291,2.8291,2.8291,2.8291,2.8291,2.8291,2.8291,2.8291,2.8291,2.8291,2.8291,2.8291,2.8291,2.8291,2.8291,2.8291,2.8291,2.8291,2.8291,2.8291,2.8291,2.8291,2.8291,0.0,2.8291,2.8291,2.8291,2.8291,2.8291,2.8291,2.8291,2.8262,2.8037,2.7803,2.7519,2.6894,2.6543,2.6318,2.583,2.5693,2.5693,2.5693,2.5908,2.6084,2.6084,2.5918,2.5742,2.6025,2.6084,2.6143,2.6367,2.6582,2.6728,2.6728,2.6875,2.7012,2.7012,2.7012,2.6953,2.6758,2.6894,2.6943,2.6758,2.6894,2.7012,2.7012,2.7012,2.7109,2.7344,2.7363,2.7461,2.7685,2.7891,2.7998,2.7998,2.7822,2.7705,2.7705,2.79,2.7998,2.7998,2.8193,2.8291,2.8291,2.89,2.925,2.9408,3.0669,3.2039,2.3091,2.3091,2.312,2.3218,0.0,0.0,0.0,0.0,0.0,0.0,0.0,0.0,0.0,2.5693,0.0,2.5693,2.5693,2.5947,2.6758,2.6953,2.7295,2.8057,2.8232,2.8291,2.8291,2.8291,2.8291,2.8291,2.8291,2.8291,2.8291,2.8291,2.8291,2.8291,2.8291,2.8291,2.8291,2.8291,2.8291,2.8291,2.8291,2.8291,2.8291,2.8291,2.8291,2.8291,2.8291,2.8291,2.8291,2.8291,2.8291,2.8281,2.8184,2.8086,2.7959,2.7637,2.7246,2.6826,2.6504,2.6328,2.6201,2.5967,2.584,2.5859,2.5957,2.6269,2.6533,2.6533,2.6289,2.6064,2.6445,2.6533,2.6621,2.6943,2.709,2.7168,2.7168,2.7246,2.7314,2.7314,2.7314,2.7285,2.7187,2.7246,2.7285,2.7178,2.7246,2.7314,2.7314,2.7314,2.7441,2.7773,2.7812,2.7949,2.8262,2.8291,2.8291,2.8291,2.8291,2.8291,2.8291,2.8291,2.8291,2.8291,2.8291,2.8291,2.8291,2.8601,2.9154,2.9859,3.0162,3.1582,2.3091,2.3091,2.3188,2.3643,2.3769,0.0,2.3789,2.4453,0.0,2.5116,0.0,0.0,0.0,2.5693,2.5693,2.5693,2.5693,2.5849,2.6367,0.0,2.7187,2.7656,2.8057,2.8291,2.8291,2.8291,2.8291,2.8291,2.8291,2.8291,2.8291,2.8291,2.8291,2.8291,2.8291,2.8291,2.8291,2.8291,2.8291,2.8291,2.8291,2.8291,2.8291,2.8291,2.8291,2.8291,2.8291,2.8291,2.8291,2.8291,2.8291,2.8252,2.7861,2.7461,2.71,2.707,2.6797,2.6426,2.6396,2.6123,2.5801,2.6221,2.6338,2.6416,2.6807,2.6943,2.6973,2.6973,2.6943,2.6924,2.6963,2.6973,2.6973,2.7012,2.7324,2.7669,2.7669,2.793,2.8203,2.8203,2.8203,2.8076,2.7685,2.7939,2.8066,2.7728,2.7949,2.8203,2.8203,2.8203,2.8213,2.8242,2.8252,2.8262,2.8291,2.8291,2.8291,2.8291,2.8291,2.8291,2.8291,2.8291,2.8291,2.8291,2.8291,2.8291,2.8291,2.9565,2.9555,2.8441,2.9713,3.1071,2.3091,2.3091,2.3198,2.3682,2.3984,0.0,0.0,2.5049,2.5488,2.5488,2.5567,0.0,0.0,0.0,2.5693,2.5693,2.5693,2.5937,2.668,2.6914,2.7275,2.7969,2.8193,2.8291,2.8291,2.8291,2.8291,2.8291,2.8291,2.8291,2.8291,2.8291,2.8291,2.8291,2.8291,2.8291,2.8291,2.8291,2.8291,2.8291,2.8291,2.8291,2.8291,2.8291,2.8291,2.8291,2.8291,2.8291,2.8271,2.8018,2.791,2.7861,2.7432,2.7002,2.6631,2.6631,2.6357,2.5986,2.5986,2.6055,2.6172,2.6338,2.6562,2.6807,2.6973,2.7207,2.7422,2.7422,2.7607,2.7744,2.749,2.7422,2.749,2.7744,2.793,2.8057,2.8057,2.8174,2.8291,2.8291,2.8291,2.8242,2.8086,2.8193,2.8242,2.8086,2.8193,2.8291,2.8291,2.8291,2.8291,2.8291,2.8291,2.8291,2.8291,2.8291,2.8291,2.8291,2.8291,2.8291,2.8291,2.8291,2.8291,2.8291,2.9102,2.9555,2.9565,3.0876,3.1276,3.0824,3.1327,3.2292,2.3091,2.3198,2.3447,2.3877,0.0,0.0,2.5185,2.5518,2.5693,2.5693,2.5693,2.5693,2.5693,0.0,0.0,0.0,2.5693,2.5986,2.6894,2.7012,2.7334,2.8193,2.8291,2.8291,2.8291,2.8291,2.8291,2.8291,2.8291,2.8291,2.8291,2.8291,2.8291,2.8291,2.8291,2.8291,2.8291,2.8291,2.8291,2.8291,2.8291,2.8291,2.8291,2.8291,2.8291,2.8291,2.8291,2.8291,2.8262,2.7894,2.7562,2.7236,2.6934,2.6553,2.6182,2.6182,2.5996,2.5703,2.5849,2.6143,2.6435,2.6699,2.6992,2.7246,2.7373,2.7627,2.7861,2.7861,2.8066,2.8223,2.7939,2.7861,2.7939,2.8223,2.8291,2.8291,2.8291,2.8291,2.8291,2.8291,2.8291,2.8291,2.8291,2.8291,2.8291,2.8291,2.8291,2.8291,2.8291,2.8291,2.8291,2.8291,2.8291,2.8291,2.8291,2.8291,2.8291,2.8291,2.8291,2.8291,2.8291,2.8291,2.8291,2.8291,2.9207,2.966,2.966,3.1429,3.2079,3.1684,3.2543,3.3464,2.3091,2.3457,2.3896,0.0,0.0,0.0,2.5586,2.5693,2.5693,2.5693,2.5693,2.5693,2.5693,2.5693,0.0,2.5693,2.5693,2.5986,2.6885,2.7012,2.7324,2.8184,2.8291,2.8291,2.8291,2.8291,2.8291,2.8291,2.8291,2.8291,2.8291,2.8291,2.8291,2.8291,2.8291,2.8291,2.8291,2.8291,2.8291,2.8291,2.8291,2.8291,2.8291,2.8291,2.8291,2.8291,2.8291,2.8291,2.8252,2.7885,2.72,2.6387,2.6387,2.6113,2.5693,2.5693,2.5693,2.5752,2.624,2.6396,2.6543,2.7444,2.7718,2.7806,2.8164,2.8291,2.8291,2.8291,2.8291,2.8291,2.8291,2.8291,2.8291,2.8291,2.8291,2.8291,2.8291,2.8291,2.8291,2.8291,2.8291,2.8291,2.8291,2.8291,2.8291,2.8291,2.8291,2.8291,2.8291,2.8291,2.8291,2.8291,2.8291,2.8291,2.8291,2.8291,2.8291,2.8291,2.8291,2.8291,2.8291,2.8291,2.8291,2.8291,2.8291,2.8291,2.8344,3.1019,3.1622,3.0421,3.3116,3.4434,2.3091,2.3457,0.0,2.4316,0.0,0.0,0.0,2.5693,0.0,0.0,2.5693,2.5693,2.5693,2.5693,0.0,2.5693,2.5693,2.5937,2.6494,2.6826,2.7217,2.7783,2.8115,2.8291,2.8291,2.8291,2.8291,2.8291,2.8291,2.8291,2.8291,2.8291,2.8291,2.8291,2.8291,2.8291,2.8291,2.8291,2.8291,2.8291,2.8291,2.8291,2.8291,2.8291,2.8291,2.8291,2.8291,2.8125,2.7793,2.707,2.6435,2.5937,2.5937,2.5801,2.5693,2.5693,2.5937,2.6211,2.6338,2.6787,2.7386,2.764,2.7861,2.8125,2.8252,2.8291,2.8291,2.8291,2.8291,2.8291,2.8291,2.8291,2.8291,2.8291,2.8291,2.8291,2.8291,2.8291,2.8291,2.8291,2.8291,2.8291,2.8291,2.8291,2.8291,2.8291,2.8291,2.8291,2.8291,2.8291,2.8291,2.8291,2.8291,2.8291,2.8291,2.8291,2.8291,2.8291,2.8291,2.8291,2.8291,2.8291,2.8291,2.8291,2.9207,2.9713,2.9713,3.148,3.2593,3.3216,3.403,3.4933,2.3091,2.3574,0.0,2.4355,2.4873,2.54,2.5625,0.0,0.0,0.0,2.5693,2.5693,2.5693,2.5693,0.0,2.5693,2.5693,2.584,2.6328,2.6602,2.6924,2.7363,2.7783,2.8047,2.8047,2.8193,2.8291,2.8291,2.8291,2.8291,2.8291,2.8291,2.8291,2.8291,2.8291,2.8291,2.8291,2.8291,2.8291,2.8291,2.8291,2.8291,2.8291,2.8291,2.8291,2.8281,2.8115,2.7803,2.7353,2.667,2.6133,2.5693,2.5693,2.5693,2.5713,2.5937,2.6162,2.6435,2.6777,2.7236,2.7748,2.7914,2.8086,2.8291,2.8291,2.8291,2.8291,2.8291,2.8291,2.8291,2.8291,2.8291,2.8291,2.8291,2.8291,2.8291,2.8291,2.8291,2.8291,2.8291,2.8291,2.8291,2.8291,2.8291,2.8291,2.8291,2.8291,2.8291,2.8291,2.8291,2.8291,2.8291,2.8291,2.8291,2.8291,2.8291,2.8291,2.8291,2.8291,2.8291,2.8291,2.8291,2.8291,2.8291,2.9102,2.9513,2.9503,3.1378,3.2744,3.3613,3.4666,3.5619,2.3256,0.0,0.0,2.4414,2.504,0.0,2.5693,2.5693,2.5693,2.5693,0.0,2.5693,2.5693,2.5693,2.5693,2.5693,2.5693,2.583,2.6279,2.6367,2.6533,2.6914,2.7344,2.766,2.766,2.7959,2.8174,2.8174,2.8174,2.8193,2.8232,2.8232,2.8252,2.8291,2.8291,2.8291,2.8291,2.8291,2.8291,2.8291,2.8291,2.8291,2.8291,2.8291,2.8291,2.8271,2.7803,2.7383,2.6982,2.6514,2.6094,2.5693,2.5693,2.5713,2.5801,2.624,2.6435,2.6611,2.7444,2.7738,2.7783,2.8164,2.8291,2.8291,2.8291,2.8291,2.8291,2.8291,2.8291,2.8291,2.8291,2.8291,2.8291,2.8291,2.8291,2.8291,2.8291,2.8291,2.8291,2.8291,2.8291,2.8291,2.8291,2.8291,2.8291,2.8291,2.8291,2.8291,2.8291,2.8291,2.8291,2.8291,2.8291,2.8291,2.8291,2.8291,2.8291,2.8291,2.8291,2.8291,2.8291,2.8291,2.8291,2.8291,2.8398,2.8495,2.8495,3.1071,3.2392,3.2532,3.5054,3.6263,2.4414,2.44,0.0,0.0,2.504,2.5693,2.5693,2.5693,2.5693,2.5693,2.5693,2.5693,2.5693,2.5693,2.5693,2.5693,2.5693,2.5723,2.5859,2.6172,2.6426,2.6514,2.6894,2.7158,2.7158,2.7236,2.7285,2.7285,2.7285,2.7441,2.7783,2.7855,2.7949,2.8281,2.8291,2.8291,2.8291,2.8291,2.8291,2.8291,2.8291,2.8291,2.8291,2.8291,2.8291,2.8252,2.749,2.71,2.6953,2.6191,2.5771,2.5693,2.5693,2.5947,2.626,2.6357,2.6816,2.7474,2.765,2.7933,2.8174,2.8262,2.8291,2.8291,2.8291,2.8291,2.8291,2.8291,2.8291,2.8291,2.8291,2.8291,2.8291,2.8291,2.8291,2.8291,2.8291,2.8291,2.8291,2.8291,2.8291,2.8291,2.8291,2.8291,2.8291,2.8291,2.8291,2.8291,2.8291,2.8291,2.8291,2.8291,2.8291,2.8291,2.8291,2.8291,2.8291,2.8291,2.8291,2.8291,2.8291,2.8291,2.8291,2.8291,2.9303,2.9859,2.9859,3.1531,3.2844,3.397,3.4569,3.5367,2.563,0.0,0.0,2.5976,0.0,2.5693,2.5693,2.5693,2.5693,2.5693,2.5693,2.5693,2.5693,2.5693,2.5693,2.5693,2.5693,2.5693,2.5693,2.5937,2.6074,2.6074,2.6455,2.6709,2.6709,2.6894,2.7012,2.7012,2.7012,2.7119,2.7344,2.7353,2.7451,2.7676,2.7685,2.7783,2.7988,2.7988,2.8096,2.8291,2.8291,2.8291,2.8291,2.8291,2.8291,2.8252,2.7607,2.7334,2.7275,2.6621,2.6298,2.6298,2.6298,2.6484,2.6709,2.6924,2.7337,2.7748,2.7891,2.8105,2.8291,2.8291,2.8291,2.8291,2.8291,2.8291,2.8291,2.8291,2.8291,2.8291,2.8291,2.8291,2.8291,2.8291,2.8291,2.8291,2.8291,2.8291,2.8291,2.8291,2.8291,2.8291,2.8291,2.8291,2.8291,2.8291,2.8291,2.8291,2.8291,2.8291,2.8291,2.8291,2.8291,2.8291,2.8291,2.8291,2.8291,2.8291,2.89,2.926,2.926,2.926,2.926,2.926,3.0566,3.1276,3.1276,3.2644,3.3662,3.4434,3.5078,3.5715,2.6554,0.0,2.7646,2.7581,2.6802,0.0,2.5732,2.5693,2.5693,2.5693,2.5693,2.5693,2.5693,2.5693,2.5693,2.5693,2.5693,2.5693,2.5693,2.5693,2.5693,2.5693,2.6055,2.6279,2.6279,2.6592,2.6797,2.6797,2.6797,2.6826,2.6904,2.6904,2.6943,2.7012,2.7012,2.7187,2.7601,2.7559,2.7764,2.8184,2.8262,2.8291,2.8291,2.8291,2.8291,2.8271,2.7851,2.7718,2.7679,2.7197,2.7012,2.7012,2.7012,2.706,2.7168,2.7581,2.7767,2.7822,2.8174,2.8291,2.8291,2.8291,2.8291,2.8291,2.8291,2.8291,2.8291,2.8291,2.8291,2.8291,2.8291,2.8291,2.8291,2.8291,2.8291,2.8291,2.8291,2.8291,2.8291,2.8291,2.8291,2.8291,2.8291,2.8291,2.8291,2.8291,2.8291,2.8291,2.8291,2.8291,2.8291,2.8291,2.8291,2.8291,2.8291,2.8291,2.8291,2.8291,2.9555,3.0214,2.9964,3.0421,3.0514,3.0317,3.1633,3.2431,3.2694,3.4068,3.4727,3.4775,3.587,3.6405,0.0,0.0,2.6674,0.0,2.7447,2.7078,0.0,0.0,2.5693,0.0,2.5693,2.5693,2.5693,2.5693,2.5693,2.5693,2.5693,2.5693,2.5693,2.5693,2.5693,2.5693,2.5742,2.5771,2.5771,2.583,2.5859,2.5859,2.5859,2.6074,2.6455,2.6475,2.6641,2.7002,2.7012,2.7041,2.71,2.71,2.7324,2.7806,2.8115,2.8291,2.8291,2.8291,2.8291,2.8271,2.7851,2.7718,2.7679,2.7197,2.7012,2.7012,2.7012,2.7246,2.7588,2.7699,2.7891,2.8223,2.8271,2.8291,2.8291,2.8291,2.8291,2.8291,2.8291,2.8291,2.8291,2.8291,2.8291,2.8291,2.8291,2.8291,2.8291,2.8291,2.8291,2.8291,2.8291,2.8291,2.8291,2.8291,2.8291,2.8291,2.8291,2.8291,2.8291,2.8291,2.8291,2.8291,2.8291,2.8291,2.8291,2.8291,2.8291,2.8291,2.8291,2.8291,2.8291,2.8291,2.9555,2.9755,2.8601,3.0824,3.148,3.0317,3.1633,3.2894,3.4129,3.5463,3.6108,3.6168,3.631,3.6405,2.92,2.871,2.8196,0.0,2.8085,2.7268,2.5965,0.0,2.5693,2.5693,2.5693,2.5693,2.5693,2.5693,2.5693,2.5693,2.5693,2.5693,2.5693,2.5693,2.5693,2.5693,2.5693,2.5693,2.5693,2.5693,2.5693,2.5693,2.5693,2.5771,2.6016,2.6025,2.6103,2.6249,2.6249,2.6416,2.666,2.666,2.7002,2.7718,2.7851,2.8066,2.8291,2.8291,2.8291,2.8281,2.8096,2.8018,2.7998,2.7812,2.7734,2.7734,2.7734,2.7851,2.8018,2.8018,2.8135,2.8291,2.8291,2.8291,2.8291,2.8291,2.8291,2.8291,2.8291,2.8291,2.8291,2.8291,2.8291,2.8291,2.8291,2.8291,2.8291,2.8291,2.8291,2.8291,2.8291,2.8291,2.8291,2.8291,2.8291,2.8291,2.8291,2.8291,2.8291,2.8291,2.8291,2.8291,2.8291,2.8291,2.8291,2.8291,2.8291,2.8291,2.8291,2.8291,2.8291,2.8291,2.9555,3.0016,2.946,3.0566,3.1276,3.1429,3.2744,3.3773,3.4385,3.5763,3.6405,3.6405,3.6405,3.6405,0.0,0.0,2.9666,2.9633,2.8859,2.772,0.0,0.0,2.5693,0.0,2.5693,2.5693,2.5693,2.5693,2.5693,2.5693,2.5693,2.5693,2.5693,2.5693,2.5693,2.5693,2.5693,2.5693,2.5693,2.5693,2.5693,2.5693,2.5693,2.5693,2.5693,2.5693,2.5693,2.5693,2.5693,2.5889,2.6221,2.6338,2.6768,2.75,2.7669,2.7891,2.8291,2.8291,2.8291,2.8291,2.8291,2.8291,2.8291,2.8291,2.8291,2.8291,2.8291,2.8291,2.8291,2.8291,2.8291,2.8291,2.8291,2.8291,2.8291,2.8291,2.8291,2.8291,2.8291,2.8291,2.8291,2.8291,2.8291,2.8291,2.8291,2.8291,2.8291,2.8291,2.8291,2.8291,2.8291,2.8291,2.8291,2.8291,2.8291,2.8291,2.8291,2.8291,2.8291,2.8291,2.8291,2.8291,2.8291,2.8291,2.8291,2.8291,2.8291,2.8291,2.8291,2.8291,2.8291,2.8291,2.9869,3.0669,3.0317,3.0979,3.1633,3.228,3.3662,3.4385,3.4385,3.5763,3.6405,3.6405,3.6405,3.6405,0.0,3.0212,0.0,3.0257,2.9824,0.0,0.0,0.0,2.5693,2.5693,2.5693,2.5693,2.5693,2.5693,2.5693,2.5693,2.5693,2.5693,2.5693,2.5693,2.5693,2.5693,2.5693,2.5693,2.5693,2.5693,2.5693,2.5693,2.5693,2.5693,2.5693,2.5693,2.5693,2.5693,2.5693,2.5703,2.5723,2.6182,2.6611,2.7051,2.7471,2.7891,2.8291,2.8291,2.8291,2.8291,2.8291,2.8291,2.8291,2.8291,2.8291,2.8291,2.8291,2.8291,2.8291,2.8291,2.8291,2.8291,2.8291,2.8291,2.8291,2.8291,2.8291,2.8291,2.8291,2.8291,2.8291,2.8291,2.8291,2.8291,2.8291,2.8291,2.8291,2.8291,2.8291,2.8291,2.8291,2.8291,2.8291,2.8291,2.8291,2.8291,2.8291,2.8291,2.8291,2.8291,2.8291,2.8291,2.8291,2.8291,2.8291,2.8291,2.8291,2.8291,2.8291,2.8291,2.8291,2.8291,3.0773,3.1633,3.0369,3.2805,3.3613,3.2331,3.3662,3.4385,3.4385,3.5763,3.6405,3.6405,3.6405,3.6405,0.0,0.0,0.0,3.0491,2.989,2.9085,2.7861,2.7268,2.6706,2.5878,2.6342,2.6668,2.583,2.5693,2.5693,2.5693,2.5693,2.5693,2.5693,2.5693,2.5693,2.5693,2.5693,2.5693,2.5693,2.5693,2.5693,2.5693,2.5693,2.5693,2.5693,2.5693,2.5693,2.5693,2.5693,2.5693,2.5693,2.6172,2.6602,2.7021,2.7461,2.7891,2.8291,2.8291,2.8291,2.8291,2.8291,2.8291,2.8291,2.8291,2.8291,2.8291,2.8291,2.8291,2.8291,2.8291,2.8291,2.8291,2.8291,2.8291,2.8291,2.8291,2.8291,2.8291,2.8291,2.8291,2.8291,2.8291,2.8291,2.8291,2.8291,2.8291,2.8291,2.8291,2.8291,2.8291,2.8291,2.8291,2.8291,2.8291,2.8291,2.8291,2.8291,2.8291,2.8291,2.8291,2.8291,2.8291,2.8291,2.8291,2.8644,2.9513,2.9555,2.9911,3.0773,3.0876,3.0876,3.0876,3.1774,3.2079,3.1582,3.2543,3.2794,3.2331,3.3662,3.4385,3.4385,3.5763,3.6405,3.6405,3.6405,3.6405,3.0231,0.0,0.0,0.0,0.0,2.9772,2.9004,2.8495,2.7861,2.662,2.703,2.722,2.5917,2.5693,2.5693,2.5693,2.5693,2.5693,2.5693,2.5693,2.5693,2.5693,2.5693,2.5693,2.5693,2.5693,2.5693,2.5693,2.5693,0.0,2.5693,2.5693,2.5693,2.5693,2.5693,2.5693,2.5693,2.6172,2.6602,2.7021,2.7461,2.7891,2.8291,2.8291,2.8291,2.8291,2.8291,2.8291,2.8291,2.8291,2.8291,2.8291,2.8291,2.8291,2.8291,2.8291,2.8291,2.8291,2.8291,2.8291,2.8291,2.8291,2.8291,2.8291,2.8291,2.8291,2.8291,2.8291,2.8291,2.8291,2.8291,2.8291,2.8291,2.8291,2.8291,2.8291,2.8291,2.8291,2.8291,2.8291,2.8291,2.8291,2.8291,2.8291,2.8291,2.8291,2.8291,2.8291,2.8291,2.8698,2.9303,3.0214,3.0721,3.1327,3.223,3.228,3.228,3.228,3.2744,3.2994,3.2994,3.3441,3.3688,3.3688,3.4605,3.5078,3.5066,3.5966,3.6405,3.6405,3.6405,3.6405,0.0,0.0,0.0,0.0,0.0,0.0,3.1223,0.0,2.9085,2.7861,2.7636,2.7268,2.5917,2.5693,2.5693,2.5693,2.5693,2.5693,2.5693,2.5693,2.5693,2.5693,2.5693,2.5693,2.5693,2.5693,2.5693,2.5693,2.5693,2.5693,2.5693,2.5693,2.5693,2.5693,2.5693,2.5693,2.5703,2.6182,2.6621,2.7041,2.7471,2.79,2.8291,2.8291,2.8291,2.8291,2.8291,2.8291,2.8291,2.8291,2.8291,2.8291,2.8291,2.8291,2.8291,2.8291,2.8291,2.8291,2.8291,2.8291,2.8291,2.8291,2.8291,2.8291,2.8291,2.8291,2.8291,2.8291,2.8291,2.8291,2.8291,2.8291,2.8291,2.8291,2.8291,2.8291,2.8291,2.8291,2.8291,2.8291,2.8291,2.8291,2.8291,2.8291,2.8291,2.8344,2.8344,2.8398,2.8388,2.9555,3.0369,3.0421,3.1582,3.2381,3.2431,3.2431,3.2431,3.2431,3.3712,3.4434,3.4434,3.5715,3.6405,3.6405,3.6405,3.6405,3.6405,3.6405,3.6405,3.6405,3.6405,3.6405,3.0947,0.0,0.0,0.0,0.0,0.0,0.0,0.0,3.0135,2.8049,2.8272,2.8272,2.61,2.5693,2.5693,2.5693,2.5693,2.5693,2.5693,2.5693,2.5693,2.5693,2.5693,2.5693,2.5693,2.5693,2.5693,0.0,2.5693,2.5693,2.5693,2.5693,2.5693,2.5693,2.5693,2.584,2.6201,2.6631,2.706,2.749,2.791,2.8174,2.8291,2.8291,2.8291,2.8291,2.8291,2.8291,2.8291,2.8291,2.8291,2.8291,2.8291,2.8291,2.8291,2.8291,2.8291,2.8291,2.8291,2.8291,2.8291,2.8291,2.8291,2.8291,2.8291,2.8291,2.8291,2.8291,2.8291,2.8291,2.8291,2.8291,2.8291,2.8291,2.8291,2.8291,2.8291,2.8291,2.8291,2.8291,2.8291,2.8291,2.8291,2.8291,2.8644,2.9608,2.9765,3.012,3.1071,3.1531,3.214,3.3166,3.3613,3.4215,3.5198,3.5246,3.5246,3.5246,3.5607,3.5858,3.5858,3.6216,3.6405,3.6405,3.6405,3.6405,3.6405,3.6405,3.6405,3.6405,3.6405,3.6405,0.0,0.0,0.0,0.0,0.0,0.0,3.2008,3.2008,3.1323,2.8866,2.8901,2.8623,2.6149,2.5693,2.5693,2.5693,2.5693,2.5693,2.5693,2.5693,2.5693,2.5693,2.5693,2.5693,2.5693,2.5693,2.5693,2.5693,2.5693,2.5693,2.5693,2.5693,2.5693,2.5693,2.5693,2.5947,2.6387,2.6807,2.7236,2.7718,2.8096,2.8291,2.8291,2.8291,2.8291,2.8291,2.8291,2.8291,2.8291,2.8291,2.8291,2.8291,2.8291,2.8291,2.8291,2.8291,2.8291,2.8291,2.8291,2.8291,2.8291,2.8291,2.8291,2.8291,2.8291,2.8291,2.8291,2.8291,2.8291,2.8291,2.8291,2.8291,2.8291,2.8291,2.8291,2.8291,2.8291,2.8291,2.8291,2.8291,2.8291,2.8291,2.8291,2.8751,2.9408,3.0162,3.0773,3.1429,3.218,3.2794,3.3514,3.4337,3.4872,3.5571,3.631,3.6405,3.6405,3.6405,3.6405,3.6405,3.6405,3.6405,3.6405,3.6405,3.6405,3.6405,3.6405,3.6405,3.6405,3.6405,3.6405,3.6405,0.0,0.0,0.0,0.0,0.0,0.0,3.3124,3.3124,3.2426,3.009,2.959,2.8901,2.6514,2.6014,2.5927,2.5927,2.5781,2.5693,2.5693,2.5693,2.5693,2.5693,2.5693,2.5693,2.5693,2.5693,2.5693,2.5693,2.5693,2.5693,2.5693,2.5693,2.5693,2.5693,2.5732,2.6016,2.6455,2.6875,2.7305,2.7796,2.8115,2.8291,2.8291,2.8291,2.8291,2.8291,2.8291,2.8291,2.8291,2.8291,2.8291,2.8291,2.8291,2.8291,2.8291,2.8291,2.8291,2.8291,2.8291,2.8291,2.8291,2.8291,2.8291,2.8291,2.8291,2.8291,2.8291,2.8291,2.8291,2.8291,2.8291,2.8291,2.8291,2.8291,2.8291,2.8291,2.8291,2.8291,2.8291,2.8291,2.8398,2.8548,2.8548,2.9608,3.0577,3.0721,3.1785,3.2582,3.2733,3.3859,3.4629,3.4629,3.5667,3.6405,3.6405,3.6405,3.6405,3.6405,3.6405,3.6405,3.6405,3.6405,3.6405,3.6405,3.6405,3.6405,3.6405,3.6405,3.6405,3.6405,3.6405,3.6405,0.0,0.0,0.0,0.0,0.0,0.0,3.3124,3.3124,3.2655,3.1178,3.0855,3.0395,2.8947,2.7898,2.722,2.722,2.639,2.5693,2.5693,2.5693,2.5693,2.5693,2.5693,2.5693,2.5693,2.5693,2.5693,2.5693,2.5693,2.5693,2.5693,2.5693,2.5693,2.5693,2.6084,2.6465,2.6894,2.7324,2.7754,2.8174,2.8252,2.8291,2.8291,2.8291,2.8291,2.8291,2.8291,2.8291,2.8291,2.8291,2.8291,2.8291,2.8291,2.8291,2.8291,2.8291,2.8291,2.8291,2.8291,2.8291,2.8291,2.8291,2.8291,2.8291,2.8291,2.8291,2.8291,2.8291,2.8291,2.8291,2.8291,2.8291,2.8291,2.8291,2.8291,2.8291,2.8291,2.8291,2.8291,2.8291,2.9154,2.9911,2.9911,3.1019,3.2292,3.3415,3.3822,3.4374,3.5451,3.5858,3.6013,3.6013,3.6263,3.6405,3.6405,3.6405,3.6405,3.6405,3.6405,3.6405,3.6405,3.6405,3.6405,3.6405,3.6405,3.6405,3.6405,3.6405,3.6405,3.6405,3.6405,3.6405,0.0,0.0,0.0,3.3124,0.0,0.0,0.0,3.3124,3.2754,3.1456,3.1223,3.081,2.9636,2.8912,2.8319,2.7683,2.7078,2.6428,2.5781,2.5693,2.5693,2.5693,2.5693,2.5693,2.5693,2.5693,2.5693,2.5693,2.5693,2.5693,2.5693,2.5693,2.5693,2.5693,2.6162,2.6592,2.7012,2.7451,2.7881,2.8291,2.8291,2.8291,2.8291,2.8291,2.8291,2.8291,2.8291,2.8291,2.8291,2.8291,2.8291,2.8291,2.8291,2.8291,2.8291,2.8291,2.8291,2.8291,2.8291,2.8291,2.8291,2.8291,2.8291,2.8291,2.8291,2.8291,2.8291,2.8291,2.8291,2.8291,2.8291,2.8291,2.8291,2.8291,2.8291,2.8291,2.8291,2.8291,2.8291,2.8291,2.9355,3.0317,3.0317,3.1429,3.2794,3.4178,3.4981,3.5619,3.631,3.6405,3.6405,3.6405,3.6405,3.6405,3.6405,3.6405,3.6405,3.6405,3.6405,3.6405,3.6405,3.6405,3.6405,3.6405,3.6405,3.6405,3.6405,3.6405,3.6405,3.6405,3.6405,3.6405,0.0,0.0,0.0,0.0,0.0,3.3124,0.0,0.0,0.0,3.1777,0.0,0.0,0.0,0.0,0.0,2.7943,0.0,0.0,0.0,2.5577,0.0,2.5693,2.5693,2.5693,2.5693,2.5693,2.5693,2.5693,2.5693,2.5693,2.5693,2.5693,2.5732,2.581,2.6289,2.6709,2.7139,2.7568,2.7959,2.8291,2.8291,2.8291,2.8291,2.8291,2.8291,2.8291,2.8291,2.8291,2.8291,2.8291,2.8291,2.8291,2.8291,2.8291,2.8291,2.8291,2.8291,2.8291,2.8291,2.8291,2.8291,2.8291,2.8291,2.8291,2.8291,2.8291,2.8291,2.8291,2.8291,2.8291,2.8291,2.8291,2.8291,2.8291,2.8291,2.8291,2.8291,2.8291,2.8291,2.8291,2.9355,3.0369,3.0618,3.1836,3.3204,3.4581,3.5715,3.6405,3.6405,3.6405,3.6405,3.6405,3.6405,3.6405,3.6405,3.6405,3.6405,3.6405,3.6405,3.6405,3.6405,3.6405,3.6405,3.6405,3.6405,3.6405,3.6405,3.6405,3.6405,3.6405,3.6405,3.6405,0.0,0.0,0.0,0.0,3.3124,0.0,3.3124,0.0,3.3081,3.2896,0.0,0.0,0.0,0.0,0.0,0.0,0.0,0.0,2.4854,2.5196,2.5693,2.5693,2.5693,2.5693,2.5693,2.5693,2.5693,2.5693,2.5693,2.5693,2.5693,2.5693,2.5869,2.6299,2.6728,2.7148,2.764,2.8018,2.8242,2.8291,2.8291,2.8291,2.8291,2.8291,2.8291,2.8291,2.8291,2.8291,2.8291,2.8291,2.8291,2.8291,2.8291,2.8291,2.8291,2.8291,2.8291,2.8291,2.8291,2.8291,2.8291,2.8291,2.8291,2.8291,2.8291,2.8291,2.8291,2.8291,2.8291,2.8291,2.8291,2.8291,2.8291,2.8291,2.8291,2.8291,2.8291,2.8291,2.8291,2.8291,2.9355,3.0669,3.1876,3.3254,3.4629,3.5966,3.631,3.6405,3.6405,3.6405,3.6405,3.6405,3.6405,3.6405,3.6405,3.6405,3.6405,3.6405,3.6405,3.6405,3.6405,3.6405,3.6405,3.6405,3.6405,3.6405,3.6405,3.6405,3.6405,3.6405,3.6405,3.6405,0.0,0.0,0.0,0.0,0.0,0.0,3.3124,0.0,3.3124,0.0,0.0,0.0,0.0,0.0,0.0,0.0,2.9183,0.0,0.0,0.0,2.5693,0.0,0.0,0.0,2.5693,2.5693,2.5693,2.5693,2.5693,2.5693,2.5693,2.5693,2.5937,2.6377,2.6797,2.7226,2.7718,2.8086,2.8291,2.8291,2.8291,2.8291,2.8291,2.8291,2.8291,2.8291,2.8291,2.8291,2.8291,2.8291,2.8291,2.8291,2.8291,2.8291,2.8291,2.8291,2.8291,2.8291,2.8291,2.8291,2.8291,2.8291,2.8291,2.8291,2.8291,2.8291,2.8291,2.8291,2.8291,2.8291,2.8291,2.8291,2.8291,2.8291,2.8291,2.8291,2.8291,2.8291,2.8548,2.9303,2.9911,3.0979,3.3155,3.4019,3.4884,3.6216,3.6405,3.6405,3.6405,3.6405,3.6405,3.6405,3.6405,3.6405,3.6405,3.6405,3.6405,3.6405,3.6405,3.6405,3.6405,3.6405,3.6405,3.6405,3.6405,3.6405,3.6405,3.6405,3.6405,3.6405,3.6405,3.6405,3.3307,0.0,0.0,0.0,0.0,0.0,0.0,0.0,0.0,0.0,0.0,0.0,0.0,0.0,0.0,0.0,0.0,2.926,0.0,2.6639,0.0,0.0,0.0,0.0,0.0,2.5693,2.5693,2.5693,2.5693,2.5693,2.5693,2.5693,2.5986,2.6543,2.6855,2.7275,2.7885,2.8135,2.8291,2.8291,2.8291,2.8291,2.8291,2.8291,2.8291,2.8291,2.8291,2.8291,2.8291,2.8291,2.8291,2.8291,2.8291,2.8291,2.8291,2.8291,2.8291,2.8291,2.8291,2.8291,2.8291,2.8291,2.8291,2.8291,2.8291,2.8291,2.8291,2.8291,2.8291,2.8291,2.8291,2.8291,2.8291,2.8291,2.8291,2.8291,2.8291,2.8291,2.8601,2.9555,3.0369,3.148,3.3464,3.4129,3.4884,3.6216,3.6405,3.6405,3.6405,3.6405,3.6405,3.6405,3.6405,3.6405,3.6405,3.6405,3.6405,3.6405,3.6405,3.6405,3.6405,3.6405,3.6405,3.6405,3.6405,3.6405,3.6405,3.6405,3.6405,3.6405,3.6405,3.6405,0.0,0.0,0.0,3.3124,0.0,0.0,0.0,0.0,3.3124,0.0,0.0,0.0,0.0,0.0,0.0,0.0,0.0,0.0,0.0,0.0,0.0,0.0,0.0,0.0,0.0,2.5693,2.5693,2.5693,2.5693,2.5693,2.5693,2.5693,2.6074,2.6973,2.7012,2.7422,2.8262,2.8281,2.8291,2.8291,2.8291,2.8291,2.8291,2.8291,2.8291,2.8291,2.8291,2.8291,2.8291,2.8291,2.8291,2.8291,2.8291,2.8291,2.8291,2.8291,2.8291,2.8291,2.8291,2.8291,2.8291,2.8291,2.8291,2.8291,2.8291,2.8291,2.8291,2.8291,2.8291,2.8291,2.8291,2.8291,2.8291,2.8291,2.8291,2.8291,2.8291,2.8291,2.8291,2.8344,3.0473,3.228,3.2331,3.3514,3.4884,3.6216,3.6405,3.6405,3.6405,3.6405,3.6405,3.6405,3.6405,3.6405,3.6405,3.6405,3.6405,3.6405,3.6405,3.6405,3.6405,3.6405,3.6405,3.6405,3.6405,3.6405,3.6405,3.6405,3.6405,3.6405,3.6405,3.6405,0.0,0.0,3.4073,3.3709,0.0,0.0,0.0,0.0,0.0,0.0,0.0,0.0,0.0,0.0,0.0,0.0,0.0,0.0,0.0,0.0,0.0,0.0,0.0,0.0,0.0,0.0,2.5693,2.5693,2.5693,2.5693,2.5693,2.6006,2.6426,2.6992,2.7295,2.7715,2.8281,2.8291,2.8291,2.8291,2.8291,2.8291,2.8291,2.8291,2.8291,2.8291,2.8291,2.8291,2.8291,2.8291,2.8291,2.8291,2.8291,2.8291,2.8291,2.8291,2.8291,2.8291,2.8291,2.8291,2.8291,2.8291,2.8291,2.8291,2.8291,2.8291,2.8291,2.8291,2.8291,2.8291,2.8291,2.8291,2.8291,2.8291,2.8291,2.8291,2.8291,2.8291,2.8548,2.946,3.1071,3.2593,3.3514,3.4812,3.587,3.631,3.6405,3.6405,3.6405,3.6405,3.6405,3.6405,3.6405,3.6405,3.6405,3.6405,3.6405,3.6405,3.6405,3.6405,3.6405,3.6405,3.6405,3.6405,3.6405,3.6405,3.6405,3.6405,3.6405,3.6405,3.6405,3.6405,3.4969,3.4831,0.0,3.4274,3.4198,0.0,3.3746,0.0,3.337,0.0,0.0,0.0,0.0,0.0,0.0,0.0,0.0,0.0,0.0,2.7662,0.0,0.0,0.0,0.0,0.0,2.5693,2.5693,2.5693,2.5693,2.5693,0.0,2.6152,2.6582,2.7002,2.7441,2.7861,2.8291,2.8291,2.8291,2.8291,2.8291,2.8291,2.8291,2.8291,2.8291,2.8291,2.8291,2.8291,2.8291,2.8291,2.8291,2.8291,2.8291,2.8291,2.8291,2.8291,2.8291,2.8291,2.8291,2.8291,2.8291,2.8291,2.8291,2.8291,2.8291,2.8291,2.8262,2.8115,2.8174,2.8262,2.8105,2.8174,2.8291,2.8291,2.8291,2.8451,2.89,2.9006,2.9408,3.0773,3.214,3.3304,3.4227,3.5523,3.6405,3.6405,3.6405,3.6405,3.6405,3.6405,3.6405,3.6405,3.6405,3.6405,3.6405,3.6405,3.6405,3.6405,3.6405,3.6405,3.6405,3.6405,3.6405,3.6405,3.6405,3.6405,3.6405,3.6405,3.6405,3.6405,3.6405,3.6405]}]]